GFSSW_sfc_thetae_000.txt.gz
Theta_e
323 323 323 323 323 323 324 324 324 324 323 323 323 322 321 320 321 324 318 324 326 353 352 337 336 337 341 333 335 333 319 314 315 317 325 333 329 336 338 337 340 341 337 345 348
322 322 322 322 323 323 324 323 323 323 322 322 322 321 320 319 323 319 333 341 348 354 330 327 328 334 329 327 331 324 318 316 323 324 327 330 331 334 334 337 339 340 346 348 347
320 321 321 321 322 322 323 323 322 322 321 321 321 319 318 321 320 316 346 345 353 351 327 325 334 331 322 322 323 321 317 325 328 330 332 331 332 334 331 330 338 338 342 344 344
319 320 320 320 320 321 321 321 321 320 320 320 319 318 318 324 306 322 346 349 354 336 326 323 329 322 318 317 320 318 329 330 332 333 331 329 333 335 336 336 344 344 345 345 343
318 319 319 319 319 320 321 320 319 319 319 319 318 317 321 316 315 333 351 345 335 330 322 327 324 320 316 318 320 324 330 333 334 332 331 330 330 335 337 343 346 346 346 345 344
318 319 318 319 319 319 319 319 318 318 318 318 317 316 321 310 325 336 337 325 330 326 322 329 321 322 318 318 319 329 331 331 331 328 328 326 329 330 340 345 344 344 344 346 345
317 317 318 318 318 317 317 317 317 317 316 316 316 322 318 314 332 333 337 323 325 324 322 328 325 320 320 321 329 332 327 330 329 331 326 327 324 328 341 344 342 342 345 346 347
317 317 317 317 317 316 316 315 319 316 316 317 320 326 315 324 335 327 326 324 326 330 329 329 325 320 319 327 328 324 324 319 327 330 328 331 318 331 339 339 339 341 343 345 347
316 316 316 316 316 315 314 315 318 318 319 321 328 325 318 330 327 327 326 321 325 328 329 323 323 319 322 318 316 320 313 315 321 330 328 327 321 331 336 335 336 339 342 343 346
315 315 315 315 315 314 313 315 322 324 325 327 329 321 322 319 324 324 326 323 324 324 321 320 319 315 316 315 307 310 312 315 315 324 327 323 325 329 333 332 333 336 339 341 342
315 314 314 314 313 312 315 325 324 322 325 320 320 318 318 323 327 322 325 322 323 319 313 318 314 310 312 315 314 313 312 313 317 323 323 322 326 326 330 332 330 332 337 339 340
314 314 313 313 312 311 318 323 324 324 316 321 321 321 323 323 316 320 326 318 316 311 314 312 310 314 315 314 313 312 311 311 318 322 323 325 325 329 330 328 331 332 335 337 341
314 313 313 312 311 316 318 317 328 326 316 317 320 319 320 322 315 316 322 319 314 311 311 309 311 316 314 313 312 312 311 311 313 322 325 325 323 328 331 333 334 336 337 340 341
313 313 312 309 311 316 315 328 325 328 311 312 313 318 320 318 313 320 322 318 314 311 312 313 315 313 312 312 314 310 315 314 314 319 311 324 308 325 329 331 333 334 338 339 342
313 313 310 309 313 312 321 322 327 323 299 312 315 324 320 315 316 316 324 318 312 313 313 311 311 312 311 312 315 312 319 317 317 318 317 320 313 316 328 327 329 333 335 337 341
312 312 310 314 315 316 318 323 326 308 297 308 313 313 313 315 315 318 317 320 318 314 315 314 317 316 315 315 315 321 320 319 319 314 307 311 312 310 316 324 328 333 336 338 340
310 309 308 313 311 320 321 326 310 301 311 307 308 312 312 310 312 313 313 312 310 307 309 312 313 316 317 313 317 317 313 305 303 303 302 312 310 311 317 326 328 330 336 339 340
308 306 312 314 320 316 314 314 304 306 307 313 310 311 308 311 311 312 311 310 314 313 310 307 305 313 317 315 312 313 311 305 298 299 303 312 304 311 323 326 328 332 336 339 339
307 316 315 320 318 320 312 306 307 308 313 311 309 306 308 310 310 311 311 311 313 314 309 308 308 315 316 317 317 312 308 313 306 307 303 306 312 318 324 324 326 331 335 338 337
311 311 312 322 324 314 311 304 310 313 314 312 307 309 305 308 308 309 310 314 312 315 317 312 307 313 314 316 315 315 317 307 308 300 299 304 305 309 315 318 325 327 332 338 336
310 305 318 324 322 309 306 310 312 314 314 311 310 309 309 308 309 309 310 313 314 313 316 314 311 311 314 312 311 311 311 312 312 308 302 301 306 317 316 318 320 328 333 338 335
311 302 321 322 309 310 309 312 309 312 314 312 313 312 311 310 309 310 309 313 315 315 310 314 312 308 309 315 317 316 313 313 307 307 308 306 305 319 319 320 322 325 333 337 339
308 308 323 320 306 310 314 312 313 311 311 311 311 313 313 312 309 311 312 315 315 315 314 315 309 305 307 312 314 312 315 315 314 313 308 304 307 322 321 323 326 326 332 337 340
311 306 315 317 317 312 311 310 309 311 311 311 312 314 313 312 315 312 313 316 318 317 321 318 312 309 304 308 312 310 312 314 313 308 309 309 311 315 319 321 323 327 332 335 338
314 310 310 309 311 311 310 310 309 308 312 313 312 311 312 311 312 311 315 316 318 317 318 317 311 313 312 312 312 311 312 312 312 312 309 310 311 316 319 320 324 325 327 333 334
307 307 313 314 309 308 304 309 306 308 310 309 310 312 314 312 314 311 314 316 315 319 319 320 313 315 310 312 311 309 312 313 313 313 313 312 311 317 319 321 319 321 325 328 332
310 312 308 302 308 308 308 308 307 310 311 312 313 314 312 314 316 318 318 319 318 318 318 318 315 314 307 312 311 307 312 313 314 315 314 309 314 318 316 318 320 324 326 327 330

GFSSW_sfc_thetae_003.txt.gz
Theta_e
323 323 323 323 323 323 324 324 324 324 325 325 324 324 323 322 321 326 322 329 331 349 352 334 339 338 342 338 335 334 319 314 317 318 323 330 329 335 339 334 335 337 336 343 346
322 322 322 322 322 323 323 323 323 324 323 323 322 323 322 321 325 323 340 352 356 354 331 329 327 331 332 330 329 325 318 317 323 325 325 329 331 334 336 338 335 337 341 345 346
321 321 321 321 322 322 323 322 322 322 322 322 322 322 321 322 323 320 349 350 354 352 331 328 330 331 327 326 324 323 317 322 324 327 329 328 327 331 328 333 336 336 338 342 344
319 319 320 319 320 320 321 321 321 321 321 321 321 321 320 326 310 328 351 352 354 336 330 324 327 327 323 320 323 320 324 326 326 327 328 326 331 331 337 338 342 341 341 342 342
318 318 319 319 319 319 320 320 319 320 320 321 321 319 321 319 319 334 348 346 336 333 325 322 325 326 319 321 320 324 325 327 327 329 328 329 330 335 336 341 342 342 342 341 341
318 318 318 318 318 319 319 318 318 320 320 320 319 318 323 315 327 333 332 324 324 328 323 325 329 327 322 320 322 326 326 326 327 326 327 327 329 336 338 342 341 342 342 342 342
317 317 317 318 318 317 317 317 318 321 319 319 319 323 320 318 330 333 333 322 325 325 321 329 329 323 324 319 326 326 322 324 325 327 324 327 323 330 341 341 340 342 343 345 346
317 317 317 317 317 316 316 315 318 319 318 318 320 327 322 325 333 329 333 322 327 326 326 333 328 324 323 326 326 321 322 317 324 325 327 321 319 331 339 340 339 341 343 344 347
316 316 316 316 316 315 314 314 321 320 320 322 328 331 323 331 328 328 328 320 322 326 331 328 326 322 322 318 319 319 314 315 319 325 326 320 321 331 335 335 336 339 340 341 343
315 315 315 315 315 313 313 314 323 322 324 329 328 323 326 319 326 325 326 324 321 324 325 322 320 318 319 316 309 313 314 316 317 322 322 320 320 330 332 331 333 336 338 338 340
315 315 314 314 313 312 314 328 327 326 329 322 322 319 319 325 327 323 325 322 322 322 316 320 314 312 314 317 317 317 314 315 317 322 321 320 322 327 331 330 330 333 336 337 338
314 314 314 313 312 311 316 324 325 327 317 322 322 324 324 325 317 320 325 317 317 313 317 316 312 316 317 316 316 313 313 314 318 321 320 319 322 326 329 330 330 331 333 334 336
314 314 313 312 311 315 322 324 328 329 318 318 321 321 322 323 316 317 320 318 315 313 313 312 315 318 316 314 312 313 311 312 313 318 320 319 318 324 327 329 331 331 333 335 336
313 313 312 310 310 319 317 329 331 329 312 313 316 319 322 321 315 322 322 318 315 312 313 313 316 314 313 312 313 310 315 314 313 314 310 318 308 321 327 324 326 330 331 333 335
313 313 311 309 314 312 321 324 327 327 300 314 316 325 322 315 317 317 322 319 313 313 314 311 313 313 312 313 315 313 317 314 314 313 313 313 311 318 319 325 326 327 331 334 336
312 312 310 314 318 318 322 321 326 310 300 310 316 315 315 315 315 317 316 321 319 314 315 315 320 317 316 317 317 319 317 316 316 313 306 313 311 312 320 326 329 331 329 332 336
310 309 309 315 310 321 324 321 311 303 313 309 311 314 313 311 313 313 312 313 311 308 309 314 314 317 318 314 317 317 313 306 304 304 305 313 310 313 318 323 323 328 332 333 335
308 307 314 317 319 319 315 311 304 309 310 313 312 313 309 312 313 312 311 310 315 314 310 308 306 314 318 315 312 313 313 306 300 302 305 312 306 310 318 323 327 329 332 335 337
307 317 318 320 322 318 312 304 307 311 313 311 311 309 309 311 312 312 311 311 314 316 310 309 309 316 317 318 317 313 309 315 308 309 306 309 312 317 322 321 324 326 329 335 337
311 313 314 323 325 315 309 302 311 316 316 315 309 310 307 310 309 311 311 315 314 317 319 315 309 315 316 318 318 316 317 308 309 301 301 306 307 309 317 318 321 323 326 332 338
314 310 319 325 325 311 305 309 313 317 316 313 312 311 310 309 310 310 311 315 317 316 318 316 313 312 315 313 312 312 312 313 313 311 304 302 307 318 317 319 319 322 325 331 337
312 305 324 327 309 311 308 311 309 315 317 315 316 315 312 312 311 310 310 314 318 318 313 316 313 309 311 316 317 316 313 313 307 308 309 308 307 319 319 320 321 322 325 331 339
310 311 322 322 305 308 312 311 314 314 314 314 313 316 317 312 310 311 313 317 317 316 315 316 310 306 308 313 315 312 314 315 314 313 310 306 308 322 321 321 323 324 325 331 338
311 307 310 317 315 313 312 310 312 316 314 315 314 317 315 313 315 312 312 315 317 317 325 319 312 309 304 309 314 310 311 314 313 309 310 310 312 318 320 321 323 325 328 330 336
314 311 316 309 310 313 316 314 311 311 314 316 314 314 315 312 313 312 314 316 317 316 318 316 311 312 312 312 313 312 311 312 312 313 309 312 311 317 319 320 323 323 325 328 333
307 308 314 313 314 313 308 312 311 312 312 312 312 314 315 315 315 313 315 316 315 319 317 319 311 314 310 313 312 310 312 313 313 313 313 313 313 321 321 322 321 322 322 324 328
311 313 310 308 311 310 310 312 312 313 314 315 315 315 314 317 320 321 321 322 321 320 318 318 314 312 308 312 312 307 311 312 314 316 315 311 316 321 319 320 321 323 324 325 326

GFSSW_sfc_thetae_006.txt.gz
Theta_e
322 322 322 322 322 323 324 323 323 324 325 325 325 324 324 324 322 325 320 329 335 354 352 334 331 334 335 333 337 336 319 315 316 318 322 329 326 330 333 331 334 337 336 340 343
321 321 321 321 322 322 323 323 323 322 323 323 323 323 324 323 322 321 334 353 353 353 328 324 324 327 327 330 329 323 316 317 322 324 323 322 326 330 330 331 331 331 339 342 343
319 320 320 320 321 321 322 322 322 321 321 322 322 322 323 322 321 319 345 352 355 348 326 327 327 327 326 328 324 322 316 321 325 327 328 323 330 332 331 327 332 331 336 339 341
318 319 319 319 319 320 320 320 320 320 321 322 322 322 322 323 310 325 354 354 357 329 326 326 323 323 324 320 323 319 325 324 324 328 326 325 331 327 329 329 338 336 339 339 339
318 319 319 319 319 319 320 319 319 319 321 322 322 322 321 317 317 333 352 350 328 324 323 323 319 325 321 320 320 321 323 324 327 327 327 330 329 329 325 336 337 337 338 338 339
318 318 318 318 319 319 319 318 317 318 322 322 322 319 319 313 326 331 326 324 323 323 324 324 322 328 323 320 319 325 324 323 326 324 327 326 329 331 335 338 336 336 337 338 339
317 317 317 318 318 318 318 317 316 318 322 321 321 321 321 316 327 330 327 322 324 324 322 324 327 326 324 319 327 325 320 323 323 325 325 326 324 327 336 338 336 337 338 339 340
317 317 317 317 317 317 316 315 316 320 321 320 321 323 318 329 329 329 328 322 322 325 324 326 332 325 322 324 323 320 320 314 323 325 324 325 319 331 336 336 336 337 338 340 342
316 316 316 316 316 315 315 315 316 323 323 322 323 323 320 328 321 329 328 319 320 323 324 326 330 321 321 317 317 318 312 315 318 325 322 322 320 331 335 334 333 336 337 339 341
315 315 315 315 315 314 313 314 322 324 325 327 326 321 327 323 322 326 328 322 320 320 319 324 322 316 316 315 309 312 313 316 316 321 324 321 321 328 331 331 331 333 335 337 338
315 314 314 314 313 312 313 317 325 325 327 321 320 318 322 328 327 322 325 319 319 317 314 321 314 310 313 317 318 318 315 315 318 324 322 320 321 325 327 329 331 332 333 334 335
314 314 314 313 312 312 312 313 321 323 316 323 324 324 325 324 317 318 323 315 314 311 316 315 310 315 317 318 316 315 313 313 318 321 321 321 320 325 326 327 330 332 333 334 336
314 313 313 312 311 314 316 321 327 325 316 318 321 319 322 323 317 316 319 316 312 312 313 311 313 317 316 314 313 314 311 312 314 318 319 317 318 318 325 328 329 331 334 335 335
313 313 312 310 310 314 315 324 330 328 310 311 315 319 321 321 315 321 321 317 314 312 314 313 317 315 314 312 313 309 314 314 313 313 308 317 306 318 322 323 326 328 330 332 334
313 312 311 309 310 310 317 321 324 323 297 314 315 324 321 317 317 316 322 317 312 313 313 310 313 313 312 313 315 311 316 313 313 311 310 311 308 315 323 320 322 326 329 331 333
312 311 310 312 313 317 321 322 320 308 298 310 316 314 314 316 315 317 316 318 318 314 314 313 317 315 314 315 316 316 316 314 313 310 304 309 310 311 317 324 323 325 328 331 332
310 309 309 312 307 317 316 316 305 301 312 308 310 313 313 312 312 314 312 310 308 306 306 311 312 316 317 313 316 315 312 305 303 303 302 312 309 315 322 324 327 328 329 331 334
308 307 312 314 315 314 315 307 300 308 308 314 313 313 309 312 310 312 310 307 312 311 308 305 304 313 316 314 312 312 312 305 301 301 304 313 307 314 322 327 331 333 333 332 332
307 314 314 320 320 317 309 301 304 308 314 311 313 308 309 311 310 310 309 308 311 313 308 306 307 316 316 317 316 312 309 314 308 309 305 308 313 317 320 319 320 323 324 330 331
309 311 312 318 324 315 305 300 307 312 314 315 309 311 306 308 307 309 308 311 311 315 317 313 308 314 315 317 317 314 316 307 308 302 301 305 307 308 318 318 320 320 321 327 334
312 312 318 319 323 309 300 304 309 313 315 313 312 311 309 309 309 309 309 312 314 315 317 315 313 311 314 312 310 312 311 312 311 309 303 301 305 319 322 321 319 321 323 325 327
309 304 320 323 310 308 303 308 308 311 316 316 315 314 312 313 309 309 309 312 316 316 312 316 313 308 310 316 317 315 313 313 307 308 310 309 306 320 320 320 320 322 323 327 331
306 309 319 321 304 305 309 309 311 310 313 314 312 314 316 314 309 311 311 316 318 316 315 316 311 306 308 312 315 311 313 313 313 312 311 305 308 324 321 321 323 322 325 334 336
306 304 310 315 313 308 307 308 308 313 313 316 314 315 313 313 315 311 311 315 318 317 327 319 312 311 303 309 313 310 311 312 311 308 308 309 313 317 319 322 327 326 329 330 338
310 306 313 307 308 309 310 311 310 308 314 316 313 313 313 311 312 311 313 313 316 319 317 316 314 311 311 311 311 311 311 311 310 312 308 311 313 319 319 322 323 325 326 328 334
307 303 309 307 312 314 307 310 311 311 312 311 311 313 314 312 316 315 316 317 314 316 315 316 312 312 308 311 311 309 311 312 312 311 311 312 314 320 324 326 323 322 323 327 330
311 307 306 306 309 309 311 312 312 315 314 315 314 314 312 314 320 321 320 320 320 319 316 317 312 312 306 310 310 306 310 311 312 314 313 311 318 323 321 321 321 324 324 327 330

GFSSW_sfc_thetae_009.txt.gz
Theta_e
322 322 322 321 321 322 322 323 323 323 323 323 323 322 323 324 322 321 317 324 331 349 353 329 328 329 331 328 334 333 316 313 315 316 316 325 322 329 334 331 334 335 335 338 348
321 321 321 321 321 322 322 322 322 321 322 322 322 322 323 324 319 315 331 351 349 356 325 318 318 321 319 322 327 325 317 314 322 323 320 327 329 329 328 329 330 332 337 342 344
319 319 320 320 321 321 321 321 321 321 321 321 323 323 324 321 317 315 348 346 352 351 324 318 319 319 315 319 323 327 317 323 323 325 328 326 328 331 330 324 329 329 332 336 341
318 318 318 319 319 320 320 320 320 319 320 321 323 324 323 318 304 317 355 354 350 332 321 318 318 314 311 314 319 317 324 325 325 328 327 323 326 322 327 328 335 335 336 336 335
317 317 318 318 318 319 319 320 319 318 319 322 323 323 318 312 313 327 353 352 333 321 316 316 316 314 310 317 316 317 319 323 325 326 327 329 323 323 325 329 337 337 337 335 334
317 317 318 318 318 319 319 318 318 318 319 323 323 321 313 306 322 325 325 325 320 315 314 317 317 316 315 318 315 322 319 322 322 325 328 327 323 324 326 332 334 334 334 335 335
317 317 317 317 318 317 318 317 317 317 318 323 322 320 315 309 322 326 320 316 318 315 313 319 321 315 315 314 323 322 315 319 321 323 325 329 323 326 331 332 331 332 334 335 336
316 316 316 316 317 317 316 315 316 317 319 323 322 318 308 322 323 321 321 317 318 317 317 320 321 316 315 316 320 315 313 307 318 321 325 325 316 328 332 331 329 332 334 335 335
316 316 316 316 316 315 314 314 317 320 322 323 317 315 315 330 320 321 322 317 313 313 316 323 318 314 317 308 306 310 304 310 314 319 319 319 319 328 333 332 331 332 334 336 336
315 315 315 314 314 313 313 314 319 322 324 326 322 313 319 321 318 320 323 321 312 312 313 312 311 309 308 303 299 304 306 312 312 317 318 317 320 326 330 331 331 333 335 336 337
315 314 314 314 313 312 310 308 312 318 322 318 314 315 317 323 323 317 321 318 311 308 304 308 306 304 307 308 309 313 311 312 317 319 317 315 320 324 327 327 326 327 330 332 335
314 314 313 313 312 311 308 306 309 313 309 317 321 322 324 324 317 317 321 312 307 304 306 305 305 312 315 313 311 310 313 311 316 320 317 315 317 322 324 324 327 328 328 330 331
313 313 313 312 311 311 311 312 320 319 308 313 317 317 317 320 315 312 314 312 306 303 305 303 310 316 313 310 309 308 305 309 312 319 320 317 313 317 324 325 328 330 330 331 333
313 313 312 310 308 307 304 313 317 318 300 306 310 316 317 318 311 319 316 312 307 304 306 307 313 313 310 309 309 300 311 310 310 313 305 316 303 312 317 317 324 328 329 329 332
313 312 311 310 304 305 310 315 316 313 292 311 311 319 316 312 313 313 317 312 306 306 306 306 309 309 308 309 311 306 311 308 308 303 302 307 300 309 315 313 319 323 328 330 332
312 311 311 308 306 310 314 312 310 298 295 308 312 310 310 312 313 315 312 313 313 308 309 309 314 311 311 314 313 313 307 307 304 299 293 300 301 305 311 315 319 323 327 329 331
310 309 308 308 301 308 308 307 298 294 309 306 306 310 308 307 310 311 307 305 302 298 300 307 308 311 312 306 309 307 302 295 293 293 293 300 300 305 317 321 320 321 324 324 331
308 307 308 310 308 308 306 299 293 303 303 310 309 309 305 308 308 309 305 303 306 304 300 299 298 307 311 305 303 303 302 297 292 293 298 306 300 306 322 324 325 325 324 325 324
307 309 308 313 313 310 302 294 296 302 308 307 309 306 304 308 308 306 305 304 305 306 299 299 300 310 312 312 309 304 300 305 298 301 296 301 306 314 319 319 323 324 323 323 324
305 307 309 313 317 309 300 295 301 307 308 308 301 306 304 305 305 303 303 308 307 309 309 303 298 307 311 311 311 307 309 299 297 292 291 298 304 303 308 311 314 322 321 323 324
306 306 314 316 318 306 295 297 303 307 308 304 303 303 306 307 306 303 303 308 310 309 310 307 301 304 309 304 303 304 302 303 301 299 293 294 299 311 313 313 312 313 319 322 325
305 299 314 314 304 305 300 300 302 306 309 307 308 306 307 309 307 304 303 307 312 310 305 308 302 301 304 309 312 307 304 304 298 296 299 299 302 316 316 315 315 317 319 319 323
299 302 312 314 300 302 305 303 304 304 305 306 306 308 311 307 304 309 308 313 313 310 306 308 304 298 302 306 309 306 306 304 305 300 296 298 301 316 315 313 316 316 319 321 321
301 300 308 309 309 305 303 304 303 309 307 308 308 311 310 306 309 307 310 314 314 312 320 315 303 301 297 303 306 303 307 306 301 296 297 300 306 310 313 317 318 318 317 323 324
305 303 306 300 302 302 305 306 303 303 309 310 307 309 308 304 306 307 312 315 314 317 315 310 301 303 304 307 307 308 308 306 302 301 300 302 308 309 312 315 316 317 317 317 321
304 300 301 298 302 305 305 305 307 305 309 310 308 311 310 307 311 308 311 312 313 310 311 310 303 305 301 308 307 305 308 309 309 307 304 305 307 315 317 317 317 317 317 317 318
306 309 301 298 298 300 303 303 308 308 313 314 312 310 309 313 315 313 313 315 311 312 309 307 306 301 296 303 304 300 305 306 308 310 308 302 309 316 315 316 316 316 317 317 319

GFSSW_sfc_thetae_012.txt.gz
Theta_e
320 320 320 320 321 321 322 322 322 322 322 322 322 323 323 323 323 320 312 320 325 352 351 326 334 329 326 326 332 330 313 311 314 314 314 322 324 331 337 336 337 339 338 342 347
319 319 319 319 320 320 321 321 321 321 321 321 321 323 324 324 318 314 329 345 349 355 323 317 314 318 317 319 324 323 315 316 321 321 319 325 326 327 329 331 331 334 341 346 348
318 318 319 319 319 320 320 321 320 320 320 321 322 324 324 322 314 313 348 344 355 349 320 317 314 313 310 315 319 323 318 321 322 324 327 325 327 331 328 325 330 331 339 343 345
317 317 317 318 318 319 319 319 319 319 319 320 322 324 324 316 297 316 352 355 356 329 319 314 313 310 308 308 319 318 323 324 324 330 324 323 326 320 328 329 335 340 343 343 342
316 316 317 317 317 318 318 318 318 318 318 320 323 324 316 310 309 324 356 355 338 320 315 312 311 311 308 309 319 319 321 326 328 326 324 325 321 322 327 333 335 338 340 340 341
317 317 317 317 317 318 318 318 318 317 318 319 323 323 310 301 315 320 326 325 320 314 312 312 312 315 310 309 313 323 323 323 327 325 324 320 321 324 329 334 333 333 334 336 339
316 317 316 317 316 316 317 317 316 316 318 319 323 320 313 305 316 316 318 315 315 313 310 313 314 311 310 308 316 324 318 323 325 326 326 327 322 322 329 333 331 332 332 333 334
315 316 316 316 316 316 315 315 315 317 319 320 323 317 304 319 319 317 313 314 315 312 312 313 316 312 309 311 313 314 315 308 318 326 327 325 316 325 330 329 328 331 332 333 333
315 315 315 315 315 314 313 314 316 321 320 324 314 312 308 328 319 318 317 315 312 309 310 318 313 308 308 306 302 306 303 309 313 321 323 321 318 325 328 328 327 329 331 332 333
315 314 314 314 314 313 312 313 315 321 323 324 322 308 311 315 319 319 317 317 309 308 309 307 305 303 303 301 296 301 305 311 310 316 319 320 319 325 327 327 327 328 330 331 332
314 314 313 313 312 311 309 304 301 308 318 312 313 312 315 318 322 316 317 312 307 303 299 303 299 298 302 306 306 307 310 309 314 317 319 319 320 324 327 327 327 328 329 331 332
313 313 313 313 311 311 307 298 301 306 303 313 317 318 320 318 316 317 314 310 303 298 301 300 298 305 311 311 308 305 308 310 313 317 314 318 319 324 327 327 329 329 331 332 334
313 313 312 311 310 308 305 307 312 306 300 307 312 312 313 317 315 314 311 309 302 299 300 297 302 311 311 309 307 304 309 311 309 315 315 318 313 316 324 327 326 331 333 334 335
313 313 312 309 301 303 300 304 308 308 295 302 305 311 313 315 309 319 315 310 302 300 301 300 307 308 309 308 308 298 309 314 314 311 304 314 303 311 318 319 320 325 329 331 335
313 312 310 309 301 301 304 307 307 305 288 307 308 317 312 309 309 310 316 308 303 302 301 300 304 304 305 309 309 304 309 307 314 310 305 309 303 312 313 313 316 320 326 328 336
312 311 310 304 301 304 308 305 302 295 290 305 310 306 306 308 309 311 310 308 309 303 302 302 310 308 308 311 310 311 305 302 300 297 294 305 305 299 310 314 316 319 327 328 334
310 309 307 307 296 301 302 300 294 289 304 303 301 305 303 303 306 307 304 301 300 295 293 301 304 308 311 303 307 304 296 291 291 290 290 295 305 308 315 319 319 318 326 328 332
308 307 306 307 305 304 299 294 288 298 299 305 305 305 301 303 303 306 301 300 302 298 296 294 295 304 308 305 302 300 298 292 288 290 293 299 295 302 316 322 321 323 328 329 330
307 301 302 304 307 302 297 287 290 296 304 304 302 300 300 304 304 304 300 301 303 300 296 293 296 306 308 309 305 300 297 301 295 296 293 296 302 310 315 318 320 320 326 326 329
302 298 301 307 309 299 292 290 293 302 304 303 296 300 296 299 300 300 301 303 304 304 301 297 293 302 307 306 306 304 304 296 293 289 288 294 298 300 310 314 317 318 320 321 328
296 296 304 310 306 296 288 289 296 301 302 301 299 299 299 299 300 300 303 305 307 306 302 300 296 299 302 300 301 301 298 297 297 294 291 289 296 307 309 316 317 320 322 320 322
294 289 305 309 297 295 291 294 299 299 302 301 303 302 300 302 300 301 301 304 309 308 301 300 295 295 299 305 307 303 301 299 294 292 294 295 297 310 312 315 319 320 322 321 322
292 293 304 302 291 293 297 301 303 301 300 299 300 303 304 301 298 303 306 310 309 308 304 303 294 293 295 298 301 302 302 300 297 295 294 293 296 311 310 311 313 314 315 319 322
294 291 298 300 297 296 295 298 300 307 303 303 302 304 302 300 304 302 304 310 310 310 318 310 294 295 294 295 300 298 302 302 300 294 294 296 301 307 309 311 312 314 316 318 322
295 295 295 291 293 293 294 300 302 301 306 307 303 305 305 299 303 308 309 310 313 314 313 303 295 298 299 304 305 304 305 302 298 298 298 298 304 307 311 313 314 314 316 319 319
296 295 297 292 292 294 295 297 299 301 304 303 305 309 307 302 307 304 306 303 304 308 303 300 296 299 300 304 305 303 305 306 305 304 304 304 304 310 314 313 312 315 315 314 316
298 300 295 292 292 293 295 297 298 300 308 310 309 308 306 307 309 309 309 307 308 303 304 299 299 296 295 301 302 299 302 303 306 309 307 302 306 312 311 312 312 312 313 314 316

GFSSW_sfc_thetae_015.txt.gz
Theta_e
319 319 319 319 320 320 321 321 322 322 322 322 322 322 322 324 322 319 311 319 321 350 351 326 327 327 324 325 331 329 310 308 311 311 315 326 327 336 338 334 334 337 336 341 348
318 318 318 318 319 319 320 320 320 320 321 321 321 322 324 324 316 313 327 343 346 355 321 317 312 316 313 319 325 320 311 313 318 318 319 323 329 329 329 330 331 334 339 343 346
317 317 317 317 318 318 319 319 320 320 320 320 321 322 325 321 310 310 342 342 350 349 319 315 313 311 308 312 321 321 315 320 320 323 324 325 326 329 329 325 331 332 336 341 342
317 317 317 317 317 318 318 318 318 318 319 319 321 324 324 314 296 309 351 355 349 337 317 313 309 307 306 307 313 318 321 321 321 327 324 323 326 326 329 328 336 339 341 341 341
316 316 316 316 317 317 317 317 317 317 318 319 320 324 314 305 306 319 351 353 342 321 315 310 310 309 307 307 311 314 319 322 325 325 324 324 321 325 327 333 338 342 343 341 341
316 317 316 316 316 316 317 317 317 316 317 319 320 323 308 299 311 316 326 335 327 316 313 311 309 312 309 308 311 320 320 322 323 322 322 321 323 326 329 338 339 340 340 341 341
316 316 316 316 316 315 316 316 315 316 317 319 320 320 311 306 313 313 315 316 315 315 309 312 311 308 308 306 314 322 317 322 323 321 318 325 319 322 330 337 336 338 339 340 341
316 316 316 315 315 315 315 314 315 316 321 320 323 315 303 315 318 319 312 310 313 310 310 311 313 309 307 309 316 315 314 312 319 323 323 322 313 325 330 330 330 333 337 338 338
315 315 315 315 314 314 313 313 315 323 321 323 313 310 306 322 319 321 315 312 311 309 309 317 311 306 306 303 303 306 309 308 315 322 323 319 315 325 329 328 326 328 332 332 333
314 314 314 314 313 312 312 313 314 318 322 322 321 307 309 308 317 317 315 315 310 307 307 305 303 300 300 299 295 306 306 311 312 320 320 318 316 323 327 326 326 327 329 330 330
314 313 313 313 312 311 308 301 299 303 313 309 307 310 312 316 318 318 315 310 305 302 298 301 298 296 299 303 304 306 308 311 316 318 318 317 317 321 325 325 325 326 327 329 330
314 313 313 312 311 310 304 297 300 302 297 307 310 313 315 315 312 315 315 307 302 297 298 297 295 302 304 307 305 304 307 309 313 318 318 316 317 321 323 324 325 326 327 328 330
313 313 312 311 310 305 299 300 306 302 295 302 307 308 309 315 311 312 312 306 301 297 297 294 298 306 307 306 306 301 302 307 308 315 317 317 312 317 323 325 326 327 329 330 330
313 313 312 309 299 300 300 301 303 303 293 299 302 307 310 313 308 318 314 308 302 299 298 297 303 305 305 305 306 297 306 310 311 310 304 316 303 311 318 321 324 326 328 329 331
313 312 311 308 300 299 301 302 301 301 286 303 305 313 308 307 308 310 314 307 302 300 298 297 301 301 302 306 308 304 307 306 310 308 305 307 303 307 315 314 321 324 327 331 332
312 311 310 303 300 302 305 302 299 294 288 302 308 304 303 304 307 308 308 308 308 300 299 300 304 304 303 306 309 309 304 300 299 301 297 307 304 301 309 316 319 323 324 330 332
310 309 308 306 296 299 299 297 291 288 301 300 299 302 300 299 304 305 302 300 299 295 291 297 300 302 307 301 304 302 296 289 290 293 294 301 304 306 313 320 322 322 321 328 332
307 307 306 306 305 303 296 291 286 295 297 301 301 302 299 301 300 303 299 298 299 296 293 291 292 299 303 302 300 298 297 290 286 287 293 296 299 307 316 319 324 324 323 326 329
307 298 299 302 305 300 293 284 288 294 301 301 299 297 296 301 301 301 297 299 302 298 294 291 292 302 304 305 304 298 294 298 291 291 290 293 298 305 313 312 320 322 320 324 327
301 295 297 305 305 296 289 286 291 299 301 299 294 297 294 296 297 297 297 301 300 301 300 296 290 298 304 304 303 302 301 293 291 287 287 291 294 297 303 310 315 318 317 323 327
294 291 298 305 300 292 284 286 292 298 299 297 297 296 295 295 296 295 297 302 304 303 303 295 294 295 299 298 299 298 294 293 294 291 289 288 293 303 306 311 314 317 320 323 326
293 285 300 303 293 289 287 291 297 297 298 297 298 297 296 298 295 295 296 300 307 305 297 298 294 293 296 300 302 299 298 297 294 290 290 291 294 307 310 313 316 317 320 324 327
293 290 302 298 287 290 295 298 300 297 297 297 296 299 300 297 294 297 300 306 309 306 301 297 290 289 291 293 297 297 298 295 294 293 292 292 295 308 308 310 316 317 318 319 322
294 289 295 297 293 291 291 295 298 305 301 301 298 299 299 296 298 296 301 306 311 306 317 307 290 295 293 293 297 296 299 299 297 292 292 294 298 305 307 308 311 314 316 319 320
295 293 293 289 292 291 290 295 298 297 302 304 299 302 301 296 298 299 304 307 312 314 311 301 293 293 299 300 300 300 301 300 298 299 298 299 300 305 307 309 311 315 315 317 319
294 292 296 293 291 291 292 293 295 297 297 301 299 303 305 299 303 302 304 303 304 306 299 297 293 295 294 299 300 299 301 302 302 299 299 298 301 307 311 309 310 314 315 316 317
296 296 296 295 290 290 292 294 296 297 300 301 307 304 303 304 308 308 309 308 306 304 301 295 297 291 294 296 298 294 300 300 302 304 304 300 303 308 308 310 311 311 314 317 318

GFSSW_sfc_thetae_018.txt.gz
Theta_e
318 318 318 319 319 319 320 320 321 321 321 321 321 322 322 323 322 317 308 319 320 345 354 332 329 327 325 322 328 323 308 306 310 313 315 328 327 333 337 332 334 337 335 340 346
318 318 317 318 318 319 319 319 319 320 320 320 321 321 322 324 315 311 325 343 346 354 319 315 310 315 312 318 323 317 308 310 316 317 319 324 329 329 328 328 330 333 341 345 346
317 317 317 317 318 318 318 318 318 318 319 319 320 321 324 322 305 305 338 343 348 344 318 317 311 310 307 311 319 319 312 318 318 319 326 323 327 329 326 324 330 330 337 342 343
316 316 316 316 317 317 318 318 317 317 318 318 319 321 324 313 298 308 353 352 351 332 315 311 308 306 305 305 314 315 321 320 320 324 322 324 326 327 329 327 335 336 340 342 340
315 315 315 316 316 316 317 316 317 317 317 318 319 320 313 302 305 313 347 351 342 323 313 309 306 307 306 306 310 311 316 320 325 322 323 326 323 326 328 333 338 338 340 339 340
314 315 315 315 315 316 316 316 316 316 317 318 319 320 306 299 312 313 335 332 325 314 311 309 309 311 308 306 310 316 318 321 322 321 321 321 323 326 328 337 337 337 337 339 340
314 314 314 315 315 315 315 315 315 315 317 320 319 319 309 305 312 314 316 321 321 312 309 310 310 309 307 305 309 321 317 320 319 318 319 325 318 320 331 336 335 336 338 340 341
315 315 315 314 314 315 315 314 314 316 322 321 322 314 300 315 316 318 313 309 314 310 310 310 310 306 305 307 317 315 314 309 317 318 321 320 311 323 334 333 333 336 337 339 340
314 315 315 315 315 314 313 313 315 321 321 323 312 307 304 322 313 318 313 310 310 307 309 315 309 303 305 306 306 307 305 308 314 320 319 318 313 324 333 333 332 335 336 338 338
314 314 314 314 313 312 312 313 313 315 321 321 320 307 309 307 312 316 314 312 308 307 307 304 301 298 298 301 300 304 307 307 311 318 319 316 315 323 327 330 330 332 335 336 336
314 313 313 313 312 311 308 299 299 300 307 305 306 309 309 312 315 315 313 308 304 301 298 299 296 294 299 301 307 309 311 311 313 319 316 315 315 321 324 325 325 326 329 332 332
313 313 313 312 311 310 302 296 299 299 293 302 304 306 310 312 308 311 313 306 301 296 297 296 294 300 304 304 306 310 308 310 312 317 316 315 315 320 324 324 325 325 326 328 330
313 312 312 310 309 302 297 295 302 301 292 299 302 304 305 310 306 308 311 304 300 297 295 293 297 303 304 302 302 303 308 306 311 315 317 315 312 314 321 324 325 326 328 329 328
312 312 311 308 298 299 298 300 300 300 291 297 300 305 308 310 305 315 314 308 299 298 296 295 301 302 302 303 304 297 305 310 310 310 304 314 299 310 316 319 322 324 326 327 329
311 311 309 308 299 297 298 299 300 298 285 301 301 311 306 304 304 308 313 306 300 299 297 296 298 300 301 303 306 303 306 307 310 308 306 307 302 306 316 314 318 322 324 327 329
310 310 309 301 300 301 303 300 297 292 286 299 306 301 302 302 304 307 308 308 306 300 297 300 302 302 302 306 308 307 301 299 299 301 296 305 305 302 308 316 320 323 326 327 329
308 308 307 306 295 298 297 295 289 286 298 297 297 299 298 298 301 302 301 299 298 292 290 295 298 301 304 300 303 300 295 290 291 293 293 301 303 308 310 318 322 322 325 328 331
306 306 304 305 301 302 294 289 283 293 295 298 299 299 296 298 299 300 299 297 298 297 291 289 290 298 301 300 298 297 296 290 286 287 294 299 300 307 317 318 322 324 325 328 328
306 297 296 300 305 298 289 282 285 292 299 298 297 295 294 298 298 299 295 297 299 297 294 289 290 299 302 303 303 296 293 297 290 287 289 293 298 306 309 311 315 318 322 323 326
300 295 294 304 303 293 285 284 287 296 298 297 292 295 291 294 295 294 294 299 299 300 298 295 289 296 300 302 301 299 299 293 289 286 285 290 293 296 303 307 311 313 320 322 325
293 288 294 303 297 290 281 283 289 296 297 296 295 294 293 293 294 293 295 300 302 300 299 294 291 292 297 296 296 295 293 292 292 290 287 286 291 300 304 306 309 313 319 321 323
294 283 297 300 290 286 285 288 295 294 296 295 295 294 293 295 293 294 295 299 304 301 296 296 294 291 293 297 300 299 296 295 293 288 289 289 292 305 306 308 312 315 319 319 322
292 291 298 297 286 287 292 296 297 295 294 294 294 296 295 293 290 294 297 303 304 301 298 296 289 289 289 292 295 295 296 293 291 291 289 291 293 305 307 309 312 315 316 318 322
294 287 293 293 290 288 288 291 295 304 298 298 296 296 294 292 293 293 296 305 306 306 319 310 290 292 291 293 295 294 297 296 294 290 290 293 297 301 308 308 311 315 317 318 322
296 290 293 288 290 291 288 291 295 296 299 299 297 296 295 291 293 293 297 300 306 314 307 297 292 292 298 297 297 297 298 297 295 295 294 297 298 303 306 309 310 316 318 318 318
293 292 294 292 292 289 290 290 294 295 296 295 296 301 299 295 298 295 298 299 301 304 301 296 292 292 296 298 298 297 298 299 299 298 297 298 298 304 308 310 311 314 316 318 318
294 297 295 292 290 286 288 292 294 296 298 299 299 298 301 303 304 304 303 307 304 301 300 294 292 289 292 294 294 291 298 298 299 300 301 297 304 306 308 309 311 312 316 318 320

GFSSW_sfc_thetae_021.txt.gz
Theta_e
318 318 318 318 319 319 320 320 320 321 321 321 321 322 323 323 322 320 314 321 325 346 353 344 337 344 340 337 333 329 319 316 318 320 321 332 330 336 339 334 335 338 337 340 346
317 317 317 318 318 318 319 319 319 320 320 320 320 321 322 324 318 315 329 340 346 352 330 326 322 330 329 324 330 326 318 318 324 327 325 331 332 333 332 331 332 337 342 345 345
317 317 317 317 318 318 318 318 318 318 318 319 319 320 322 324 312 312 347 345 347 350 322 320 318 319 316 323 326 326 319 322 323 328 331 331 332 335 330 326 332 334 338 342 343
316 316 316 316 317 317 317 317 318 317 318 318 319 320 322 319 304 313 352 347 349 336 320 318 315 313 314 316 322 319 325 324 325 329 330 330 334 329 330 330 337 341 342 343 342
315 315 315 316 316 316 316 317 317 317 317 318 319 320 317 309 311 318 346 351 343 326 317 315 312 313 313 316 315 316 321 325 326 328 331 332 329 327 329 336 341 342 343 342 342
315 315 315 315 315 316 317 317 316 316 317 318 320 320 313 304 316 321 333 335 331 321 316 316 314 317 316 314 316 320 323 326 327 328 330 327 329 330 331 338 338 340 340 342 343
314 314 315 315 315 315 316 316 315 315 317 320 322 319 310 309 317 317 322 326 327 320 315 316 317 317 316 313 319 325 321 325 325 327 326 329 324 326 334 337 336 337 340 341 343
314 314 315 315 315 315 315 314 314 316 320 323 322 320 309 317 320 320 321 317 323 319 319 318 317 314 314 319 324 321 321 316 323 325 327 326 317 328 336 335 333 335 338 340 342
314 313 314 315 315 314 313 313 316 320 321 324 318 313 310 326 319 322 322 315 320 318 318 316 317 311 312 317 317 317 312 315 319 326 325 325 319 327 335 335 334 335 337 339 342
314 314 313 314 313 312 311 313 314 318 323 323 322 313 317 314 317 320 321 317 314 314 313 311 311 307 309 313 305 312 313 316 317 322 324 322 322 327 334 334 334 336 336 339 341
313 313 313 312 311 310 310 306 308 308 311 312 312 313 313 316 318 318 318 313 313 312 306 308 304 302 307 314 316 317 316 315 320 324 321 321 322 325 332 333 333 335 337 338 340
313 312 312 311 310 310 305 302 302 302 297 303 304 307 312 315 309 315 318 312 309 305 305 304 301 306 309 312 314 317 315 315 319 323 322 320 319 326 329 332 334 334 336 338 341
312 311 311 309 309 306 301 303 305 305 297 301 304 304 307 309 307 309 316 312 309 304 303 302 304 307 307 307 307 315 315 316 316 320 323 320 317 322 327 330 332 334 336 337 339
312 311 310 307 303 302 302 306 306 305 298 303 304 309 310 311 306 313 317 314 307 306 303 303 306 305 305 306 309 307 317 318 317 316 310 321 308 318 324 326 328 330 332 333 336
311 310 309 307 303 301 303 306 306 305 290 304 306 315 312 309 309 309 318 314 308 306 305 304 302 303 303 306 310 309 315 316 318 316 314 314 311 316 322 322 325 329 331 333 335
310 309 309 305 304 305 307 305 305 299 290 301 309 307 306 308 308 311 312 315 313 308 305 307 307 307 307 310 311 312 311 311 315 314 305 312 312 311 317 322 325 329 331 333 334
308 307 307 306 301 305 305 301 295 291 302 300 303 304 304 305 306 308 307 306 305 301 301 305 305 308 309 306 311 311 309 302 301 302 301 311 311 314 320 324 326 328 330 333 335
306 306 306 307 308 307 302 296 289 295 298 303 303 303 301 304 305 305 305 303 309 308 303 299 297 304 308 307 306 307 308 302 296 297 301 307 306 312 323 326 327 330 332 333 334
306 304 302 305 307 305 295 288 291 295 302 300 302 300 300 302 303 304 304 303 307 309 302 300 300 304 307 309 311 307 303 311 304 301 302 306 310 314 320 321 324 326 328 331 334
302 298 298 308 308 300 292 289 292 300 303 303 298 301 298 300 300 302 302 306 306 309 312 304 298 304 305 309 309 308 310 301 303 298 295 300 303 305 314 317 322 324 325 329 333
300 293 301 308 303 296 289 289 293 298 302 300 300 299 300 299 300 299 300 304 306 306 311 308 303 301 304 303 303 304 303 304 307 304 300 298 302 315 317 321 321 323 325 327 331
297 288 304 306 296 293 290 293 295 297 299 299 300 301 300 300 299 299 299 303 307 306 303 307 305 300 301 307 307 307 305 306 302 301 302 303 303 314 317 320 322 322 324 327 331
293 293 303 302 292 293 297 297 300 297 298 297 297 300 301 299 297 299 301 306 307 306 306 304 302 298 300 304 305 303 305 307 307 306 305 299 303 317 316 318 320 320 326 329 331
294 289 299 299 297 294 293 295 296 303 302 300 299 301 299 297 300 298 300 305 307 306 319 311 304 302 297 301 305 302 302 304 304 301 302 302 306 312 315 318 323 324 326 329 331
295 293 296 293 295 296 295 294 293 294 302 302 302 299 299 297 299 298 302 303 306 312 312 312 305 305 306 307 305 304 302 303 302 305 302 305 306 312 317 319 324 329 329 328 329
293 293 294 293 295 294 294 293 294 297 298 299 300 303 304 301 303 300 303 304 304 309 308 308 304 305 304 307 305 302 304 304 304 305 305 307 308 317 320 321 320 324 326 328 330
298 298 294 291 291 291 292 293 294 296 299 300 299 298 299 304 308 309 309 308 309 309 312 310 305 301 299 305 302 298 304 305 306 308 307 304 311 319 315 317 321 326 327 329 332

GFSSW_sfc_thetae_024.txt.gz
Theta_e
318 318 318 318 319 320 320 320 320 321 321 321 321 322 323 323 323 326 320 329 330 359 358 342 345 343 347 340 340 335 322 318 318 317 322 331 330 336 339 337 336 338 335 341 346
317 318 318 318 318 319 319 319 319 320 320 320 320 321 322 323 323 320 334 343 354 357 341 336 333 340 336 335 333 329 322 318 325 325 325 330 330 334 333 333 334 337 340 344 345
317 317 317 317 318 318 318 318 319 319 319 319 320 321 322 324 318 317 342 349 352 354 334 333 330 335 327 327 331 330 323 324 325 328 330 331 330 334 330 328 333 336 339 342 342
316 316 316 317 317 317 318 318 318 318 318 319 320 320 322 324 306 319 348 347 350 340 326 324 319 320 317 318 329 324 325 324 326 331 329 329 332 329 330 330 336 340 343 342 341
315 315 316 316 316 317 317 318 317 317 318 318 319 321 322 315 315 324 348 349 335 326 320 318 316 316 314 320 325 324 323 325 326 330 331 333 331 328 330 337 338 342 342 341 341
315 315 316 316 316 317 317 317 317 316 317 318 320 321 319 308 321 323 330 332 330 324 320 319 317 318 317 319 322 325 323 325 326 329 332 330 331 329 332 340 338 340 340 341 341
314 314 315 315 315 316 317 316 315 315 317 319 321 321 315 313 321 323 323 324 327 324 319 320 321 317 319 318 323 323 320 325 326 330 330 331 327 328 335 339 337 338 340 340 342
314 314 314 314 314 315 315 314 314 317 320 323 324 322 313 322 324 322 324 323 325 327 323 322 322 319 319 323 322 320 320 317 326 330 331 330 320 330 337 337 336 337 338 339 342
314 313 314 314 314 313 312 312 315 323 322 324 324 321 313 325 323 327 327 321 323 323 323 321 321 316 318 317 316 319 313 315 322 329 328 327 321 331 337 336 336 336 337 338 341
314 314 313 313 312 311 311 313 319 321 326 327 325 317 320 317 323 323 327 322 320 318 317 316 315 312 313 314 309 313 314 316 318 325 327 325 324 329 335 335 335 337 336 337 340
314 313 313 312 311 310 311 314 315 316 322 316 317 317 316 321 323 322 324 319 319 315 309 312 309 306 311 315 318 318 316 315 320 327 325 324 324 328 334 334 334 336 337 337 340
313 312 312 311 310 309 310 307 306 305 302 311 310 312 317 319 313 319 324 314 314 308 311 308 305 312 315 315 315 316 315 315 321 326 325 323 323 327 330 334 335 335 337 338 340
312 312 311 310 309 310 308 309 311 309 303 308 310 309 311 313 311 314 320 317 312 309 308 306 308 313 312 312 313 316 315 316 317 324 326 322 320 324 327 332 336 337 337 339 341
312 311 310 308 307 308 308 312 312 310 301 307 308 311 313 313 308 317 321 317 313 309 309 308 311 309 309 309 313 312 319 318 318 319 313 324 310 319 325 328 332 335 336 337 340
311 311 309 307 307 306 308 312 311 309 294 308 309 319 316 313 313 312 319 317 310 310 311 306 307 307 306 308 314 313 318 318 319 318 317 318 314 318 323 324 328 333 335 335 337
311 310 308 309 310 310 311 311 310 301 293 304 311 310 310 312 312 314 312 318 317 311 311 310 313 310 309 311 312 316 315 316 317 316 309 315 314 314 319 325 327 332 335 335 335
309 307 307 309 305 311 311 305 298 295 305 303 306 310 308 308 310 311 308 308 307 304 305 308 308 310 311 308 311 313 312 306 305 306 306 317 312 316 321 324 327 327 333 336 337
307 305 309 309 313 312 307 298 292 299 302 307 307 308 305 308 308 309 308 305 310 309 306 303 300 308 310 309 308 309 311 306 301 302 306 315 308 314 325 327 327 328 331 335 338
305 307 307 312 312 311 301 292 295 299 304 303 306 304 305 307 306 308 308 306 308 311 305 304 303 310 311 311 311 309 308 315 310 311 307 310 314 319 322 323 325 326 328 331 336
304 304 304 311 314 308 297 292 298 302 303 306 301 305 303 306 304 306 307 309 308 311 314 310 303 309 310 312 311 311 315 307 310 303 301 306 309 310 317 319 322 323 326 330 334
304 298 309 314 312 303 294 295 298 302 303 302 302 303 304 304 305 305 306 309 311 310 314 312 308 307 310 307 306 307 308 311 311 309 303 302 306 318 318 320 320 322 325 327 330
301 294 310 312 299 300 296 299 297 299 302 301 303 304 303 304 304 304 304 307 311 313 308 312 309 303 305 310 311 311 309 311 306 307 309 308 308 320 321 321 322 323 324 326 329
297 297 307 306 292 295 299 298 300 299 300 299 299 302 304 302 301 304 306 310 309 310 311 313 308 302 303 306 309 307 310 311 312 312 310 304 307 321 320 321 324 324 327 329 336
298 292 300 304 303 298 297 298 298 302 302 302 301 302 301 301 305 303 304 307 309 309 321 313 310 306 301 304 306 303 305 309 309 307 307 308 312 316 318 319 322 324 326 329 332
299 295 299 293 297 298 300 299 296 297 303 305 303 300 300 298 300 301 304 306 309 312 310 309 306 309 309 309 309 307 305 305 305 307 305 309 310 315 319 320 322 324 325 326 334
294 294 298 295 296 294 293 294 296 298 300 301 302 303 301 300 302 300 303 305 305 309 309 313 308 311 307 309 309 306 308 308 307 307 307 308 309 318 320 322 321 322 323 326 332
301 301 296 293 291 290 292 294 294 299 301 302 303 302 303 305 309 311 312 312 309 308 309 309 308 308 304 309 309 304 308 309 309 310 308 305 311 316 316 318 321 326 326 327 329

GFSSW_sfc_thetae_027.txt.gz
Theta_e
318 319 319 319 319 320 320 320 321 321 321 322 322 322 323 323 322 327 323 331 334 361 360 344 343 344 344 344 342 338 322 318 317 319 321 328 326 332 337 334 334 336 340 344 347
318 318 318 318 319 319 319 319 320 320 320 320 321 321 323 323 322 321 340 351 360 362 344 337 334 337 334 337 337 331 317 320 325 326 325 326 326 330 330 331 332 334 342 346 347
317 317 317 318 318 318 319 319 319 319 319 320 320 321 322 323 320 320 347 353 359 359 335 335 335 333 329 332 332 329 321 326 326 328 330 327 326 331 329 326 332 332 338 342 344
317 316 316 316 317 317 318 318 318 318 318 319 320 321 323 323 309 328 349 350 357 343 336 330 328 327 325 324 329 325 328 325 327 327 328 326 328 325 328 329 335 338 341 341 341
315 315 315 315 316 316 317 318 317 317 317 318 319 321 323 316 316 331 350 348 337 333 331 325 323 322 321 321 324 327 326 325 327 328 329 331 326 325 327 332 336 339 341 340 341
315 315 315 315 316 316 316 316 316 316 317 318 319 320 319 310 324 329 328 335 328 326 323 322 320 323 320 320 322 328 327 325 326 327 329 326 327 327 331 334 335 338 339 339 340
315 315 316 315 315 314 315 315 314 315 317 320 321 323 316 316 323 325 328 327 327 326 321 322 322 319 321 318 324 327 321 324 325 327 326 330 324 323 333 335 334 336 337 338 339
314 315 315 315 315 315 314 313 313 316 321 324 323 325 314 325 327 323 324 322 326 328 324 324 323 321 320 322 323 321 322 317 324 325 329 327 319 329 336 333 331 334 336 337 339
314 314 314 314 314 313 312 312 314 320 325 324 327 324 316 325 321 323 324 320 323 324 326 324 321 317 319 315 316 319 314 316 319 326 328 326 319 329 336 334 331 333 335 336 338
314 313 313 313 313 311 311 312 320 322 326 329 328 320 320 318 324 326 328 325 320 320 319 318 316 313 315 314 309 314 315 317 319 322 327 323 324 330 334 333 331 332 334 336 337
313 313 313 312 311 310 311 318 317 319 323 319 320 317 318 323 325 322 326 322 321 317 311 314 309 307 313 316 318 319 318 315 321 323 324 323 323 327 333 333 332 332 333 334 336
313 312 312 311 310 309 313 312 308 309 304 312 314 316 322 323 316 320 325 315 315 310 313 311 306 313 317 317 317 317 317 317 320 323 323 323 323 327 332 333 334 333 333 333 335
312 312 311 310 309 313 310 313 315 313 304 309 314 313 315 317 314 316 322 316 313 311 310 308 309 313 315 314 314 315 316 317 316 324 325 323 320 323 328 333 335 335 336 336 335
312 312 311 308 308 311 310 316 315 313 301 307 310 313 315 315 310 319 322 317 313 310 311 310 313 311 312 312 315 312 319 318 317 316 314 322 311 321 325 326 331 334 336 335 336
312 311 310 307 308 308 311 314 314 312 295 312 312 320 317 312 315 314 321 319 312 311 312 308 309 310 309 312 316 314 319 318 318 316 317 316 313 316 323 322 325 331 336 336 337
311 311 309 309 311 313 314 314 311 301 295 308 313 311 311 312 314 316 315 320 318 313 313 312 315 313 312 315 316 318 317 318 318 316 308 316 313 315 318 323 326 331 334 337 337
309 308 308 310 306 314 313 308 298 295 309 307 308 311 311 311 312 313 310 310 309 305 306 310 311 313 314 310 315 314 313 306 305 306 306 317 314 317 323 325 327 327 331 336 339
308 306 310 312 315 315 309 300 293 302 304 311 311 311 308 311 311 312 309 307 312 311 308 305 302 310 312 311 310 311 312 306 301 303 306 315 311 316 326 328 328 328 330 334 338
306 310 309 312 315 313 304 293 296 302 308 307 309 307 308 310 310 311 310 308 310 312 307 306 306 313 313 313 312 310 308 315 310 311 308 311 316 320 325 325 327 328 328 328 335
306 307 308 314 315 310 300 294 301 305 308 307 303 308 305 308 307 308 309 312 310 313 315 311 306 312 312 313 312 310 315 307 311 304 303 308 310 313 320 321 324 325 325 327 330
306 301 312 316 314 305 296 298 301 305 305 303 303 305 307 307 309 308 308 312 313 313 314 312 310 309 312 309 307 307 308 311 311 310 305 303 309 321 321 323 322 324 326 327 328
304 297 312 314 300 301 298 301 302 304 307 304 304 305 306 308 307 309 308 311 315 314 310 313 310 306 308 313 314 311 309 310 310 307 310 310 309 322 322 324 324 325 326 327 329
300 302 309 308 293 295 300 301 303 302 303 303 301 304 306 305 305 308 309 314 313 312 311 313 308 303 306 310 313 309 310 310 311 313 311 307 309 323 323 323 324 324 326 328 329
300 296 302 304 303 297 297 298 298 305 302 303 303 304 302 302 307 305 307 311 313 312 325 315 310 307 303 307 310 307 308 309 309 307 309 309 312 318 320 322 324 325 326 327 329
300 297 298 295 297 297 299 299 297 297 302 305 302 302 301 299 301 302 306 309 311 315 312 312 307 309 309 311 311 309 307 307 307 309 307 311 312 317 320 322 325 326 326 327 327
295 297 300 297 298 296 295 295 293 295 298 298 299 302 304 301 302 301 305 307 308 311 309 312 307 311 308 311 310 309 308 308 308 308 309 310 311 320 323 324 325 325 325 325 326
304 304 298 295 295 293 292 295 294 297 299 301 299 300 301 304 307 310 311 310 310 310 309 310 308 307 303 309 309 304 309 310 310 310 309 306 313 318 318 320 324 330 327 326 327

GFSSW_sfc_thetae_030.txt.gz
Theta_e
318 318 319 319 319 319 320 320 320 321 321 321 322 322 323 323 322 323 321 328 333 359 357 338 341 341 341 338 341 339 321 318 318 317 318 327 324 333 334 330 336 337 337 341 343
318 318 318 318 318 318 319 319 320 320 320 320 321 322 322 323 319 316 329 353 358 358 333 330 332 334 331 332 336 324 317 319 324 325 321 325 325 327 328 328 331 334 340 341 343
317 317 317 317 317 317 318 318 318 319 319 319 320 321 322 322 315 319 354 360 358 353 327 330 334 331 327 329 330 322 318 323 325 327 327 324 325 328 326 325 329 332 336 339 340
316 316 316 316 316 316 316 317 317 317 318 318 319 320 322 321 306 322 349 358 360 336 326 326 328 325 324 323 329 320 322 324 327 329 326 323 326 326 326 328 334 338 340 340 338
315 315 316 316 316 316 317 317 317 316 316 318 319 321 321 314 315 326 352 353 338 329 324 324 323 324 320 324 325 325 325 329 327 326 327 327 323 322 326 332 336 339 340 339 339
314 315 316 316 316 316 316 316 316 316 316 318 320 320 317 306 323 328 327 330 326 325 324 327 324 325 322 322 321 322 327 326 326 325 328 326 323 323 326 332 334 336 337 338 338
315 315 315 315 315 315 316 315 315 315 316 319 323 321 314 312 325 329 326 327 327 325 321 324 326 321 323 318 322 321 321 324 324 324 325 327 321 321 328 330 331 334 336 336 338
315 315 315 315 315 315 314 313 314 315 318 323 325 321 311 321 325 323 324 324 327 327 324 324 323 319 318 321 319 316 319 317 322 323 325 324 316 323 330 327 329 332 334 335 337
314 314 314 314 314 313 312 312 315 318 322 325 324 323 314 329 321 324 323 319 321 322 325 324 321 315 316 312 311 314 311 315 317 324 324 322 319 327 331 326 327 330 332 333 336
314 314 314 313 313 312 311 313 319 320 324 328 326 320 323 318 323 323 323 321 317 319 318 318 316 311 311 310 303 308 312 315 316 322 322 321 317 323 326 328 326 328 331 333 334
314 313 313 312 312 310 309 315 316 314 320 319 318 314 317 324 326 323 322 319 319 317 309 314 309 306 309 312 314 314 315 314 319 320 320 322 321 322 325 329 326 327 329 331 333
313 313 313 312 311 310 311 312 312 311 303 310 312 318 323 324 317 320 324 317 315 309 312 310 305 310 313 314 313 313 313 315 320 323 322 320 322 325 326 328 329 328 329 330 333
313 312 312 311 310 312 311 310 318 315 303 306 310 310 314 322 317 317 320 317 312 309 310 306 309 312 311 311 312 312 312 315 316 321 322 320 317 322 328 330 330 331 332 332 333
312 312 311 309 309 309 309 316 315 314 298 304 310 311 313 315 311 321 322 318 312 309 311 309 312 310 309 309 312 309 316 316 317 316 311 320 308 320 324 327 328 329 331 332 333
312 312 310 309 306 307 313 315 314 311 292 312 312 320 316 310 313 313 320 318 310 310 311 308 309 308 307 308 314 312 317 316 316 314 316 316 311 317 324 322 326 328 331 332 335
311 311 310 309 309 311 314 314 311 298 293 308 313 311 310 311 311 316 313 317 318 311 312 311 315 312 311 312 313 316 315 315 315 313 307 314 310 312 319 322 325 329 329 335 334
310 309 308 309 304 312 313 308 296 293 309 307 309 312 310 308 308 313 309 308 307 305 305 309 310 313 313 309 312 312 310 305 304 305 304 315 313 316 323 325 326 324 329 335 338
308 306 309 311 314 314 310 300 291 301 301 312 312 311 307 310 309 309 310 306 310 310 306 303 302 309 313 309 308 309 309 306 300 302 305 314 309 316 326 327 325 327 328 334 336
307 310 309 311 314 313 303 292 295 301 307 307 309 307 308 310 311 309 309 308 309 311 306 305 304 313 313 313 311 308 306 312 307 309 306 310 314 321 325 323 327 328 328 328 331
305 306 309 315 315 310 299 293 299 304 306 307 302 307 305 308 308 309 309 312 309 312 314 310 304 311 313 314 312 310 313 304 306 301 301 307 310 312 321 320 325 324 327 329 330
305 302 310 315 313 305 295 296 300 304 305 301 300 300 303 306 309 308 308 312 314 312 313 311 309 308 313 309 307 307 305 307 308 308 303 302 308 321 321 326 326 326 328 329 328
303 296 311 314 300 301 296 300 301 303 306 304 305 303 301 303 305 307 308 311 316 315 309 312 309 305 307 314 314 311 308 307 302 305 308 307 309 321 328 327 328 327 329 330 331
298 300 309 308 294 295 299 299 301 301 302 303 302 304 305 302 301 305 308 314 315 314 311 314 307 303 304 309 313 309 309 308 307 307 307 304 307 321 324 323 325 327 328 330 333
298 293 300 303 302 297 296 297 297 302 301 304 303 305 303 302 304 303 305 310 314 314 327 316 309 306 302 306 309 308 309 309 307 303 305 308 311 316 321 322 325 327 329 331 337
299 295 299 293 295 298 297 296 294 296 302 304 301 302 299 298 300 300 304 306 310 317 313 312 306 308 309 308 310 309 309 308 307 308 305 308 312 316 320 324 325 334 332 333 336
293 294 299 296 297 294 293 293 293 295 295 294 297 300 301 299 301 296 301 305 306 311 310 313 307 308 306 308 308 307 310 310 310 309 309 310 310 319 323 325 328 324 325 330 333
303 302 298 294 294 293 293 294 293 295 297 299 297 296 296 298 302 303 304 305 307 309 311 310 307 307 303 308 307 303 309 310 310 311 310 306 313 319 319 321 326 329 326 331 331

GFSSW_sfc_thetae_033.txt.gz
Theta_e
318 318 318 318 318 318 318 319 319 319 320 321 321 321 322 323 322 318 316 321 329 354 357 345 342 339 341 343 334 332 318 314 316 313 315 326 324 332 337 333 335 336 337 340 344
318 318 318 318 318 318 318 318 318 318 318 319 320 320 322 323 316 311 324 341 346 356 334 328 326 331 326 327 328 324 316 316 323 321 315 327 327 328 330 330 330 334 340 343 344
316 316 316 316 317 317 318 318 318 317 318 318 319 320 321 321 312 310 354 342 347 355 328 324 323 326 322 324 326 324 318 322 322 325 325 321 323 327 327 326 330 331 335 340 340
315 315 315 315 316 316 316 317 317 317 317 317 319 320 322 317 300 316 356 358 357 342 327 318 316 315 318 317 326 319 325 324 323 326 325 320 322 324 325 329 337 337 338 339 336
315 315 315 315 315 316 317 317 317 317 316 317 318 320 317 311 310 321 351 355 345 332 322 317 313 315 314 318 324 320 320 323 324 324 323 323 322 323 326 335 337 336 335 336 335
316 316 316 316 316 317 317 316 316 316 316 317 319 320 314 300 314 318 330 334 329 323 318 318 316 319 317 317 320 326 323 324 325 324 323 320 319 324 328 335 335 335 333 334 333
316 316 315 315 316 316 316 315 315 315 315 318 320 320 312 305 317 323 324 323 325 321 316 319 321 319 317 314 319 318 319 323 322 320 321 323 315 319 328 333 333 334 335 335 334
315 315 315 315 315 315 314 314 314 315 317 319 323 318 306 317 317 316 316 320 325 321 319 320 321 316 312 313 312 310 308 304 319 318 322 319 313 321 324 330 330 332 334 335 335
315 314 314 314 314 313 312 313 315 318 319 324 319 314 310 327 316 317 316 315 318 320 319 323 316 310 310 305 301 303 300 303 314 320 321 320 315 322 327 328 328 330 331 332 333
314 314 313 313 313 311 311 313 316 320 320 325 323 313 319 313 318 319 319 318 315 315 312 312 309 305 304 300 295 299 300 304 311 316 320 317 316 321 325 323 325 328 329 330 331
314 313 313 312 311 310 308 305 306 306 314 315 313 313 312 318 322 319 320 315 312 307 302 307 302 300 302 304 305 306 305 305 313 320 318 318 316 318 320 319 320 326 327 328 330
313 313 312 312 311 309 308 305 306 306 300 307 307 310 318 319 315 318 319 309 306 302 305 303 300 306 309 308 306 306 304 305 317 319 316 318 317 319 321 321 322 324 326 327 329
313 312 312 311 309 309 303 304 310 309 297 301 305 305 306 310 310 314 315 310 306 304 305 302 303 310 308 306 305 305 303 305 313 318 319 316 314 315 319 323 325 325 327 328 328
313 312 311 309 306 303 304 312 312 309 291 298 302 306 307 308 307 318 318 313 310 305 306 304 309 308 306 304 306 301 309 310 314 312 306 316 306 314 318 320 323 324 324 326 328
313 312 310 309 303 302 308 311 310 305 285 307 306 313 308 303 308 312 320 314 307 306 305 303 306 305 304 304 307 304 311 310 310 310 311 311 307 311 320 319 320 324 324 325 327
312 311 310 305 304 306 309 309 306 291 286 302 309 305 303 304 306 310 312 314 314 308 307 306 311 309 306 308 308 309 308 308 307 305 299 309 308 306 310 320 322 324 326 327 327
310 308 307 307 299 308 308 304 289 286 304 304 304 307 304 301 303 305 305 304 302 299 299 304 305 309 311 303 306 305 300 296 295 296 295 309 307 309 315 319 326 325 325 327 329
308 306 307 309 310 308 305 295 286 298 297 305 305 307 303 305 303 303 302 300 305 304 300 298 296 305 309 305 301 302 300 296 289 293 297 304 303 309 320 323 325 327 326 326 327
307 304 303 307 311 309 299 288 290 296 301 299 300 299 302 306 306 303 302 302 304 305 298 298 299 309 309 310 306 299 298 303 295 299 296 301 305 313 320 319 322 321 323 324 326
302 300 302 310 313 305 296 290 295 300 300 298 292 298 295 297 298 303 301 305 305 307 307 303 296 306 309 310 308 303 302 297 299 291 292 299 300 304 314 316 320 321 322 324 325
301 297 305 309 309 301 291 292 296 301 301 298 296 296 296 296 298 297 300 307 309 308 308 305 301 302 307 303 302 300 300 298 298 299 292 292 299 308 314 318 320 322 324 326 328
299 290 305 307 295 297 293 296 298 299 302 300 300 298 297 298 296 297 297 300 311 312 304 306 302 297 301 308 309 306 301 298 295 291 296 297 298 312 316 321 323 323 324 326 328
294 294 304 303 288 291 296 296 298 297 298 298 297 299 301 297 294 298 300 306 307 305 307 307 302 294 297 302 306 303 305 302 300 296 295 292 298 312 313 320 323 323 323 326 325
295 288 295 299 298 294 292 293 294 299 297 299 296 299 299 296 300 297 299 305 306 305 320 316 303 299 295 298 301 301 304 304 301 296 294 297 297 305 311 315 318 320 322 323 325
297 291 294 288 291 292 294 293 291 290 296 297 294 295 294 293 295 296 300 299 303 308 307 300 298 303 303 305 305 304 305 304 301 301 296 298 299 303 308 316 319 319 318 320 324
293 291 294 291 293 291 291 290 290 292 293 292 291 295 295 292 293 290 293 294 295 300 298 299 299 302 300 305 304 303 305 305 305 304 303 303 302 307 309 320 320 321 320 320 324
301 302 295 291 290 288 288 291 291 293 295 296 295 293 292 295 297 297 297 297 297 296 296 296 296 298 295 302 301 298 302 304 306 307 305 301 303 308 308 312 316 320 319 320 321

GFSSW_sfc_thetae_036.txt.gz
Theta_e
317 317 317 317 317 318 318 319 319 319 319 319 319 320 321 322 321 318 308 315 322 358 358 348 344 342 345 332 335 333 318 313 315 318 321 330 327 334 337 332 333 337 335 338 343
317 316 316 316 316 317 317 317 317 318 318 318 318 319 321 322 315 311 321 339 343 353 337 340 335 337 333 329 328 324 314 316 321 323 320 327 329 330 330 330 332 334 340 342 343
316 316 316 316 316 316 316 317 317 317 317 317 318 319 321 320 308 306 341 341 345 349 329 332 334 330 322 326 326 325 316 322 324 323 325 328 329 332 329 326 331 331 335 339 340
316 315 315 315 316 316 316 316 316 316 316 317 318 319 321 315 295 312 350 358 346 336 326 321 317 310 313 319 327 319 325 324 324 325 323 326 331 329 330 329 336 338 338 339 338
315 315 315 315 315 315 316 316 316 315 316 316 317 319 314 307 306 313 349 354 341 332 322 318 310 308 308 314 324 320 323 325 327 325 323 324 326 329 329 334 338 340 339 337 337
316 316 316 316 316 316 316 316 316 315 315 316 317 319 310 295 309 314 326 332 329 323 320 317 313 312 311 314 321 323 322 323 326 324 323 320 322 326 330 335 335 337 336 337 337
316 316 315 315 315 316 315 315 315 315 315 317 317 318 311 301 312 314 321 320 325 319 314 317 317 312 313 310 322 323 314 321 323 322 321 322 320 324 332 334 333 335 336 335 335
315 315 315 315 315 315 314 313 314 315 318 319 319 317 304 316 314 312 311 311 321 321 318 316 317 313 310 312 309 303 309 308 319 322 321 316 312 327 332 330 329 332 334 333 334
315 315 314 314 314 313 312 313 314 317 320 321 316 310 304 324 314 314 312 311 315 317 314 322 314 309 308 302 298 298 295 299 303 317 321 318 311 327 331 330 327 329 330 332 332
314 314 314 313 312 311 311 312 314 316 320 323 322 308 310 310 318 315 312 313 310 315 314 310 306 301 298 296 292 294 295 297 303 318 319 315 314 323 329 329 328 329 330 331 331
314 313 313 312 311 310 307 301 300 299 310 308 309 310 311 315 318 316 315 311 309 306 302 302 299 299 299 300 301 301 299 299 305 315 316 314 314 320 325 327 327 328 329 330 331
314 313 313 312 311 309 305 301 302 302 294 304 307 309 314 314 311 315 315 307 304 299 300 298 297 302 305 304 302 301 299 299 312 318 316 315 314 318 319 325 327 327 328 329 330
313 313 312 311 309 304 299 300 306 304 292 298 303 303 304 308 305 307 311 307 303 299 299 297 300 306 305 303 302 300 299 299 302 315 316 316 312 313 318 319 320 328 329 329 329
313 312 311 309 300 301 301 306 307 305 287 294 297 301 303 304 300 311 314 309 303 300 300 299 304 305 303 302 303 296 305 305 305 306 304 313 302 311 315 315 318 321 325 327 329
313 312 310 309 299 299 304 305 306 297 285 304 302 307 302 301 304 306 314 308 302 303 301 299 303 303 301 302 305 300 305 304 305 306 304 307 302 306 316 315 315 320 323 326 328
312 311 310 302 299 302 304 304 298 288 284 297 305 300 299 299 302 309 309 311 310 305 304 304 308 306 305 307 307 307 302 301 300 301 298 305 306 304 310 314 317 321 323 325 327
311 309 307 306 296 302 304 298 285 283 298 299 296 298 297 296 299 302 306 304 301 297 298 301 303 305 307 301 303 302 293 289 289 290 292 304 305 307 315 320 321 322 324 325 327
308 307 305 304 303 303 299 290 281 292 293 299 297 300 297 297 297 299 298 302 305 299 297 295 293 302 305 304 300 296 297 291 284 287 290 299 301 307 317 321 325 327 327 327 325
307 299 299 298 304 302 292 283 284 291 296 295 295 294 293 299 297 297 297 297 305 301 296 294 296 305 307 306 305 297 294 298 290 293 291 295 302 309 316 316 321 325 327 325 325
300 294 296 303 304 298 288 286 289 296 297 297 290 294 290 293 294 294 294 300 300 304 302 297 292 302 306 305 306 303 299 292 288 286 287 291 296 299 307 313 317 323 325 325 326
296 290 298 301 298 293 286 287 293 298 299 294 292 291 292 292 293 293 294 299 302 303 304 303 296 297 301 301 300 298 296 294 294 292 290 288 294 303 305 313 316 322 326 326 325
291 285 298 302 286 287 289 291 296 295 299 296 296 295 293 293 292 292 293 297 304 302 296 299 297 294 297 302 305 304 300 296 294 288 290 295 296 306 308 314 319 320 324 325 325
288 288 298 295 282 285 292 293 296 295 295 295 294 295 295 292 290 294 297 303 302 301 296 299 296 291 291 297 301 298 301 301 291 291 294 290 292 305 305 314 318 319 320 323 326
289 284 288 291 295 288 288 290 290 296 295 296 294 295 293 291 294 292 294 299 300 300 309 301 294 294 293 294 298 296 301 300 298 293 293 295 294 299 302 311 316 320 321 322 323
290 286 287 284 287 289 290 289 288 288 294 295 291 292 292 287 290 291 294 294 297 303 298 294 288 292 295 301 301 300 301 302 298 299 296 294 295 298 301 306 314 319 321 323 323
291 289 289 286 287 287 288 287 288 290 291 290 290 292 294 289 291 288 291 291 290 295 293 293 289 292 296 300 302 300 302 303 302 302 300 296 296 301 304 305 308 316 320 320 318
299 300 294 289 285 284 283 287 288 290 293 294 293 291 289 292 295 295 295 295 293 291 290 290 289 289 289 298 299 296 301 302 302 302 301 296 299 303 303 308 310 314 316 316 321

GFSSW_sfc_thetae_039.txt.gz
Theta_e
317 317 317 317 317 317 318 318 318 318 318 319 319 319 320 321 320 317 303 312 322 362 361 349 343 342 342 334 337 333 318 312 316 317 321 330 327 333 335 330 332 335 332 336 342
317 317 316 316 316 317 317 317 317 318 318 318 318 318 319 321 314 310 320 338 345 359 346 340 336 338 333 327 327 323 314 314 322 322 324 329 328 329 328 328 330 331 336 340 341
316 316 316 316 316 316 316 316 317 317 317 317 317 318 319 320 304 303 344 340 351 353 344 343 340 338 325 326 324 324 316 320 321 324 327 329 328 331 326 323 329 328 332 337 338
316 315 315 315 316 316 316 316 316 316 316 317 317 318 320 313 294 307 356 348 349 340 339 334 336 326 319 321 325 318 324 323 322 323 327 327 330 328 327 327 334 334 336 337 337
315 315 315 315 315 315 315 315 315 315 315 316 317 317 312 305 301 310 351 348 341 326 322 318 324 318 307 314 323 321 323 325 326 323 324 331 328 328 328 334 337 337 338 336 337
315 316 316 316 316 315 316 315 315 314 315 316 317 317 306 292 307 312 327 331 329 322 315 316 313 312 308 308 318 322 323 323 325 324 325 327 327 328 330 336 335 335 335 336 337
316 316 316 316 316 315 315 314 314 314 315 317 317 314 309 298 309 309 320 321 327 320 315 317 315 312 308 307 321 321 316 320 322 321 320 323 319 324 331 335 333 333 334 336 337
316 316 315 315 315 315 314 313 314 315 318 320 319 314 300 313 312 309 310 306 321 319 312 317 316 310 308 310 309 304 307 301 309 319 321 319 309 325 331 331 331 332 333 335 336
315 315 315 315 314 313 312 312 314 317 320 321 313 308 299 319 314 315 309 308 312 315 314 321 313 306 306 302 297 296 295 299 302 317 316 315 311 325 331 330 330 331 332 333 333
315 314 314 314 313 311 311 312 313 316 320 320 320 304 307 306 316 314 310 311 310 312 313 310 305 300 297 296 293 294 294 295 299 313 315 311 311 325 328 328 330 331 332 333 332
314 313 313 313 311 310 307 302 298 297 302 305 306 306 308 312 317 315 311 308 307 306 302 303 299 296 298 299 300 300 297 297 301 306 312 312 313 323 326 326 327 329 330 331 331
314 313 313 312 310 310 302 298 299 298 292 301 301 302 308 310 305 309 311 304 302 298 301 297 297 302 304 302 300 298 297 296 302 313 312 311 312 322 325 325 326 327 328 330 330
313 313 312 310 309 302 298 298 303 299 290 296 300 300 301 305 303 305 308 305 301 298 297 297 298 304 303 300 299 297 296 296 298 309 314 312 309 316 324 324 327 328 329 330 330
313 312 311 309 299 299 297 302 302 302 286 293 295 299 302 305 301 311 312 307 301 299 298 296 302 302 300 300 301 294 301 302 301 300 298 311 299 309 316 318 322 326 328 329 330
312 312 310 309 297 296 299 302 304 294 284 302 298 305 299 299 300 303 312 305 300 300 298 296 298 299 298 301 302 299 303 301 301 297 296 302 299 304 314 312 315 320 326 328 330
311 310 309 302 297 300 302 302 295 287 283 297 301 297 296 297 299 304 305 306 306 301 299 301 304 302 301 304 304 304 300 297 296 294 292 298 302 304 308 313 315 317 322 328 329
309 307 306 305 295 300 301 296 285 282 296 295 294 297 295 293 297 301 300 300 298 292 294 297 299 302 304 299 300 299 292 287 285 286 289 296 299 304 310 317 318 319 319 324 329
307 306 304 303 300 301 296 288 279 290 290 297 296 297 294 296 294 296 300 299 302 297 296 293 291 300 303 300 297 296 296 286 282 284 289 294 294 301 313 317 321 323 322 323 325
306 299 295 298 302 299 290 281 283 287 294 293 294 292 291 295 295 295 293 300 303 300 294 293 293 303 305 303 303 295 293 297 287 288 287 292 298 307 313 314 317 320 321 322 324
298 293 293 301 301 295 287 284 286 294 295 294 288 292 287 291 291 291 292 296 297 305 298 296 291 299 302 304 302 300 297 290 285 285 285 287 292 296 306 311 313 317 321 323 325
293 288 296 298 295 290 282 284 290 296 296 292 290 289 289 290 291 290 291 297 300 300 299 293 292 294 300 297 298 294 295 291 292 287 288 283 291 300 305 309 311 315 322 324 325
288 283 296 297 285 284 285 290 295 294 297 294 294 292 290 292 290 289 290 294 301 300 295 296 288 293 297 299 304 302 298 295 289 287 288 292 291 302 306 307 312 315 319 324 327
286 286 296 296 284 283 288 292 294 292 293 293 292 293 294 290 287 293 295 300 299 296 296 299 289 285 288 292 295 296 298 298 296 289 293 288 290 301 304 308 311 314 317 320 326
288 284 287 291 291 286 284 287 288 295 293 294 293 295 292 290 292 290 292 298 298 297 306 297 288 288 288 289 294 293 297 299 296 291 293 295 292 296 301 303 308 315 317 318 322
288 287 286 281 285 286 289 288 288 287 293 293 289 291 290 284 287 289 292 292 295 300 295 292 286 289 292 295 297 296 298 299 294 297 294 296 295 298 300 304 307 312 317 319 320
291 289 292 288 289 284 285 286 287 287 289 290 288 289 289 286 288 286 289 287 288 292 289 290 288 289 290 296 298 296 298 300 300 300 297 294 294 300 303 302 303 307 314 317 319
299 298 293 290 288 284 283 284 286 288 291 293 291 289 287 290 293 292 293 292 292 288 287 287 287 287 285 293 293 292 297 299 300 301 300 294 297 300 300 301 302 304 308 316 320

GFSSW_sfc_thetae_042.txt.gz
Theta_e
317 317 316 316 317 317 318 318 318 318 318 319 318 319 319 320 319 316 303 310 315 359 358 349 343 341 340 335 337 333 314 310 315 316 319 329 327 332 334 328 331 333 331 335 341
317 316 316 316 316 316 317 317 317 317 317 317 318 318 319 320 312 308 318 332 341 362 346 340 334 339 330 327 327 321 312 313 322 322 322 328 328 328 327 326 329 330 336 339 340
316 316 316 316 316 316 316 316 316 316 317 317 317 318 318 319 301 301 337 336 353 359 345 341 339 335 328 323 323 322 315 319 320 323 328 328 327 329 326 321 327 327 332 337 338
316 316 316 316 316 316 316 316 315 316 316 316 317 317 318 312 293 313 354 340 360 348 342 338 335 329 321 322 324 317 323 322 321 322 328 327 329 327 326 324 333 333 336 336 336
316 316 316 315 315 315 316 315 315 315 315 316 316 317 311 301 299 336 350 345 354 338 337 334 329 325 316 320 323 320 323 324 325 322 328 329 328 327 325 333 333 335 336 335 335
316 316 316 316 315 316 316 316 316 315 315 316 317 316 303 289 303 310 331 336 344 331 331 328 332 324 309 307 318 322 322 322 323 322 324 326 326 328 328 333 333 334 333 335 335
316 316 316 316 315 316 316 315 314 314 315 317 317 313 308 295 306 309 329 325 334 324 319 316 319 322 310 303 312 318 312 315 321 320 319 328 321 323 330 333 331 332 333 335 336
315 315 315 315 315 315 314 313 314 315 318 319 319 311 296 309 311 309 316 317 325 320 313 315 315 319 306 307 306 307 310 304 311 315 319 322 314 325 331 331 329 331 333 334 335
315 315 315 315 314 313 312 313 315 321 322 321 310 306 296 317 311 309 307 307 318 315 313 319 312 305 305 300 297 295 294 298 302 311 313 318 311 319 331 330 328 329 332 333 334
314 314 314 313 313 311 311 312 314 319 318 318 317 302 306 304 313 313 307 308 306 312 311 309 303 299 296 295 291 294 293 294 299 306 313 310 311 320 328 329 328 329 330 332 333
314 313 313 312 311 310 307 299 296 296 297 305 305 305 307 309 312 310 308 307 308 306 300 303 298 294 298 298 299 300 297 297 300 304 310 308 310 320 326 327 327 328 328 330 331
313 313 312 311 310 309 300 296 296 296 290 299 298 300 307 305 303 306 308 302 301 298 301 296 297 302 302 301 300 298 296 295 299 303 306 306 309 321 324 326 328 328 329 329 331
312 312 311 310 309 300 297 297 301 296 288 294 298 298 300 302 300 302 305 302 299 296 300 298 298 304 302 298 298 295 296 295 297 305 311 309 306 316 323 325 327 330 331 332 332
312 312 310 309 298 297 295 299 299 299 285 292 294 298 301 301 297 308 308 304 299 300 296 296 302 303 299 298 299 291 299 300 299 296 292 309 298 307 318 320 323 324 328 330 331
312 311 309 308 296 295 297 301 301 292 282 300 294 302 300 298 298 301 310 303 298 298 297 296 298 298 299 300 301 297 302 299 299 296 293 297 298 302 315 316 320 323 325 328 331
311 310 308 300 296 298 300 300 293 287 282 295 299 295 294 296 297 302 303 305 304 299 297 298 301 301 299 301 302 303 298 295 293 292 288 294 296 295 306 315 320 324 327 328 329
310 308 305 304 294 299 299 293 284 281 294 293 292 295 294 293 294 298 298 299 296 291 291 295 298 299 301 297 298 299 292 285 284 285 288 294 296 299 309 316 320 322 324 328 330
307 305 301 301 300 298 294 287 278 289 288 295 295 295 292 294 293 295 295 297 298 295 293 290 289 297 300 297 295 295 292 285 281 281 290 292 291 297 309 317 320 322 324 325 327
306 296 295 297 301 297 289 279 280 286 292 292 292 290 289 293 293 293 291 295 300 296 292 290 291 300 301 301 300 292 291 294 286 286 284 289 294 303 308 309 315 318 320 321 323
297 294 292 299 297 294 286 282 285 292 294 292 286 290 286 289 290 289 290 295 296 299 297 294 289 297 301 301 301 296 298 290 285 283 281 286 289 294 303 306 310 313 318 321 322
291 287 293 298 295 289 279 282 289 294 295 290 288 287 287 288 289 288 289 295 298 297 298 292 291 293 297 296 297 293 291 289 292 286 284 282 288 297 303 306 308 311 317 320 322
287 282 294 295 284 283 285 287 294 293 295 292 292 291 289 291 288 288 290 293 298 296 294 296 286 289 292 297 303 302 297 290 290 285 286 286 289 300 303 307 310 311 315 319 323
286 287 295 294 279 280 285 289 291 292 291 291 291 292 292 289 285 292 294 298 298 296 295 296 288 284 287 294 295 294 296 292 290 287 292 286 290 301 301 303 305 309 312 317 321
287 281 286 289 286 283 283 284 286 293 293 294 292 294 291 289 291 288 291 297 297 298 303 296 287 285 285 288 292 290 296 296 295 290 292 293 292 297 301 300 304 308 313 314 318
286 283 286 280 284 286 284 285 286 286 291 294 291 289 288 283 286 286 291 291 294 298 293 290 285 287 290 293 295 294 295 296 295 296 292 295 295 297 300 303 306 306 313 318 319
288 290 291 288 289 288 286 282 286 286 287 287 288 289 289 284 285 284 287 286 287 290 287 288 285 287 288 294 295 293 296 297 297 297 297 296 295 300 303 302 304 307 310 315 318
298 298 292 287 287 286 284 284 286 287 289 292 290 288 286 288 291 291 291 291 290 287 286 285 285 286 284 291 291 289 295 297 297 298 298 295 298 301 300 301 303 306 306 311 317

GFSSW_sfc_thetae_045.txt.gz
Theta_e
318 317 317 317 317 317 317 318 318 318 318 318 318 318 319 320 319 317 307 314 317 356 350 347 344 343 346 340 339 334 324 316 318 319 323 333 330 333 336 331 332 335 334 338 343
317 317 317 317 317 317 317 317 317 317 317 318 318 318 318 319 314 309 321 330 338 357 343 339 334 339 333 335 335 331 323 318 324 326 327 331 332 332 330 328 330 333 337 340 342
317 317 316 316 316 317 317 317 317 317 317 317 317 318 318 318 306 306 334 334 347 354 344 340 339 334 328 332 329 328 320 323 324 327 330 332 331 334 329 325 330 331 335 338 339
316 316 316 316 316 316 316 317 317 317 317 317 317 317 318 315 298 318 355 340 352 346 342 338 336 329 326 323 329 320 325 326 326 328 328 330 334 330 330 327 333 337 338 338 338
315 316 315 316 316 316 316 317 317 316 316 317 317 316 314 305 301 329 342 341 352 343 335 333 331 330 324 328 326 322 325 328 329 329 327 333 330 331 330 335 338 338 338 337 338
315 315 315 316 316 316 316 316 316 315 316 316 316 315 308 294 307 321 329 340 341 337 332 334 331 333 327 325 326 326 327 327 326 326 329 330 330 331 332 336 335 336 336 337 338
315 315 316 315 315 315 315 315 315 315 315 317 317 313 308 301 313 316 333 338 339 334 329 333 335 332 323 312 323 320 315 317 321 325 325 332 325 327 333 335 333 334 336 337 338
314 315 315 315 315 314 313 313 316 320 318 317 318 313 301 310 313 310 329 330 341 336 329 333 336 332 317 314 311 312 315 310 318 324 325 327 317 329 334 333 331 333 334 336 338
314 314 314 314 313 312 311 313 319 323 322 320 313 310 301 319 308 310 324 319 330 329 325 328 325 319 313 312 307 306 305 308 312 321 321 324 317 326 335 333 332 332 334 335 337
314 313 313 313 312 310 311 311 318 320 318 319 315 305 307 306 313 310 313 322 322 321 316 314 315 311 308 307 299 302 303 306 308 313 317 320 318 322 333 333 332 332 334 335 335
314 313 312 312 310 309 308 307 302 303 301 309 310 306 310 313 318 311 311 316 315 315 306 310 304 301 304 307 307 305 305 307 310 312 314 314 315 319 330 332 332 333 333 334 335
313 313 312 311 310 309 306 300 298 299 293 302 300 303 310 310 306 309 310 308 306 303 307 304 301 306 307 306 304 304 303 305 308 308 309 311 312 319 327 330 333 332 333 334 335
312 312 311 310 309 304 301 300 304 303 294 299 301 301 303 306 304 307 307 306 304 301 302 301 303 307 305 304 302 302 301 304 305 307 313 312 310 318 326 331 333 334 335 334 336
312 311 310 309 302 301 299 303 305 303 292 297 297 302 303 306 302 310 311 307 304 301 302 302 307 304 303 303 304 299 305 304 305 304 301 314 303 315 322 326 329 332 334 334 335
311 311 309 307 302 299 301 305 305 300 285 300 298 307 305 303 303 304 312 308 303 303 304 301 303 303 302 303 306 302 306 304 304 304 304 305 304 309 320 321 325 330 333 335 337
310 309 309 304 303 304 304 304 301 291 285 298 300 298 299 302 302 306 306 311 309 305 305 305 307 307 306 307 307 308 305 304 303 303 297 303 303 306 313 320 325 329 332 335 337
309 307 306 305 298 304 303 300 290 286 297 294 295 299 298 298 298 301 302 302 301 297 298 302 302 307 308 304 307 306 302 295 294 294 295 305 301 305 312 320 324 328 331 333 336
307 305 302 304 305 303 302 293 284 290 291 296 296 297 295 297 298 298 300 299 305 304 300 297 294 302 306 305 302 303 302 296 290 292 296 302 299 305 313 316 323 326 330 333 335
306 302 302 304 304 303 297 284 287 290 292 291 294 293 293 295 296 297 298 300 304 304 299 298 298 305 305 307 306 302 300 305 298 297 295 300 304 309 313 315 317 324 327 330 333
301 297 298 303 302 302 292 285 289 294 295 294 288 292 290 292 294 295 296 298 300 302 303 302 297 304 304 307 307 304 306 296 299 291 290 296 298 301 310 312 317 320 325 328 332
298 294 300 303 302 296 286 287 290 296 297 293 291 290 291 291 293 293 294 297 299 300 304 302 301 300 304 301 301 300 301 301 301 298 293 292 297 309 312 316 316 318 324 326 328
295 289 300 302 290 291 287 289 293 294 297 295 295 294 292 293 292 293 293 296 299 302 298 301 298 299 300 306 308 305 303 302 297 296 297 298 298 309 313 316 318 319 322 325 328
292 291 301 300 285 286 289 289 292 292 293 294 292 295 296 293 290 294 295 299 299 300 298 300 297 295 298 302 304 302 304 304 303 303 299 294 297 312 312 313 315 317 321 324 328
294 288 293 294 293 288 286 287 287 293 292 294 292 294 293 292 295 291 293 297 298 300 303 301 297 296 296 298 299 298 301 304 302 298 299 300 301 307 310 311 315 317 319 321 327
295 290 292 286 288 289 289 287 286 286 291 292 289 290 288 288 289 290 293 293 295 299 297 298 292 294 296 296 297 298 298 300 300 303 300 302 304 307 310 313 317 319 320 320 323
293 291 292 288 290 288 288 286 286 288 288 287 288 289 289 286 289 288 291 292 291 296 294 296 291 294 292 296 297 296 299 300 300 301 301 302 303 311 314 316 316 318 319 321 322
301 301 292 289 288 286 287 287 287 289 290 292 290 288 287 290 293 294 295 295 294 293 292 292 292 291 289 294 295 293 298 300 301 303 303 299 306 311 310 312 316 319 321 321 323

GFSSW_sfc_thetae_048.txt.gz
Theta_e
318 318 318 318 318 318 319 319 319 319 319 319 319 319 319 320 320 320 311 319 322 341 348 339 338 342 346 342 342 340 326 320 320 322 326 336 332 336 338 334 335 338 338 342 346
317 317 317 317 317 318 318 318 318 318 319 319 318 318 319 319 317 312 326 338 335 346 333 335 333 338 337 336 338 334 327 321 328 329 329 334 333 335 332 332 332 336 341 344 345
317 317 317 317 317 317 317 317 317 317 318 318 318 318 319 320 312 311 337 338 346 350 331 338 335 336 329 334 334 333 325 327 327 330 333 334 334 337 331 327 333 334 338 342 344
316 316 316 316 316 316 316 317 316 317 317 317 318 318 318 318 302 320 351 338 352 334 333 334 334 329 325 326 333 326 330 329 329 331 330 331 336 334 333 330 337 340 342 341 342
315 315 315 315 315 316 317 317 317 315 316 317 317 317 317 310 307 325 341 338 345 333 330 332 329 326 321 326 328 327 329 331 332 331 330 333 332 333 333 336 339 341 341 340 341
314 315 316 316 316 316 316 315 315 315 316 317 317 317 313 303 314 314 325 328 334 332 329 333 329 328 325 327 326 327 329 330 330 329 329 331 332 335 336 339 338 338 339 340 341
315 315 315 315 315 315 315 314 314 317 321 318 317 317 311 310 315 316 325 327 334 333 326 332 333 328 326 324 328 328 323 326 325 326 328 333 328 330 338 339 337 337 339 339 341
315 315 315 315 315 314 313 313 316 323 319 318 319 317 310 317 319 318 324 328 334 333 328 329 332 330 323 320 316 316 317 314 323 325 328 330 319 331 339 338 336 337 337 338 341
315 315 315 314 314 313 312 313 321 322 321 320 317 315 309 316 309 316 325 326 331 329 328 329 329 324 326 317 312 313 311 314 318 326 325 326 321 330 338 337 336 336 337 337 339
314 313 313 313 312 311 311 313 321 321 321 322 318 309 312 310 314 312 326 325 328 328 322 324 323 316 318 315 305 309 310 315 316 321 323 322 322 325 334 335 336 337 338 337 337
313 313 312 312 311 310 310 312 310 311 308 312 315 311 313 316 318 310 321 322 327 320 310 316 311 306 309 312 312 313 312 312 317 321 319 319 320 322 327 333 334 336 337 337 337
313 312 312 311 310 310 311 305 301 302 297 306 306 308 318 317 312 310 319 315 317 310 311 308 306 311 312 310 310 310 309 310 316 317 315 317 317 321 324 331 334 336 337 338 339
312 312 311 310 309 309 307 304 309 308 298 304 308 307 308 311 310 311 315 313 312 309 309 306 307 311 309 309 308 309 308 309 311 315 316 315 313 317 323 328 333 336 339 340 339
312 311 310 308 308 308 305 309 311 309 296 301 302 306 308 312 307 317 312 313 310 308 309 308 310 308 308 306 308 305 311 310 309 309 307 316 307 317 320 324 329 333 336 338 340
312 311 309 307 307 304 306 310 310 307 288 303 303 311 309 308 311 310 316 312 307 306 309 306 307 306 305 306 309 306 311 309 309 308 308 310 307 312 320 319 325 331 335 338 340
311 310 308 308 309 308 310 310 308 294 288 300 303 302 302 306 307 311 311 311 310 307 309 307 311 310 309 310 309 310 308 308 308 307 301 307 308 309 314 319 323 329 334 337 339
309 307 308 309 303 310 310 306 292 288 300 298 299 302 303 303 304 306 306 305 304 300 301 305 306 310 311 307 310 308 305 299 297 298 298 309 307 310 316 320 324 326 330 336 340
307 305 306 308 310 310 306 297 285 293 295 300 299 300 299 302 303 304 304 303 307 306 305 301 298 306 311 308 307 306 305 300 295 297 300 308 303 309 319 321 322 327 329 336 339
306 308 307 308 310 309 300 288 288 294 296 296 297 297 300 300 300 302 303 304 307 309 303 303 303 309 310 311 311 306 303 308 303 304 301 305 309 314 317 318 320 322 325 328 334
306 305 304 309 310 306 295 288 292 296 297 297 292 296 294 297 298 300 302 303 305 310 311 308 303 309 309 311 311 309 310 301 303 296 295 301 303 305 312 314 319 320 322 327 330
305 299 305 309 308 299 290 290 292 296 297 294 294 294 296 296 298 299 300 301 304 305 307 308 306 307 308 305 305 306 305 306 306 303 298 297 302 313 313 316 317 320 323 326 329
302 294 305 308 296 296 291 292 293 295 298 296 297 294 294 297 297 298 298 301 302 305 304 309 307 304 304 310 311 309 307 307 301 300 303 302 304 313 314 316 319 320 323 326 330
298 298 306 304 289 290 293 292 294 293 293 294 294 297 297 296 294 297 299 301 302 303 303 307 303 300 303 307 309 306 308 308 307 307 304 299 304 316 316 316 318 320 323 326 328
299 293 300 301 300 292 289 291 290 294 293 293 292 295 294 295 298 295 296 299 300 301 304 304 305 304 301 304 307 304 306 307 306 303 304 304 307 311 312 314 317 319 321 323 327
301 295 295 290 292 291 290 290 289 288 293 294 291 290 289 290 293 294 296 298 299 301 302 302 301 302 306 303 302 306 305 306 305 307 303 307 308 312 314 315 318 320 321 322 325
296 294 296 294 292 290 291 289 289 290 290 290 289 289 291 288 289 289 292 296 295 299 299 301 298 300 300 302 301 300 304 305 306 307 308 308 308 316 317 319 318 319 320 320 322
303 303 298 292 292 288 289 289 290 292 293 292 292 291 289 290 295 297 298 298 298 296 296 296 297 296 296 302 301 298 303 305 306 308 308 305 311 315 315 316 317 319 321 321 323

GFSSW_sfc_thetae_051.txt.gz
Theta_e
318 318 318 318 318 318 318 319 319 319 319 320 320 320 320 321 320 321 314 322 326 345 343 331 331 341 344 340 342 343 328 322 318 321 322 332 328 335 337 335 337 339 341 345 347
317 317 317 317 317 317 317 317 318 318 318 319 319 319 319 320 318 314 328 344 343 344 329 328 325 334 334 335 337 334 327 321 326 326 326 330 327 329 331 332 333 337 344 346 346
316 316 316 316 316 316 317 317 317 317 317 318 319 319 319 320 316 314 347 342 344 340 323 329 329 330 329 333 333 332 324 329 327 329 332 329 328 331 329 328 333 335 340 343 344
316 316 316 316 316 316 316 317 316 316 316 317 318 319 319 320 305 329 349 344 343 323 321 324 327 325 326 326 332 325 331 330 329 332 331 328 330 329 329 329 336 340 343 343 343
315 315 316 316 316 316 317 317 316 315 316 317 318 318 317 314 313 326 346 342 326 321 320 325 325 325 323 326 328 326 328 331 332 332 331 332 329 330 330 333 337 341 343 342 343
316 316 316 316 317 317 317 316 316 315 318 320 318 318 315 310 323 323 325 327 328 326 322 327 326 329 327 325 325 328 329 331 332 330 331 328 330 334 334 337 337 338 340 342 343
316 316 315 315 316 316 316 315 314 318 322 323 320 318 315 315 321 318 323 325 332 329 324 328 330 328 328 324 331 329 324 329 330 330 328 331 326 328 336 338 337 336 339 340 343
315 315 315 315 315 314 314 314 315 323 320 320 320 318 314 325 328 322 323 324 331 333 330 330 331 328 327 330 322 323 325 319 327 328 328 328 320 329 339 337 336 336 336 339 341
314 315 314 314 314 313 312 313 316 322 319 320 320 318 315 320 316 321 321 321 328 330 331 329 329 324 324 320 315 316 313 315 320 327 326 326 318 326 339 337 336 337 335 336 339
314 314 314 313 312 311 311 314 319 320 323 324 324 314 317 315 320 318 322 323 325 325 324 322 320 318 318 318 308 310 311 315 316 323 325 323 321 326 335 335 336 337 337 336 337
314 313 313 312 311 310 312 314 311 315 317 313 316 314 317 321 320 315 322 323 325 322 315 318 313 310 313 318 319 316 314 313 319 323 323 321 322 326 331 332 334 337 338 337 337
314 313 312 311 311 310 312 307 305 306 299 307 308 308 314 322 315 313 323 316 320 314 318 314 310 315 317 316 318 316 314 314 319 322 323 320 320 325 327 330 332 335 337 339 339
313 313 312 310 310 310 310 307 312 311 300 303 308 308 309 313 315 315 314 317 316 314 314 310 313 316 314 312 313 316 312 313 314 319 322 318 317 320 325 327 332 334 339 340 340
313 312 311 308 308 311 307 311 313 311 297 302 306 308 311 311 308 319 315 317 316 314 314 311 314 311 311 309 311 307 314 314 313 314 310 318 307 317 321 322 327 332 336 338 341
313 311 309 307 311 308 308 312 312 310 289 306 306 314 312 307 312 313 318 316 311 312 314 309 310 309 308 310 312 309 314 313 313 311 312 313 310 315 321 320 323 329 333 336 340
311 310 309 309 311 310 311 311 310 296 288 303 306 305 305 307 309 314 314 315 316 312 314 313 316 313 311 312 312 314 311 312 312 310 303 310 311 312 316 321 324 328 331 335 339
309 307 308 310 305 311 311 307 294 288 302 300 301 305 305 306 306 309 309 306 306 302 304 309 311 313 314 310 312 310 307 301 300 301 301 311 309 312 319 322 324 327 330 334 338
307 306 311 311 312 311 308 299 287 293 296 302 300 301 299 304 307 307 307 306 308 308 306 303 301 310 312 310 308 308 307 301 296 298 302 310 305 310 319 323 325 328 330 333 337
306 312 310 310 311 310 303 291 291 294 297 295 297 297 300 305 304 306 306 306 309 309 303 304 304 313 312 313 312 308 305 310 305 307 303 306 311 316 319 320 322 323 328 330 335
309 309 310 310 311 308 299 291 294 297 297 296 290 296 295 299 302 303 305 308 308 311 312 309 305 311 312 313 313 311 313 303 305 300 299 304 307 308 314 317 321 322 324 329 334
309 302 308 310 310 302 293 292 294 297 297 293 292 292 294 294 296 300 304 306 308 309 313 311 309 309 313 308 307 308 308 308 307 305 300 300 305 315 316 319 319 321 324 327 331
306 298 309 310 298 300 294 294 294 295 297 296 296 295 294 295 295 296 298 305 305 307 306 311 309 305 308 312 314 312 309 310 304 303 305 305 306 316 317 318 320 321 324 327 330
303 302 310 307 293 294 296 295 296 294 294 293 293 295 298 295 292 298 300 305 304 306 306 310 306 302 306 310 312 309 311 311 310 309 306 302 306 319 318 319 320 321 323 327 330
303 296 302 303 302 295 293 292 292 296 295 295 294 296 295 294 297 296 297 302 304 304 306 307 306 306 303 308 310 306 308 310 309 306 306 307 309 313 316 317 319 322 324 326 329
300 295 299 291 296 295 295 294 291 290 294 296 293 292 291 290 292 291 296 300 304 304 306 306 303 307 309 310 310 309 308 309 307 309 306 309 310 314 316 317 320 322 324 324 325
296 295 298 294 296 294 293 291 291 291 292 292 291 291 293 291 291 289 293 295 297 302 303 306 301 306 306 309 308 305 309 309 309 309 310 310 311 319 320 320 319 320 321 321 324
303 302 297 293 294 292 291 293 292 293 294 296 294 293 291 293 297 298 298 299 299 297 297 300 301 303 300 307 306 302 307 309 310 312 311 307 313 318 318 319 319 320 322 322 324

GFSSW_sfc_thetae_054.txt.gz
Theta_e
317 317 317 317 317 318 318 318 319 319 319 319 319 320 321 321 320 319 311 318 324 343 339 327 322 330 341 341 340 338 325 320 321 322 324 329 327 334 337 337 339 341 339 340 343
317 317 317 317 317 317 317 317 318 318 318 318 319 320 320 320 317 314 325 339 348 344 317 320 318 326 332 334 335 330 322 322 329 326 325 326 329 330 329 331 335 338 342 343 344
316 316 316 316 316 317 317 317 317 317 317 317 318 319 319 320 314 314 348 337 346 338 319 323 323 323 326 331 330 330 322 327 328 328 330 326 326 330 328 326 336 335 338 341 341
315 315 316 315 316 316 316 317 316 317 317 317 318 318 319 318 306 321 351 350 346 323 317 318 322 318 321 322 329 325 327 326 328 330 328 324 326 326 328 330 339 341 341 341 339
315 315 316 316 315 316 316 317 316 316 317 319 319 319 317 312 313 326 350 346 328 318 314 315 317 319 317 322 326 325 327 331 331 333 327 328 327 326 327 333 339 342 341 340 340
316 316 316 316 316 316 316 316 316 316 319 322 321 318 313 309 327 327 326 330 321 316 315 316 316 323 321 322 323 328 327 329 330 329 332 328 328 327 327 333 336 339 339 340 340
316 316 316 316 316 316 316 315 315 315 321 323 323 318 312 312 327 324 323 326 325 321 314 318 321 322 323 321 327 326 322 325 328 329 328 329 324 326 329 332 332 336 338 340 342
316 316 316 316 315 315 314 314 314 316 325 321 324 317 311 326 326 325 319 321 325 327 321 323 326 324 323 327 324 320 321 316 324 329 330 328 318 324 333 333 331 334 336 338 341
315 315 315 315 314 313 312 313 315 319 321 320 318 316 313 328 321 325 325 317 322 328 327 327 325 321 322 318 316 319 313 317 320 327 327 324 320 326 330 330 332 333 334 336 339
315 315 314 314 313 312 312 314 320 320 321 323 323 315 318 315 321 323 326 320 319 323 322 322 320 316 316 314 307 312 312 317 317 324 326 321 323 324 328 329 328 333 334 335 336
314 314 313 312 312 311 311 313 306 314 308 308 315 313 315 323 322 318 321 317 318 320 313 318 312 310 313 316 317 316 313 313 317 321 322 320 322 323 325 325 327 333 333 333 335
314 313 313 312 311 310 311 305 305 306 299 306 306 307 312 316 313 317 320 312 313 311 315 314 309 314 315 316 315 315 313 312 316 322 320 319 322 323 323 327 330 332 334 335 335
313 313 312 310 310 311 310 307 311 311 299 300 305 305 307 310 309 315 315 314 311 311 313 310 312 315 313 312 311 314 313 313 312 320 322 320 316 322 327 332 334 334 337 337 337
313 312 310 309 308 312 307 310 311 311 295 300 305 309 308 309 305 316 318 316 314 310 314 312 316 313 312 311 312 307 316 316 314 315 310 320 307 320 322 323 328 332 334 336 338
312 311 310 308 309 308 308 311 311 309 288 306 307 315 313 305 309 308 319 314 311 312 314 311 312 312 310 311 314 310 315 316 315 311 312 313 311 313 321 319 322 328 333 334 339
311 310 309 310 311 311 311 310 309 295 287 301 307 305 306 308 307 310 310 316 315 312 315 314 319 315 312 314 314 314 311 312 312 310 304 309 310 312 315 320 323 326 331 335 336
309 308 308 311 307 311 311 306 293 288 299 296 298 300 300 301 305 306 306 308 304 303 306 311 313 315 314 309 313 311 306 300 299 301 301 310 308 313 320 323 324 326 330 334 339
307 306 313 313 313 310 307 299 288 293 294 300 298 297 296 302 304 305 305 305 308 308 306 303 302 312 314 311 308 308 306 301 295 297 301 309 305 310 321 324 327 329 330 332 335
306 312 313 312 310 309 302 292 291 293 296 295 295 292 294 299 299 302 305 304 308 307 304 304 304 314 315 314 312 307 304 309 303 305 302 305 309 315 319 320 323 323 329 331 333
307 309 310 313 312 307 299 292 295 298 296 295 289 292 288 292 293 296 300 308 307 311 310 308 303 310 313 315 312 310 312 302 304 297 297 302 306 308 314 318 321 321 322 329 333
308 305 310 313 311 302 294 294 296 299 297 293 291 290 291 290 293 292 296 302 307 306 312 308 306 306 311 309 307 307 307 307 306 304 298 298 304 317 318 319 320 321 325 327 332
306 299 313 311 298 299 295 296 296 296 298 296 295 293 292 292 292 293 293 299 307 307 302 310 306 302 305 313 313 311 308 309 303 302 304 304 305 317 319 322 322 323 326 327 330
302 303 312 309 293 294 297 296 297 295 295 294 293 294 295 291 289 294 297 303 304 304 302 305 304 299 302 309 313 309 309 309 310 308 305 301 304 319 318 319 323 322 324 330 332
301 295 302 303 301 296 294 293 293 297 295 296 294 295 293 290 293 291 293 299 302 303 312 307 303 303 301 305 310 307 308 309 307 305 304 306 308 313 316 317 319 325 326 328 334
300 296 298 292 293 293 295 294 291 292 295 295 293 293 292 289 290 290 294 296 301 306 305 305 301 306 307 309 311 308 307 308 308 309 306 308 310 314 318 318 321 327 329 330 333
297 294 296 294 295 293 294 291 292 293 293 291 291 292 294 290 291 289 292 294 293 298 299 303 300 305 304 308 309 308 309 309 309 309 309 310 311 318 321 323 322 325 325 327 328
304 302 295 292 292 291 291 292 293 295 296 296 294 293 292 293 296 297 297 297 297 295 296 299 299 300 298 306 307 303 309 309 310 311 311 308 315 321 319 320 322 326 325 324 325

GFSSW_sfc_thetae_057.txt.gz
Theta_e
317 317 317 317 317 317 318 318 318 319 319 319 319 319 320 321 321 316 310 314 317 337 350 330 325 324 333 338 341 341 323 316 320 320 322 329 328 334 339 335 337 338 337 337 341
316 316 316 316 316 317 317 317 318 318 318 318 318 319 319 321 313 309 322 334 336 341 320 311 316 315 316 328 333 331 315 321 328 328 325 328 328 331 333 333 331 334 339 341 341
316 316 316 316 316 316 317 317 317 317 317 318 318 319 319 318 310 312 341 336 338 346 318 314 314 313 311 324 326 327 320 327 326 329 330 324 325 330 331 328 331 330 334 338 340
316 316 316 316 316 316 316 317 317 317 317 318 320 319 318 314 303 316 348 348 339 330 318 313 310 309 309 316 326 322 328 328 327 329 326 323 327 327 331 334 337 336 337 339 338
316 317 317 317 317 317 317 317 316 316 317 319 321 319 314 307 308 326 350 351 331 323 313 309 307 310 308 313 321 321 326 328 328 328 328 330 325 325 334 339 340 338 338 338 338
317 317 317 317 317 317 317 316 317 316 316 319 322 319 310 302 321 323 331 331 325 316 312 310 309 312 313 313 315 321 326 327 328 327 330 328 327 327 335 339 337 337 336 338 338
317 316 316 316 316 316 316 316 316 315 316 320 323 317 309 304 320 322 328 321 320 315 310 312 313 310 315 312 318 319 318 326 326 327 326 330 323 324 331 337 335 335 336 337 338
316 316 316 316 315 315 315 314 315 316 317 322 322 316 304 319 319 318 320 322 319 316 313 313 314 310 309 317 317 314 315 312 320 325 327 327 315 326 329 330 332 335 336 337 337
315 315 315 315 314 314 313 313 319 320 320 321 316 311 306 326 317 320 320 314 319 318 316 318 312 308 309 309 308 311 307 309 314 323 325 323 315 323 329 330 331 333 335 336 337
314 314 314 313 313 312 312 314 320 319 320 320 319 308 314 310 317 321 322 321 314 315 316 313 309 305 308 307 300 304 306 309 312 319 322 319 318 320 325 330 330 329 330 335 336
314 313 313 312 312 311 308 304 300 303 302 297 299 305 303 317 315 320 321 318 313 311 308 312 307 303 306 309 310 312 311 309 315 321 320 318 318 322 327 328 328 328 328 330 334
314 313 312 312 311 310 308 301 300 301 294 302 302 303 305 307 303 310 318 312 307 303 309 308 304 310 312 312 310 310 308 308 313 317 318 319 317 322 323 324 325 327 330 331 333
313 312 312 311 310 309 306 302 306 304 294 298 301 301 301 303 301 304 310 311 306 303 307 305 308 314 312 310 309 308 307 308 309 313 317 319 315 318 322 325 328 330 332 333 332
312 312 311 309 306 305 305 306 307 305 289 296 299 305 305 303 299 309 311 310 307 302 305 307 312 311 309 308 309 303 311 312 312 310 303 314 304 313 320 322 323 328 330 329 331
312 311 310 308 303 303 307 308 307 302 282 303 301 310 305 300 302 303 309 308 303 305 305 304 309 308 307 308 310 305 311 310 310 308 308 308 305 312 319 316 320 326 330 328 332
311 310 309 308 306 308 309 307 303 288 285 295 300 298 297 299 302 307 306 309 309 306 307 308 315 312 310 312 312 313 309 307 307 306 299 302 306 305 313 316 321 327 331 332 333
309 307 307 309 302 309 309 301 288 284 297 293 292 295 294 294 297 299 298 299 297 296 298 305 308 312 315 308 311 309 302 294 293 295 296 301 302 305 314 317 324 328 330 332 334
307 306 310 312 311 310 302 293 284 292 291 295 293 293 290 293 292 294 294 294 303 302 297 297 296 308 314 309 305 305 303 293 287 289 295 300 296 303 313 318 322 329 332 334 334
307 308 309 312 313 306 297 287 288 291 293 291 291 288 287 291 292 292 292 292 298 299 297 296 298 311 313 314 310 302 300 302 292 295 292 296 301 308 312 312 316 321 329 331 333
304 305 307 313 309 304 293 290 292 296 295 293 286 289 285 287 289 289 290 296 295 302 303 299 294 304 310 314 312 305 305 297 297 287 289 295 297 301 305 309 311 313 322 326 332
304 302 309 312 309 299 289 292 295 297 296 291 289 287 288 287 289 288 289 295 300 299 300 299 295 299 304 306 305 303 300 301 296 294 289 289 296 306 308 311 311 314 316 325 328
301 294 308 311 297 297 292 294 296 295 296 294 294 291 289 289 287 288 288 293 301 299 293 299 295 294 298 305 310 307 303 300 296 291 293 292 296 311 310 314 314 315 316 320 328
296 298 308 305 291 290 294 294 296 294 293 293 291 293 292 289 285 289 291 298 300 297 294 297 292 289 295 300 304 304 304 304 299 297 293 292 295 311 311 314 315 315 317 318 324
298 292 297 300 299 292 290 291 291 297 295 294 292 293 291 288 290 288 290 296 298 298 305 304 294 292 289 296 300 300 304 304 301 295 295 298 297 307 309 311 313 314 318 322 321
299 293 295 288 290 291 292 291 290 290 295 296 293 292 290 286 288 288 292 292 295 301 299 295 290 295 298 303 304 304 305 304 301 301 298 299 301 306 308 312 316 319 321 322 324
295 295 295 291 293 291 291 289 289 292 292 290 290 291 290 286 288 284 291 290 290 295 293 294 289 295 297 303 304 304 307 306 305 304 303 302 302 311 314 314 316 318 319 318 322
303 301 295 291 290 289 289 291 291 293 294 294 293 292 289 291 294 293 294 294 292 292 290 290 290 290 291 301 301 297 304 306 305 307 305 301 304 312 311 316 316 317 318 319 322

GFSSW_sfc_thetae_060.txt.gz
Theta_e
317 317 317 317 317 317 318 318 318 318 319 319 319 319 319 320 320 315 308 313 315 330 353 346 337 331 336 335 340 340 325 315 319 321 323 330 329 336 338 333 336 337 331 330 339
317 317 317 317 317 317 317 317 318 318 318 318 318 319 319 319 313 308 317 329 333 336 327 329 325 322 316 328 332 330 321 321 327 327 325 329 330 332 331 331 332 333 333 337 340
316 316 316 316 316 317 317 317 317 317 318 318 318 319 319 317 308 311 332 333 339 340 318 314 318 312 306 312 325 327 321 325 328 330 330 328 329 335 330 327 331 328 332 337 336
316 316 317 316 316 317 317 317 317 317 317 317 318 321 317 312 300 314 348 339 339 329 316 310 307 305 303 305 316 317 325 327 327 329 328 325 328 332 333 331 337 335 336 337 336
316 317 317 317 317 317 317 317 316 316 317 317 319 320 313 305 304 319 348 347 330 324 315 309 305 302 302 306 310 317 322 328 330 328 327 329 327 331 332 335 337 337 337 336 336
316 316 316 316 317 317 317 316 316 316 316 317 320 320 308 299 314 318 329 332 324 318 314 310 305 306 305 307 308 316 318 326 327 323 326 327 329 333 332 336 334 335 335 336 337
316 316 316 316 316 316 316 315 316 317 318 316 321 317 308 302 313 314 327 322 323 317 310 312 310 307 307 306 312 312 309 318 326 323 326 329 322 327 334 334 332 333 334 336 336
316 316 316 316 315 315 314 314 315 320 319 317 323 315 302 316 316 314 314 319 323 317 309 312 310 305 303 306 306 308 308 304 319 323 328 327 314 328 335 332 330 332 334 335 336
315 315 315 315 314 314 313 313 317 319 320 322 314 308 302 321 315 315 316 318 315 311 310 315 308 302 303 299 296 302 299 304 310 323 325 324 318 324 335 332 330 331 333 334 335
314 314 314 314 313 312 312 314 315 320 320 321 318 305 307 306 309 313 317 318 313 310 308 306 302 296 297 295 291 297 301 304 308 320 324 321 318 322 327 332 331 332 333 333 334
314 313 313 312 312 311 308 300 296 293 299 293 295 308 304 306 308 310 316 314 311 307 301 304 298 295 297 299 301 306 305 305 310 321 322 319 317 321 324 326 330 331 332 332 333
314 313 313 312 311 310 304 295 294 297 291 299 300 299 302 301 298 303 309 309 307 301 304 303 299 303 306 306 305 305 304 306 311 315 317 319 318 322 322 322 328 331 332 333 334
313 312 311 310 310 304 300 300 302 295 288 295 299 298 298 299 297 299 303 304 305 300 301 301 305 311 309 306 305 304 303 305 305 311 319 317 315 316 320 326 328 330 331 333 334
312 312 310 309 300 300 301 304 306 298 285 293 296 301 302 300 296 305 305 304 304 302 300 301 308 308 307 306 306 300 309 309 308 306 302 316 302 313 318 320 323 324 327 329 331
312 311 309 308 299 299 303 303 305 296 279 298 296 303 300 296 299 300 306 302 299 302 300 299 304 306 305 307 309 304 310 308 307 302 300 308 305 309 318 315 318 322 326 329 332
311 310 309 303 300 303 304 305 296 286 282 292 296 294 293 294 295 299 299 302 304 300 303 302 307 308 308 311 311 311 305 304 301 298 293 300 304 303 311 315 318 321 325 329 332
309 307 307 307 297 302 303 294 284 280 293 289 288 291 289 289 292 294 294 293 293 288 291 297 301 306 309 305 309 307 297 292 289 291 291 299 298 304 317 320 321 321 323 328 332
307 306 306 308 305 304 296 289 280 290 287 291 290 290 287 290 288 291 290 289 297 296 291 291 291 301 308 306 303 302 301 293 287 286 293 297 295 303 315 324 324 325 325 327 332
307 302 301 305 307 301 291 282 282 287 291 289 288 285 284 290 289 290 288 289 294 296 289 288 292 305 308 309 309 301 298 303 291 289 289 293 299 304 307 311 316 323 326 326 331
301 297 300 308 307 296 287 285 287 293 292 290 283 286 282 285 286 285 287 292 294 298 299 292 286 299 303 307 310 307 303 294 290 290 286 290 293 299 302 305 307 320 324 327 332
294 293 301 307 301 291 283 284 292 296 295 289 286 284 284 285 285 284 286 292 296 296 298 293 289 293 299 298 299 304 302 295 296 290 290 286 293 301 303 306 307 314 326 329 332
293 287 300 305 290 289 286 290 295 294 296 291 291 289 286 287 284 283 285 290 298 298 292 296 292 286 292 301 303 305 301 299 294 289 289 290 295 305 307 308 309 310 324 331 333
291 290 300 298 284 284 289 291 295 293 293 292 290 291 290 285 282 285 289 296 298 296 293 296 292 286 290 294 299 297 299 296 293 293 290 291 295 304 304 307 310 312 313 328 332
291 285 290 291 290 285 286 288 289 296 294 295 293 293 289 285 285 285 288 294 298 296 301 299 291 289 284 288 294 293 297 300 296 292 291 295 298 300 304 306 311 310 313 323 331
291 286 289 283 287 288 289 289 288 288 295 294 291 291 288 282 284 284 288 290 294 298 298 295 286 287 289 292 295 296 297 301 297 298 295 297 296 300 302 306 311 311 314 319 328
289 292 290 291 291 289 288 286 289 290 290 289 289 290 288 283 285 283 287 285 287 294 292 292 286 287 284 293 297 297 302 303 303 301 298 298 298 305 306 310 312 314 318 319 328
295 296 295 291 290 288 285 289 289 292 292 294 292 290 288 290 293 291 292 291 290 291 289 288 286 284 282 295 297 295 298 303 303 302 300 298 301 307 308 312 315 314 317 317 320

GFSSW_sfc_thetae_063.txt.gz
Theta_e
317 317 317 317 317 317 318 318 318 318 319 319 319 319 318 318 319 314 305 311 315 328 341 332 341 335 339 335 340 339 321 313 317 320 323 330 328 335 338 332 335 334 329 332 335
316 316 317 316 317 317 317 317 318 318 318 318 318 318 319 318 312 307 316 327 330 337 341 335 327 325 326 328 331 328 317 320 326 327 324 328 332 331 330 330 329 326 330 334 335
316 316 316 316 316 317 317 317 317 317 318 318 318 319 319 316 306 307 330 328 335 339 340 332 324 318 309 316 325 328 320 326 326 329 329 326 328 334 330 326 329 322 327 333 335
316 316 316 316 316 317 317 317 317 317 317 317 317 319 318 311 295 314 347 332 338 325 319 315 313 305 303 305 316 316 326 329 328 328 329 326 330 331 332 331 334 328 334 335 334
315 316 316 316 316 316 317 317 316 316 316 317 317 320 311 302 301 313 344 333 331 318 312 307 304 303 301 303 308 312 317 323 328 326 326 329 325 330 331 336 332 331 335 334 334
316 316 316 317 317 317 317 316 316 316 317 317 317 319 306 295 308 316 332 326 324 315 308 307 304 304 302 303 307 312 314 316 321 324 326 327 330 330 332 335 330 330 332 334 335
316 316 316 316 316 316 316 316 315 317 321 319 318 315 306 301 312 313 318 320 322 314 309 310 307 305 303 302 308 308 305 309 313 324 327 329 322 326 333 333 330 330 331 334 336
316 316 315 315 315 315 314 314 315 320 318 319 321 314 302 315 315 316 312 317 321 316 308 311 308 303 301 303 303 303 303 298 307 323 327 325 312 328 332 331 329 331 332 333 335
315 315 314 314 314 313 313 314 317 321 322 322 312 306 301 319 312 314 313 316 318 312 309 315 306 299 300 297 294 296 295 300 305 323 324 324 317 329 332 330 328 330 331 332 333
314 313 313 313 312 312 312 314 315 320 320 319 317 302 304 303 303 305 310 317 311 309 307 303 299 294 292 292 291 291 297 299 303 313 322 320 317 327 329 329 328 329 331 332 333
313 313 313 312 311 310 308 296 293 291 293 291 294 301 299 301 304 305 309 313 309 303 296 299 293 292 295 296 298 301 302 301 306 314 319 318 317 322 329 328 327 328 329 331 332
313 312 312 311 310 310 303 295 296 298 288 297 298 297 299 298 296 300 305 307 304 299 301 297 293 298 300 299 298 297 297 299 306 319 317 318 316 320 327 328 329 329 329 331 332
312 312 311 310 309 302 298 297 300 296 287 293 297 297 297 297 295 297 301 302 303 300 301 298 300 304 302 299 298 297 297 299 302 315 319 317 315 317 322 325 330 332 332 332 332
312 311 310 309 299 298 298 300 300 296 284 291 293 298 298 297 294 302 302 299 300 301 300 299 306 304 302 301 302 295 304 305 305 304 302 315 299 311 317 319 320 325 331 332 333
312 311 309 308 297 296 300 301 300 294 278 295 293 301 296 292 294 297 302 300 295 299 299 298 300 301 302 303 307 301 307 305 304 302 300 309 302 308 316 315 317 322 328 332 334
311 310 309 303 298 301 302 299 295 285 279 290 294 292 291 291 293 297 299 304 303 299 298 299 306 303 304 308 308 310 304 302 299 301 295 299 304 300 309 314 318 322 326 329 333
309 308 306 306 298 302 300 293 283 279 291 287 287 289 287 287 290 293 296 294 292 289 289 296 298 302 305 301 306 306 295 290 288 290 291 297 297 302 313 319 320 321 324 328 330
307 306 304 307 305 303 295 289 278 287 285 289 288 287 286 288 287 290 289 289 295 293 289 287 289 297 303 301 299 301 300 290 284 285 292 296 292 300 312 321 323 325 325 327 329
307 299 300 301 305 297 291 280 281 286 289 288 286 283 283 288 288 287 287 288 294 293 287 287 289 299 301 302 303 299 297 301 290 289 287 292 296 304 308 311 320 322 323 323 326
299 294 297 305 303 294 287 284 285 292 292 288 282 285 281 284 284 283 285 292 293 296 294 291 285 295 298 301 303 302 301 294 290 289 285 288 291 297 301 303 316 319 321 323 325
293 291 299 304 298 291 282 283 290 295 295 288 285 283 283 283 283 282 284 290 295 294 294 289 288 290 295 294 294 296 298 294 296 291 291 286 293 298 302 305 306 314 321 323 325
291 287 299 299 289 285 284 288 293 293 295 292 290 287 285 286 283 282 284 288 298 296 290 292 288 286 289 298 300 298 295 299 293 289 288 289 295 304 304 305 306 307 314 320 327
289 288 298 296 282 282 287 290 292 291 292 292 291 292 289 285 281 284 288 295 297 294 291 290 290 283 287 290 294 291 294 294 294 291 290 290 295 302 302 303 306 307 310 323 326
290 285 289 290 288 284 285 286 288 295 294 294 292 292 290 287 287 284 286 294 296 295 302 297 287 284 283 286 289 287 290 291 290 288 297 294 294 299 300 301 303 305 308 312 326
289 285 287 282 284 284 286 286 288 288 294 294 290 289 288 284 284 283 287 287 293 299 295 291 285 288 288 289 290 289 289 291 290 294 290 298 295 298 299 302 303 308 311 310 316
288 287 288 290 290 288 285 284 288 289 289 288 288 290 290 283 284 283 284 283 284 290 288 288 285 286 285 290 290 288 291 294 296 298 298 297 296 300 308 315 317 313 311 311 321
294 296 295 291 289 288 286 289 289 291 293 294 291 289 287 289 291 290 289 287 286 287 285 286 287 284 280 288 288 290 295 300 300 301 299 295 299 307 315 318 319 320 321 315 323

GFSSW_sfc_thetae_066.txt.gz
Theta_e
317 317 317 317 317 318 318 318 318 318 319 319 319 319 318 319 317 312 303 310 314 330 336 348 341 339 338 334 339 339 321 311 315 319 320 330 328 334 337 330 333 331 329 331 336
317 317 317 317 317 317 317 317 318 318 318 319 318 318 319 318 311 306 318 325 330 336 330 337 330 332 326 328 330 326 318 317 323 325 321 328 331 330 330 330 325 326 331 335 338
317 317 317 317 317 317 317 318 318 318 318 318 318 318 319 315 303 303 328 328 333 338 329 334 330 321 317 322 326 327 320 325 326 328 328 329 330 333 329 326 324 323 328 333 336
317 316 316 316 317 317 317 317 317 317 317 317 317 317 318 308 292 312 340 331 335 335 332 322 322 308 307 306 319 316 323 328 328 329 326 323 330 330 331 330 331 329 331 333 335
316 316 316 316 316 316 317 317 316 316 317 317 317 317 309 299 300 311 335 330 331 322 323 311 316 303 304 306 308 315 316 322 328 327 326 328 328 330 330 332 330 331 332 332 335
316 316 316 316 316 317 317 316 315 316 318 319 317 318 304 292 307 319 326 325 325 315 315 308 313 306 302 302 306 310 314 316 318 318 322 323 327 329 331 328 328 329 331 333 336
316 316 315 315 316 315 315 315 315 317 320 320 319 314 304 299 312 314 324 321 321 311 309 307 308 306 302 299 306 307 303 305 308 314 323 330 323 325 330 327 327 329 332 333 335
315 315 315 315 315 315 314 313 315 318 319 320 321 311 301 314 313 315 310 318 321 312 306 308 307 302 300 302 301 301 301 297 306 309 326 323 311 327 330 325 325 329 331 332 334
315 314 314 314 313 313 312 313 317 321 321 322 310 304 299 318 306 306 311 314 317 313 310 314 304 298 298 295 292 293 293 297 302 313 323 321 314 327 331 327 324 327 329 331 333
314 313 313 313 312 311 312 314 324 320 320 319 316 299 300 298 301 303 304 318 313 311 307 302 298 293 291 291 287 290 292 296 302 309 321 318 316 325 328 328 326 327 328 330 331
314 313 312 312 311 310 307 295 293 292 294 289 292 295 297 300 302 302 310 310 306 303 295 297 292 292 294 294 296 297 299 300 305 309 317 316 315 324 327 327 327 328 328 329 330
313 312 312 311 311 310 300 295 296 297 289 294 295 296 298 295 295 299 304 306 302 296 297 294 291 295 297 296 296 296 294 294 302 310 313 312 315 323 325 326 328 328 329 329 331
312 312 311 310 310 301 297 295 299 292 286 292 295 296 296 295 293 296 299 297 301 297 297 292 295 300 297 295 294 293 293 294 299 309 317 314 312 315 325 327 328 329 331 331 331
312 312 310 309 299 297 294 299 300 296 283 289 291 296 296 295 292 300 300 297 297 299 299 298 302 299 297 295 295 288 298 299 301 300 301 314 299 310 316 323 326 328 328 330 332
312 311 309 307 296 296 299 300 297 293 276 292 292 299 295 291 293 295 305 300 294 297 298 296 298 299 297 297 299 294 302 299 301 299 300 302 299 302 314 315 321 326 329 331 332
311 310 309 303 297 301 301 298 293 284 277 288 292 290 290 290 292 296 300 302 302 298 296 297 302 300 301 304 304 306 301 299 298 299 294 298 303 301 307 314 318 323 328 332 333
309 308 306 305 297 305 299 292 282 277 289 286 285 288 286 286 289 292 295 292 290 287 288 294 297 299 302 298 303 303 295 288 286 290 291 297 296 303 308 317 320 321 323 328 334
307 306 302 305 303 300 293 287 277 286 284 288 287 286 285 287 286 289 288 288 294 291 287 286 287 295 300 297 296 298 296 289 283 283 291 294 292 300 309 312 321 323 325 327 331
306 297 297 300 303 294 290 280 279 283 289 287 286 282 282 287 286 286 285 289 292 291 285 286 288 297 300 300 298 295 295 299 290 288 286 291 295 302 307 308 316 319 323 325 328
297 291 295 303 298 293 286 282 285 292 292 288 280 284 280 283 283 281 284 291 292 294 292 290 281 293 297 300 300 296 299 292 288 287 285 288 291 297 301 306 307 317 320 323 327
292 291 299 302 297 291 282 282 288 294 294 288 284 282 282 282 282 281 283 290 294 293 293 286 285 286 294 292 292 293 292 292 294 292 290 285 292 298 302 306 306 313 320 323 325
290 287 299 297 287 284 283 286 293 291 294 291 289 286 284 284 282 281 283 287 296 293 288 290 284 283 287 296 298 295 293 290 288 288 288 291 294 304 303 304 306 308 321 324 325
289 287 297 294 281 281 285 288 291 290 291 291 290 290 289 284 281 283 286 294 297 292 289 289 284 279 283 287 292 290 291 287 287 285 289 290 293 305 307 304 305 306 308 316 324
288 285 288 288 286 282 286 284 286 294 292 292 291 290 288 286 287 283 285 292 295 294 300 295 282 281 279 283 288 287 290 290 286 284 286 292 295 299 302 302 304 305 307 309 320
288 284 286 282 285 289 284 285 286 287 291 292 289 290 288 284 284 283 286 287 291 296 294 288 280 283 286 289 289 289 289 291 288 288 286 292 295 299 301 303 305 312 316 311 310
287 287 289 287 287 289 285 286 287 289 289 288 286 290 289 286 286 283 285 283 284 290 287 288 279 282 282 288 289 287 290 293 292 292 291 293 294 304 315 318 318 318 321 322 315
294 296 295 292 290 288 288 289 289 291 293 293 292 289 286 288 291 291 291 288 286 286 285 286 284 283 278 286 286 285 290 294 295 295 297 294 299 307 315 312 309 311 316 320 325

GFSSW_sfc_thetae_069.txt.gz
Theta_e
318 318 318 318 318 319 319 319 319 319 319 320 319 319 319 319 318 315 307 313 316 329 345 349 344 342 340 337 341 341 324 319 319 321 324 331 330 336 338 331 333 333 332 336 341
318 317 317 317 318 318 318 318 319 319 319 319 319 319 318 318 312 309 319 323 328 338 345 338 333 336 329 330 334 331 322 322 327 329 326 331 332 334 333 331 329 331 335 338 342
317 317 316 317 317 317 318 318 318 318 318 318 318 318 318 316 306 306 324 330 331 338 342 338 335 329 321 328 328 329 323 329 329 332 331 332 333 336 333 329 331 329 332 337 340
316 316 316 316 316 317 317 317 317 317 318 318 318 317 317 313 297 310 338 342 334 332 337 331 328 318 314 317 325 323 329 331 331 333 331 330 335 332 334 333 338 336 336 337 337
315 316 316 315 316 316 316 316 316 317 317 318 318 317 314 304 303 322 333 333 330 330 327 321 320 314 308 312 316 320 323 325 330 329 328 330 331 331 333 337 337 336 335 336 337
316 316 316 316 316 316 315 315 315 316 318 320 318 319 310 297 314 326 326 328 326 329 323 322 318 317 312 311 311 315 319 321 323 320 325 323 327 333 333 335 334 334 334 336 337
316 316 315 315 315 315 315 314 315 317 320 321 319 315 307 303 315 318 327 326 332 327 319 321 323 314 311 307 312 315 310 312 314 317 319 328 325 327 333 334 331 332 334 335 337
315 315 315 315 315 314 313 313 316 318 320 320 321 315 305 315 319 319 322 323 328 319 320 315 317 313 308 309 306 305 307 307 315 317 319 328 318 331 332 332 330 331 333 334 337
315 315 314 314 314 314 313 315 321 321 321 321 316 311 303 320 308 309 316 318 321 318 316 317 313 309 307 303 301 304 298 304 310 316 321 327 320 331 332 332 330 331 332 333 336
314 314 313 313 313 312 312 316 324 322 321 321 317 305 305 301 304 306 309 321 315 312 309 308 308 303 303 301 294 298 298 304 308 315 320 323 322 330 330 330 331 331 333 333 334
314 313 313 312 312 311 310 306 302 301 302 297 298 298 301 304 305 304 315 316 314 308 301 305 300 297 300 302 302 303 302 302 310 317 316 317 322 327 331 329 329 331 332 333 334
313 313 313 312 311 311 306 303 302 303 296 299 298 299 301 302 299 303 311 310 307 301 302 299 296 302 303 301 301 301 301 303 309 311 315 316 316 326 330 331 331 330 330 332 334
313 312 312 311 310 306 304 303 307 302 295 297 300 300 300 302 299 299 307 305 307 302 300 299 301 303 300 299 299 300 299 302 303 309 314 316 314 320 329 332 333 334 334 333 334
312 312 311 309 306 303 302 305 307 303 293 294 297 299 301 299 297 303 308 303 303 304 302 302 305 301 300 298 300 297 302 302 302 302 304 318 305 318 324 327 330 332 334 334 335
312 312 310 308 305 303 305 307 304 299 283 294 296 303 300 297 298 299 309 305 299 305 304 302 303 301 299 299 301 298 302 300 301 301 303 305 309 314 322 322 327 331 333 335 337
312 310 309 306 305 306 307 304 301 291 282 291 295 293 295 295 297 300 303 306 305 301 301 305 306 307 304 305 303 304 303 301 301 300 295 302 304 308 314 320 325 331 333 335 337
310 308 307 308 302 307 304 301 291 285 292 289 290 292 292 291 293 296 297 296 296 294 295 299 301 304 307 303 306 304 300 295 292 292 292 305 302 307 315 322 323 327 333 336 337
307 305 305 308 307 305 303 297 285 288 288 293 291 291 289 291 291 293 293 293 295 295 296 294 292 300 304 303 302 302 303 295 290 291 293 304 300 306 316 320 325 328 332 335 338
306 303 305 306 305 302 301 289 287 289 292 291 291 287 287 290 291 291 292 293 293 294 292 293 293 299 302 304 305 302 300 305 298 299 296 300 305 311 314 316 318 321 327 330 334
302 299 303 306 304 302 295 287 291 295 295 293 286 288 285 288 288 289 289 296 292 296 299 294 287 295 299 302 304 304 307 299 300 291 291 297 300 303 311 312 316 319 322 326 332
300 300 304 304 305 299 290 289 292 296 296 292 289 288 288 287 288 288 289 294 296 294 298 294 289 290 295 298 299 300 299 301 302 300 294 293 298 310 312 316 316 318 323 328 331
298 296 304 303 295 292 290 290 293 294 297 295 294 291 288 289 287 287 287 290 298 296 290 295 293 286 289 298 300 298 299 301 296 297 300 299 299 313 314 315 315 317 320 325 331
294 295 303 303 289 289 291 291 293 293 294 293 292 293 293 289 286 288 290 296 298 295 293 296 291 284 286 294 298 296 296 297 296 297 298 296 299 314 315 315 317 316 318 322 331
297 293 296 296 294 289 288 289 289 296 294 294 292 294 291 289 291 287 289 293 295 296 299 299 291 288 285 288 291 291 293 295 295 295 297 299 303 309 312 314 316 316 316 317 320
296 291 292 289 291 291 290 289 288 288 293 294 291 290 289 286 287 288 290 291 293 298 298 296 287 289 289 290 290 289 290 292 293 296 295 300 302 307 311 312 321 323 326 328 329
296 295 295 292 292 291 290 287 288 290 291 289 289 291 291 288 289 287 290 290 289 294 294 294 287 289 286 289 291 289 291 292 293 295 296 298 299 308 313 322 319 319 321 324 328
301 301 298 292 291 290 290 290 290 292 293 294 293 291 290 292 294 295 296 295 294 291 292 291 289 286 282 289 290 287 292 293 295 300 301 298 303 308 314 318 317 318 320 322 326

GFSSW_sfc_thetae_072.txt.gz
Theta_e
319 318 318 318 318 319 319 320 320 320 320 320 320 320 319 319 319 319 311 317 320 331 339 343 344 342 342 337 341 343 330 323 323 323 328 334 331 337 343 337 337 338 337 341 344
318 317 317 317 318 318 319 319 319 319 320 320 320 319 319 318 317 313 328 321 326 337 338 337 335 338 332 332 334 332 327 325 330 332 330 334 336 338 336 335 334 335 340 344 345
317 317 317 317 317 317 318 318 319 319 319 319 319 319 318 319 312 312 327 330 330 337 337 337 337 334 325 328 329 329 323 331 332 334 332 335 336 340 335 332 336 334 337 342 343
317 316 316 316 317 317 318 318 318 318 318 319 319 318 318 318 302 316 336 340 334 337 335 332 331 324 319 318 325 321 328 333 333 335 331 332 338 335 337 337 342 340 340 341 342
316 316 316 316 316 317 317 317 317 317 318 319 319 318 317 310 307 326 334 342 329 329 331 328 324 320 313 316 318 320 324 329 334 335 332 333 333 333 335 341 343 341 340 340 341
316 317 317 317 317 316 316 316 316 316 318 320 320 319 315 303 318 324 328 329 324 323 328 325 322 320 314 313 314 315 319 324 328 330 330 329 332 334 337 341 340 339 339 340 340
316 316 316 316 315 316 316 315 316 318 321 322 321 319 311 307 316 321 327 325 329 325 323 323 322 317 314 311 315 315 312 316 319 327 325 331 326 330 339 340 338 338 339 339 341
316 316 316 316 315 315 314 315 319 320 322 321 322 320 309 318 322 320 326 326 329 330 325 324 322 319 313 313 309 308 310 308 317 324 326 330 321 334 339 338 337 338 338 338 340
315 315 315 315 315 314 313 315 321 322 322 323 321 316 306 318 310 313 320 321 329 322 325 321 319 315 312 307 304 306 302 305 317 326 326 328 324 336 339 338 336 338 337 338 339
314 314 315 314 314 313 312 315 323 322 323 323 319 311 307 304 308 309 313 322 322 320 314 314 312 308 308 305 299 302 302 306 313 321 326 326 326 334 336 336 336 337 337 338 338
314 314 314 313 313 312 313 314 313 307 309 303 303 303 305 309 311 311 318 320 318 317 307 308 304 301 305 307 307 306 305 305 311 322 323 323 326 331 335 335 335 337 337 337 338
314 314 313 312 311 312 312 308 306 308 302 305 304 304 306 307 305 309 321 312 311 306 308 304 301 307 308 307 305 305 304 305 311 319 321 322 322 329 335 334 336 337 337 337 339
314 313 312 311 311 312 310 308 312 311 302 302 304 304 304 306 302 304 313 313 309 306 306 303 305 308 306 304 302 304 303 305 306 314 319 320 319 321 329 335 335 338 340 339 338
313 313 311 309 309 312 310 313 313 312 298 298 300 302 305 304 301 309 312 312 310 305 306 306 310 306 304 302 304 301 306 304 306 307 307 318 309 319 323 329 333 335 337 338 339
313 312 310 308 312 310 311 314 312 308 289 297 300 307 305 302 302 303 312 310 305 308 308 304 306 306 303 304 306 303 307 305 304 305 308 313 311 316 324 324 329 334 336 338 340
312 311 309 311 315 312 314 312 307 296 287 295 299 297 299 300 301 304 305 310 309 305 310 308 312 310 308 309 308 307 304 304 304 302 298 307 309 312 318 324 329 334 337 339 340
310 308 309 313 309 313 313 307 296 291 296 293 294 297 297 296 298 299 300 300 301 298 299 305 307 310 310 306 308 306 302 297 294 294 294 306 305 311 319 327 329 332 336 339 341
308 306 306 311 314 312 311 301 291 293 294 297 296 296 293 296 296 296 297 297 299 299 300 298 296 306 309 307 306 305 305 298 293 294 296 303 301 308 319 322 328 330 333 338 340
307 313 313 313 312 312 305 296 294 294 296 295 296 293 293 294 295 295 295 296 297 299 295 297 297 305 306 310 309 306 301 308 302 304 300 301 304 313 318 320 323 325 328 332 337
309 311 310 313 313 309 303 292 296 298 298 297 292 294 291 293 293 294 294 298 296 298 300 297 292 302 306 307 308 307 311 301 303 295 295 300 302 303 311 317 321 323 324 328 333
309 306 310 313 312 308 299 295 296 300 299 296 293 293 293 292 293 293 293 297 298 297 300 298 294 296 299 302 302 304 303 306 306 303 298 297 301 312 313 317 319 322 324 326 328
308 304 310 313 304 302 296 296 293 297 300 298 297 295 293 293 293 292 291 294 299 298 294 298 295 291 294 304 305 304 305 305 300 301 304 303 302 315 315 317 321 322 324 326 329
305 304 311 311 298 296 297 296 297 296 296 295 295 296 297 293 290 292 293 297 299 297 295 299 293 289 292 296 300 300 304 305 306 306 303 300 302 317 318 318 320 320 321 323 326
306 302 303 303 302 297 296 294 293 298 296 296 295 297 294 293 296 292 292 295 298 298 300 299 294 291 289 292 296 295 299 301 303 300 302 303 307 312 314 316 319 323 326 326 326
305 299 299 295 296 297 297 293 292 292 296 297 294 293 293 290 291 291 294 294 296 298 299 298 291 294 294 294 293 293 293 295 298 301 300 304 306 311 315 317 321 326 327 327 330
304 303 301 297 297 296 294 292 291 293 293 291 289 292 292 289 291 290 292 293 293 297 296 298 291 292 290 293 293 291 294 295 296 299 301 303 304 314 316 319 320 325 326 327 330
308 306 304 294 296 295 294 293 292 294 296 297 294 294 292 293 297 298 298 298 297 295 295 295 292 290 287 292 291 288 293 295 297 300 301 299 306 313 314 318 323 323 325 327 329

GFSSW_sfc_thetae_075.txt.gz
Theta_e
319 319 319 318 319 319 320 320 321 321 321 321 321 321 321 320 320 321 314 320 324 333 333 328 335 337 340 336 339 339 328 324 323 326 327 336 332 339 341 339 340 342 342 344 347
318 318 318 318 318 319 319 319 320 320 320 320 321 321 320 319 319 316 329 325 323 334 329 329 331 334 332 332 334 330 324 325 329 331 328 335 334 334 336 336 336 338 343 345 345
318 317 318 318 318 318 319 319 319 319 320 320 320 320 320 320 317 317 335 327 329 330 333 335 335 332 327 329 330 329 323 331 332 335 337 334 333 340 332 330 337 336 340 341 343
317 317 317 317 318 318 318 319 319 318 319 319 320 320 319 321 307 325 336 338 336 329 334 332 330 326 322 321 327 323 326 330 332 335 331 333 336 333 337 334 341 342 343 342 341
317 317 317 317 317 318 318 318 317 318 318 319 321 320 319 316 312 324 337 340 335 325 331 329 326 325 318 320 322 320 325 328 336 336 335 336 334 332 336 341 343 343 343 342 342
317 317 317 317 317 317 317 317 317 318 319 320 322 320 320 309 319 322 328 336 326 324 329 330 326 327 320 317 317 320 322 326 331 333 334 329 332 334 338 343 341 341 341 342 342
317 317 317 317 317 317 316 316 319 320 322 323 323 322 316 312 318 322 328 327 325 326 327 330 328 324 319 314 318 318 314 318 323 328 329 333 327 330 340 341 340 340 341 342 342
316 317 317 317 317 316 315 315 320 322 322 323 323 324 313 318 322 321 327 326 328 327 329 330 327 321 319 317 312 311 313 310 318 321 326 329 321 332 341 339 338 339 339 340 341
316 316 316 316 316 315 314 315 323 322 322 323 324 322 310 317 315 316 326 323 326 329 328 327 323 317 317 310 307 308 304 308 313 320 324 326 323 332 340 338 338 339 339 340 340
315 315 315 315 314 313 313 314 324 323 324 325 322 314 310 307 312 314 318 323 325 321 322 318 315 311 312 309 301 303 304 308 310 319 323 324 324 331 338 337 338 339 339 339 340
315 315 314 314 313 312 313 318 318 315 315 306 307 307 307 312 315 313 317 322 325 318 311 315 308 305 309 311 309 309 307 306 312 322 322 322 324 329 336 336 337 338 339 338 340
315 314 314 313 312 311 314 311 309 311 306 309 307 308 309 312 308 313 321 314 314 311 313 309 304 310 311 311 309 308 306 307 310 315 322 321 320 331 334 335 337 338 339 338 340
314 314 313 312 311 311 314 311 316 314 306 307 308 306 307 310 306 308 317 314 310 309 310 307 308 311 309 308 306 307 306 306 307 313 318 320 318 325 331 336 338 339 341 340 340
314 313 312 310 309 317 314 316 316 315 302 302 304 306 308 308 304 311 315 316 311 306 309 308 312 308 307 306 308 304 309 308 307 307 307 318 309 319 330 329 333 336 339 339 338
313 312 310 308 316 314 314 318 316 312 292 301 303 310 308 305 306 307 313 312 307 309 308 305 308 307 306 307 309 306 310 307 307 306 308 311 309 315 324 323 330 334 337 340 340
312 311 310 316 318 316 318 317 312 298 291 298 302 301 302 303 304 306 308 311 312 307 309 309 312 310 310 311 311 311 308 307 307 305 298 306 309 311 315 322 327 334 336 339 341
310 308 309 316 313 318 318 312 298 293 301 297 298 300 300 300 301 302 303 304 302 299 300 305 308 311 312 308 311 310 306 298 296 297 296 305 305 314 320 325 326 332 335 338 341
308 306 313 316 319 317 314 305 294 298 298 301 299 300 297 299 301 300 300 299 304 302 299 299 298 307 312 309 307 307 306 299 294 295 298 305 301 308 321 327 328 333 335 339 340
307 316 317 318 318 316 309 299 299 300 300 298 300 297 298 298 298 298 299 300 302 303 297 298 299 309 311 312 311 307 303 309 303 305 301 303 305 311 316 320 326 326 333 335 340
313 315 315 318 318 313 305 297 300 302 301 301 296 298 296 298 296 298 299 302 299 301 303 301 296 306 308 311 311 308 312 302 303 297 296 303 304 303 310 315 321 324 329 333 339
313 310 315 318 317 310 302 301 300 303 302 299 298 297 298 296 297 297 298 300 301 301 302 301 298 299 304 304 304 305 304 307 307 304 299 298 304 314 312 317 319 322 327 330 333
313 308 316 317 307 308 302 301 296 301 303 301 301 299 297 297 296 297 296 299 302 302 298 302 298 295 298 304 307 306 306 306 302 302 304 304 305 317 317 317 320 323 326 329 331
310 309 315 315 302 301 302 300 301 300 300 299 298 299 300 297 293 297 297 301 301 300 298 302 296 292 294 298 302 302 305 307 307 308 305 301 304 319 318 318 321 322 325 327 329
311 306 308 309 308 303 300 298 297 300 299 300 299 300 298 296 298 294 295 299 300 300 302 301 297 294 292 295 299 298 300 305 306 301 303 305 307 314 316 318 323 326 329 330 331
310 303 305 300 302 302 301 299 296 296 300 300 297 296 295 293 294 293 296 297 298 301 300 299 293 296 297 298 298 297 298 301 303 305 301 305 308 313 316 318 324 327 328 328 329
309 308 307 303 302 301 297 297 295 295 297 294 295 295 296 293 294 293 295 296 294 298 297 298 293 295 293 297 297 295 297 298 299 301 302 306 306 315 315 320 321 322 327 328 330
312 312 308 298 300 301 298 297 295 297 297 298 296 296 295 297 299 301 300 300 299 296 295 296 295 292 289 294 295 291 296 297 298 301 301 300 308 315 314 316 322 327 326 327 329

GFSSW_sfc_thetae_078.txt.gz
Theta_e
320 320 320 319 320 320 320 321 321 321 321 321 322 322 322 321 321 319 313 321 325 337 336 322 329 330 335 336 337 337 322 318 323 323 326 335 334 338 338 335 339 341 340 342 344
320 320 319 319 319 319 320 320 320 321 321 321 321 321 322 321 317 315 332 336 331 333 315 318 321 329 327 330 332 328 322 324 330 330 325 330 334 328 334 336 336 339 342 344 344
318 319 319 319 319 319 320 320 320 320 320 320 320 321 321 320 317 319 335 332 334 330 317 323 325 328 325 329 328 328 321 326 327 330 332 331 332 340 334 331 335 335 338 341 342
318 318 318 318 318 319 319 320 319 319 320 320 320 321 321 319 309 326 342 339 335 320 317 324 328 324 322 321 326 322 326 329 329 331 333 333 336 333 334 335 340 341 342 341 340
317 317 317 318 318 318 318 318 318 319 320 320 320 322 318 317 314 330 343 340 330 319 318 327 325 324 319 321 323 321 323 325 330 330 336 332 329 331 329 339 341 342 341 340 340
317 318 318 318 318 318 318 318 317 320 321 321 321 321 315 311 320 322 326 335 324 318 321 330 326 327 323 320 317 321 321 322 327 331 335 330 331 333 335 341 341 340 338 340 339
317 318 318 318 317 317 317 316 317 322 324 324 323 321 317 314 320 321 324 329 328 320 320 331 330 325 324 317 319 317 315 317 322 326 329 334 326 329 337 340 338 338 338 339 340
317 317 317 317 317 316 316 315 318 324 324 323 325 321 318 318 321 319 324 325 328 323 323 331 331 324 322 322 315 311 312 308 316 320 327 329 321 331 337 337 336 338 338 339 340
316 316 316 316 316 315 314 315 318 325 325 324 323 323 314 318 315 318 325 322 325 323 327 330 327 320 316 313 307 309 303 307 311 320 320 323 322 336 335 334 335 336 337 338 338
316 316 315 315 315 314 313 314 321 324 325 325 324 315 314 308 313 315 320 324 322 322 320 320 318 312 312 309 300 303 303 305 308 315 318 316 323 329 329 328 331 336 337 337 337
316 315 315 314 313 312 313 317 316 318 319 311 308 308 308 313 316 313 315 318 322 320 313 317 310 305 309 309 310 308 306 305 309 315 315 315 321 323 324 324 327 333 335 337 337
315 314 314 313 312 311 312 312 310 311 305 310 309 309 311 313 309 314 318 315 316 310 311 311 306 311 311 311 309 309 305 305 309 312 314 319 321 322 322 321 325 330 335 336 339
314 313 313 312 311 312 314 313 317 315 304 308 309 308 308 310 307 310 316 315 311 309 310 305 309 312 310 308 307 307 305 305 306 310 313 316 319 318 322 327 332 335 338 338 339
313 313 312 310 310 317 315 318 317 315 301 303 305 307 308 309 305 312 315 314 311 307 308 309 312 310 307 306 308 303 309 308 307 306 302 311 302 321 324 327 332 334 332 336 337
313 312 310 309 313 315 315 319 316 313 292 304 304 311 309 306 307 307 313 310 307 309 308 305 308 307 306 307 309 306 310 308 306 305 305 306 306 312 328 323 322 325 331 335 335
312 311 310 317 317 319 319 318 313 298 291 299 304 303 303 304 305 308 308 311 312 307 308 308 313 310 309 311 311 311 308 308 307 304 297 303 304 308 321 319 317 326 334 335 336
310 309 308 315 314 319 319 313 298 292 304 298 300 302 301 302 302 303 303 303 301 298 299 303 305 311 311 306 310 309 305 297 296 296 295 304 302 308 319 329 325 324 334 337 337
308 306 313 317 320 319 315 306 294 301 300 303 301 300 298 301 301 301 300 299 303 302 298 297 296 304 311 308 305 306 305 298 293 294 297 304 300 304 315 320 334 337 335 339 340
307 318 316 320 319 317 309 299 299 301 303 300 301 298 299 300 299 300 300 300 303 303 297 296 296 306 309 311 310 306 303 308 302 303 299 302 306 310 314 317 326 328 332 334 332
311 316 317 320 319 314 305 299 302 304 303 303 297 300 297 299 298 299 299 303 301 303 304 299 294 302 306 310 310 307 310 301 303 295 295 300 304 304 310 313 323 327 326 330 331
313 312 317 320 318 310 302 302 303 305 304 301 300 299 299 298 300 298 299 302 303 302 304 301 297 297 302 302 304 305 304 305 305 303 296 296 301 314 313 315 316 327 328 329 333
316 307 317 319 307 309 302 303 297 303 305 303 302 300 299 300 298 298 297 300 303 302 297 301 297 293 297 304 307 307 305 305 300 300 303 303 303 318 317 315 317 320 329 330 332
312 310 317 316 302 302 303 301 303 302 301 301 300 301 301 298 295 297 298 302 302 300 298 300 296 291 293 298 302 300 302 304 304 305 302 299 302 317 319 318 318 319 323 331 334
312 305 310 310 309 304 301 300 299 302 301 301 300 300 298 297 299 295 296 299 301 300 303 300 295 293 290 295 298 297 299 302 302 300 301 303 306 313 316 318 325 328 331 330 335
311 304 307 301 302 303 303 301 298 297 301 302 299 298 296 294 295 294 297 297 299 301 300 298 291 294 295 297 297 297 298 299 298 302 300 303 307 307 312 317 318 328 329 329 331
308 307 308 305 305 303 298 299 297 297 299 296 296 296 297 294 296 293 295 296 295 299 298 299 292 294 292 296 296 295 298 299 299 301 304 305 305 313 315 316 321 325 328 329 331
315 313 309 300 303 301 299 299 297 299 299 300 298 297 297 298 300 301 301 300 299 297 295 295 294 292 288 294 294 290 296 298 299 301 302 299 305 311 313 315 315 322 324 324 327

GFSSW_sfc_thetae_081.txt.gz
Theta_e
319 319 319 319 320 320 321 321 321 322 322 322 322 322 322 323 322 317 310 317 318 336 341 321 320 322 324 333 338 334 318 316 320 321 319 328 330 338 341 337 337 339 337 340 343
319 319 319 319 319 320 320 320 321 321 321 321 321 321 322 322 315 311 325 339 341 340 314 313 313 321 317 323 329 326 317 321 329 330 324 332 333 333 334 333 335 335 340 342 343
318 319 318 319 319 319 320 320 320 320 320 320 321 321 322 320 312 316 339 343 342 334 317 313 316 318 317 321 322 324 317 327 328 330 329 328 330 334 332 329 335 332 335 339 339
318 318 318 318 319 319 319 320 319 319 320 321 320 320 322 316 306 321 343 342 341 320 314 310 311 312 315 315 323 318 324 326 328 330 331 329 334 333 334 335 339 337 337 337 337
318 317 318 318 318 318 319 318 318 318 321 322 321 321 317 312 312 332 347 343 328 314 310 309 311 315 315 317 320 318 320 326 329 331 333 334 332 329 327 336 340 339 338 337 336
317 318 318 318 317 318 318 318 317 318 322 324 321 321 310 305 317 331 331 330 319 311 311 312 319 323 319 318 315 319 320 321 328 330 333 330 332 331 332 337 338 337 336 337 336
317 317 317 317 317 317 317 316 317 318 323 325 323 320 311 312 321 315 317 327 324 314 311 318 323 322 320 315 320 313 308 311 318 325 331 334 325 324 332 337 336 336 336 336 336
317 317 317 316 316 316 316 315 316 318 325 323 324 317 311 323 313 316 316 318 327 318 314 318 327 324 316 318 316 307 304 300 310 316 324 331 319 331 336 335 334 334 336 335 336
316 316 316 316 316 315 314 314 317 319 326 324 318 315 313 318 311 315 318 319 322 319 314 319 318 316 315 306 303 304 294 299 304 312 316 321 322 330 337 335 334 333 334 335 335
316 315 315 315 314 313 313 315 319 319 324 325 320 311 315 305 308 312 316 320 318 315 313 314 313 308 306 299 294 298 296 297 300 308 312 312 325 330 333 334 333 333 334 334 333
315 315 314 314 313 312 310 308 309 310 313 313 309 314 306 309 311 310 313 313 315 313 305 310 303 300 303 305 305 305 303 300 303 307 308 311 324 328 331 326 330 333 333 332 333
315 314 314 313 312 311 308 304 306 305 299 308 312 306 307 306 305 311 310 307 311 305 310 306 302 308 311 309 306 303 301 301 304 307 305 318 321 324 326 323 329 326 326 331 334
314 314 313 312 311 311 308 309 312 307 297 303 306 305 304 303 304 309 311 310 309 307 306 300 306 312 309 306 303 302 299 300 300 305 304 315 315 314 321 324 325 331 331 330 333
314 313 312 310 308 312 311 312 312 309 293 300 301 303 304 304 300 311 310 308 307 303 306 304 309 307 305 305 305 295 305 305 303 299 293 302 299 313 317 320 324 328 330 331 332
314 313 311 309 305 308 311 313 309 305 286 302 301 307 303 298 303 304 310 305 301 305 302 300 304 304 304 305 306 301 307 304 302 298 293 298 292 310 317 317 321 325 322 329 332
313 312 310 312 309 313 317 313 308 291 288 298 302 300 299 300 301 306 305 305 307 303 303 302 308 306 304 308 307 308 303 301 299 295 288 294 293 303 313 316 318 328 328 332 335
311 309 307 311 309 316 314 308 292 287 301 296 297 298 298 297 300 301 299 296 294 289 291 298 300 305 307 301 305 303 297 289 287 288 288 294 293 296 321 324 323 327 331 331 334
309 307 311 311 315 316 310 299 290 298 297 301 300 299 296 298 296 299 296 294 298 297 291 288 289 298 305 302 298 298 295 290 284 286 290 296 290 297 309 329 327 328 329 327 333
307 314 312 315 315 314 303 294 293 297 300 299 300 296 295 298 297 297 294 294 298 297 289 290 291 301 302 303 303 298 295 300 292 295 292 295 298 303 306 309 325 322 326 329 335
306 311 314 316 315 309 300 298 298 302 301 301 295 299 294 296 296 294 294 299 299 301 298 293 287 296 300 302 303 298 302 293 293 286 286 293 295 296 300 304 322 326 327 332 336
310 309 314 316 313 305 298 299 301 304 303 299 297 296 296 296 296 294 295 297 300 299 299 295 290 292 297 294 294 297 297 296 296 294 290 287 293 303 310 307 316 324 328 332 333
311 304 312 315 303 304 298 300 299 301 303 301 301 299 296 297 295 294 293 296 300 299 294 295 289 286 291 299 301 298 296 297 293 291 294 293 296 311 313 317 314 323 327 329 332
307 308 314 312 298 298 301 300 301 299 298 299 298 299 298 295 291 295 297 300 301 299 293 293 288 283 287 291 296 294 297 297 298 294 291 291 295 312 314 313 318 323 326 329 329
308 301 308 308 305 300 299 298 297 301 299 301 298 299 296 293 294 292 295 299 300 299 304 297 286 284 282 287 292 291 294 296 295 291 293 295 298 307 310 312 317 320 325 328 328
310 302 305 297 300 300 300 299 297 295 300 300 297 296 294 290 292 292 295 295 298 304 297 292 284 287 290 292 293 292 293 294 293 295 291 294 298 304 310 315 316 319 323 325 328
306 303 305 301 302 301 299 297 296 297 297 295 294 296 296 290 292 290 292 292 291 295 292 294 286 289 288 293 293 291 293 295 295 296 295 296 301 308 313 315 314 315 318 318 320
314 313 308 301 299 297 295 296 297 299 299 299 297 295 295 296 298 297 296 295 294 291 290 289 289 285 281 290 290 286 291 293 295 297 297 293 302 308 310 313 313 313 314 316 318

GFSSW_sfc_thetae_084.txt.gz
Theta_e
319 319 319 319 320 320 321 321 321 321 321 322 322 321 322 323 322 317 308 312 315 333 339 327 325 318 319 327 334 336 319 314 320 320 321 327 328 337 341 334 336 338 336 337 341
319 319 319 319 319 320 320 320 321 321 321 321 321 321 321 322 314 310 321 329 335 338 313 311 311 317 312 316 322 325 313 318 329 329 326 328 326 331 332 332 332 336 338 340 340
319 318 318 318 319 319 319 320 320 319 319 320 321 320 321 320 309 316 335 336 344 337 315 311 312 316 312 315 318 320 317 329 330 330 331 328 330 332 331 327 333 332 334 337 338
318 318 318 318 319 319 319 319 319 319 319 320 321 320 321 314 303 320 343 340 345 319 313 309 306 303 310 311 318 313 322 328 331 332 329 329 333 330 334 334 338 339 338 338 336
317 317 317 318 318 318 318 318 318 318 319 324 321 320 315 307 311 326 347 344 330 314 309 307 305 305 307 313 317 315 319 324 330 330 332 332 332 333 331 337 341 340 339 338 337
317 317 317 317 317 317 317 317 317 317 319 325 321 321 307 299 318 334 332 330 321 310 307 307 309 313 313 314 313 317 317 318 329 330 332 330 331 328 331 339 337 337 336 336 337
316 317 317 317 316 316 316 316 316 317 318 325 323 319 309 306 320 332 328 320 318 308 307 310 311 311 318 313 318 317 307 307 325 330 330 334 326 323 335 337 334 335 334 335 336
316 316 316 316 316 315 315 314 315 317 318 324 324 315 306 324 319 315 322 319 321 312 310 312 316 314 317 318 312 307 301 296 311 328 331 329 317 330 335 337 332 333 334 335 335
316 316 316 315 315 315 314 314 316 319 320 325 314 310 309 326 308 312 312 311 323 316 311 317 312 307 311 304 300 300 296 297 301 327 328 326 320 328 336 336 331 332 333 333 333
315 315 315 315 314 313 313 313 315 317 321 324 320 307 311 308 307 310 311 316 317 316 311 307 305 303 303 298 292 296 295 294 296 303 325 322 323 326 332 334 333 332 333 333 333
315 315 314 314 313 312 309 303 300 301 311 310 308 310 307 305 309 308 311 310 312 308 301 307 301 298 303 303 303 301 299 298 303 306 302 318 323 326 326 332 328 331 332 332 334
315 314 314 314 312 311 306 300 301 303 296 306 310 311 315 302 301 306 307 303 308 303 305 303 298 306 308 307 304 302 299 298 301 305 300 320 321 327 327 330 326 326 331 332 333
314 314 313 312 311 308 303 304 309 304 294 300 303 304 302 301 300 306 306 304 307 304 304 300 305 311 309 305 303 299 296 298 298 302 317 319 317 322 328 330 331 331 334 334 333
314 313 312 310 306 304 305 308 306 304 289 296 297 302 301 301 298 310 309 304 304 304 305 301 307 305 306 303 303 294 303 303 301 296 291 307 294 312 319 319 324 331 331 332 332
314 313 311 309 300 303 309 311 305 301 283 301 298 304 299 296 300 301 308 303 299 301 299 297 302 302 301 303 305 301 305 301 300 295 292 293 292 303 315 314 317 323 329 331 334
313 312 310 306 302 306 310 308 303 288 286 295 300 297 295 296 299 304 303 303 304 299 298 299 304 303 301 305 305 306 300 298 294 292 287 291 291 295 311 315 318 321 328 331 333
311 309 307 309 303 308 308 301 289 284 297 295 292 294 293 292 296 299 297 294 291 288 288 295 297 299 303 298 302 300 293 287 286 286 286 290 290 293 315 319 321 321 324 329 333
309 307 307 309 305 306 302 295 286 295 293 299 298 296 293 294 293 296 293 291 296 292 287 287 287 295 300 295 294 294 293 288 283 284 287 292 288 295 305 322 324 326 328 325 328
307 304 305 308 309 305 297 289 286 293 298 297 297 294 292 295 295 294 293 293 295 293 287 286 288 298 300 300 297 296 290 295 289 289 287 290 296 302 313 313 320 323 327 328 333
301 303 305 313 308 302 294 291 292 298 299 299 292 295 290 293 293 291 291 295 296 298 293 290 285 292 298 299 298 293 296 291 289 284 283 289 291 293 306 311 316 321 325 330 330
305 302 309 307 306 298 290 291 297 300 300 296 294 292 291 291 291 290 290 295 298 297 295 289 287 289 294 290 290 292 290 289 291 289 285 285 290 306 308 314 314 319 323 328 330
301 295 306 307 297 293 290 294 299 297 299 297 297 295 292 292 290 289 290 293 299 296 291 290 285 283 288 295 297 294 290 288 285 287 289 288 291 309 313 316 317 321 324 327 332
299 300 307 305 290 289 293 296 297 296 295 295 294 295 294 291 288 292 294 298 300 295 289 290 283 280 283 287 291 290 293 289 289 287 287 289 291 312 314 315 317 319 325 328 329
299 293 298 298 294 292 291 293 293 300 297 298 295 294 292 289 290 289 292 297 299 298 305 295 282 281 278 283 287 287 291 293 287 283 285 287 291 305 311 312 315 317 320 321 324
299 295 295 291 293 294 293 294 294 292 296 296 293 294 290 286 287 288 291 291 296 301 294 289 282 285 286 290 291 290 291 292 289 288 284 289 292 305 309 310 313 317 318 319 319
297 296 297 292 293 293 292 290 293 294 294 291 291 294 292 287 287 286 288 287 286 291 287 290 284 284 284 290 290 288 290 292 292 294 296 295 298 307 311 312 312 314 317 317 317
304 303 298 294 291 290 289 291 294 295 296 296 294 291 292 293 294 292 293 291 290 287 286 287 285 282 279 287 286 281 288 292 294 299 299 296 299 302 309 308 308 310 314 316 317

GFSSW_sfc_thetae_087.txt.gz
Theta_e
319 319 319 319 319 320 320 320 321 321 321 321 321 321 321 321 321 316 307 309 313 332 348 340 331 322 324 325 332 335 319 311 318 320 322 330 326 334 339 333 336 338 334 336 342
319 319 318 319 319 319 319 320 320 320 320 320 320 320 320 321 313 309 319 326 329 340 316 322 314 313 309 314 322 324 314 317 326 328 326 329 327 329 332 331 332 333 336 339 342
318 318 318 318 319 319 319 319 319 319 319 319 319 319 320 319 307 314 331 332 334 337 312 313 313 315 308 313 316 320 316 325 329 330 330 327 326 334 332 327 330 329 333 337 339
317 317 318 318 318 318 318 318 318 318 318 319 321 320 320 311 299 318 339 337 343 329 312 307 305 305 308 310 316 311 319 328 329 332 328 327 332 330 332 333 338 336 336 336 336
317 317 317 317 317 317 317 317 317 317 318 321 323 319 313 303 307 327 339 340 333 312 309 305 302 302 304 309 314 312 316 326 331 331 330 334 329 328 333 338 341 338 337 335 335
317 316 316 316 317 317 316 316 316 316 317 320 323 321 305 294 311 335 332 329 319 308 306 306 305 307 307 311 311 316 316 316 329 328 330 329 330 331 333 340 338 336 334 335 334
316 316 316 316 316 316 316 315 315 316 317 319 324 318 307 302 323 330 328 318 317 308 305 306 309 312 313 312 316 316 311 313 325 328 326 333 323 324 335 338 337 336 335 336 336
315 315 315 315 315 315 315 314 315 316 318 320 324 313 304 318 317 326 323 318 316 308 307 308 311 310 311 315 311 304 301 295 317 329 331 329 316 329 335 335 333 334 335 335 336
315 315 315 315 315 315 314 314 316 318 320 324 314 308 307 324 310 311 323 311 313 309 307 315 311 305 307 304 298 299 296 297 308 328 328 325 318 328 335 333 331 332 333 333 334
315 315 315 315 314 313 313 313 315 319 321 323 319 303 307 305 307 309 311 314 317 313 309 306 303 300 301 298 292 295 295 293 296 321 326 321 320 326 331 333 330 331 331 332 333
315 315 314 314 313 312 308 303 298 298 311 304 307 307 311 307 307 306 310 311 310 306 299 302 300 297 302 303 302 300 297 296 301 304 309 320 319 324 327 330 329 330 329 331 332
315 314 314 313 312 311 306 300 299 302 295 305 310 312 314 309 299 304 306 305 306 300 303 301 297 304 307 306 303 300 298 297 301 303 299 310 318 322 326 327 330 329 330 331 331
314 314 313 312 311 306 302 302 307 302 292 298 301 301 302 303 299 302 304 302 305 302 302 299 304 310 307 303 302 297 295 297 297 302 321 318 317 319 323 328 331 328 332 333 332
314 314 312 310 303 301 304 306 308 300 288 295 295 301 300 299 299 310 308 305 303 303 303 301 307 306 302 303 302 293 302 302 300 294 290 307 298 314 321 322 326 329 327 332 333
314 313 311 309 300 302 307 307 304 300 282 299 296 303 297 296 299 299 305 302 298 300 298 298 299 301 299 301 304 300 304 300 298 292 290 292 291 299 319 317 320 326 329 331 334
313 312 310 305 300 305 307 304 300 288 284 293 297 294 294 294 297 302 301 302 302 298 296 297 302 300 300 303 304 305 299 296 292 290 285 289 289 291 311 317 320 324 326 332 332
311 309 308 308 301 304 303 300 288 284 296 294 291 292 292 290 294 297 295 293 290 287 286 293 294 297 299 295 299 297 291 286 285 284 284 287 289 291 305 317 322 322 324 329 334
309 307 307 308 303 304 301 294 285 293 291 297 297 294 291 292 293 294 292 289 294 290 286 285 286 293 299 293 290 292 291 287 282 282 285 289 288 295 311 314 318 320 325 328 330
307 303 303 306 308 302 297 287 285 290 295 295 295 292 291 295 293 293 289 289 293 291 286 284 286 296 298 298 295 292 288 292 287 285 286 288 292 301 313 314 317 318 321 324 327
302 303 304 309 306 300 293 289 290 296 297 296 290 293 288 291 291 289 289 293 294 295 290 288 284 291 296 297 297 292 293 288 287 283 282 287 289 296 308 311 316 320 322 323 326
303 299 305 304 304 296 288 288 293 297 299 294 291 290 289 289 289 287 288 293 296 295 292 287 286 288 292 290 289 289 287 286 287 287 284 284 292 307 311 312 314 317 322 322 326
301 295 307 304 295 289 289 292 298 295 297 295 294 292 290 291 288 288 288 292 298 294 289 288 284 282 285 292 295 293 287 285 283 283 285 286 292 309 312 313 315 315 317 321 325
299 298 305 302 289 288 291 295 295 295 294 294 292 293 292 288 286 290 292 297 297 293 287 289 281 278 281 286 290 287 290 286 285 283 282 283 289 311 312 313 314 313 316 318 322
296 292 296 296 291 291 289 290 291 298 295 295 293 292 290 287 288 287 289 296 298 298 304 293 280 279 277 280 285 286 289 290 285 282 283 285 287 304 308 309 313 315 316 317 318
296 292 293 289 291 291 291 292 292 291 295 294 292 292 288 284 285 286 289 290 294 297 293 287 281 283 283 287 289 288 288 289 286 286 283 288 297 300 307 309 311 316 318 316 316
296 295 294 289 290 290 290 289 292 293 292 289 289 293 290 286 286 285 287 286 285 290 288 287 283 283 281 288 287 285 290 291 292 295 292 294 295 301 308 307 307 309 316 315 315
302 301 295 293 289 288 287 290 293 293 295 295 292 289 289 291 293 291 291 290 288 286 284 285 283 280 277 285 283 281 287 293 295 295 296 292 297 300 304 302 303 305 307 313 314

GFSSW_sfc_thetae_090.txt.gz
Theta_e
319 319 319 319 319 319 320 320 320 320 320 320 320 319 319 319 319 315 305 308 312 335 338 337 330 321 323 325 330 334 318 311 317 320 321 330 328 333 338 332 336 338 333 335 342
318 319 319 318 319 319 319 319 319 319 319 319 318 318 318 319 310 307 317 325 329 344 334 325 318 313 310 317 325 322 313 316 325 327 325 328 327 330 332 331 330 331 336 341 342
318 318 318 318 318 318 318 318 318 318 319 318 319 319 318 318 302 311 330 330 334 338 324 317 314 312 307 312 315 322 317 322 329 330 330 328 326 333 330 327 330 328 333 338 338
318 318 317 317 318 318 318 318 317 318 318 318 320 320 319 309 301 318 337 334 337 327 309 308 310 308 306 307 314 310 320 325 329 333 329 326 331 325 329 332 336 335 338 337 335
316 316 316 316 317 317 317 317 316 317 317 318 321 319 311 300 304 330 337 335 330 319 307 304 303 303 305 309 313 311 314 322 330 329 329 332 330 330 331 338 338 337 338 336 336
316 316 316 316 316 316 316 316 316 316 317 318 321 320 303 291 311 333 331 329 315 308 306 304 304 306 305 308 310 314 314 316 328 327 331 328 328 330 334 339 336 334 334 335 335
315 315 315 316 316 316 316 315 315 316 316 318 322 317 305 299 325 328 327 321 314 307 304 305 308 306 310 310 316 314 308 313 323 326 326 332 324 326 335 338 333 332 333 334 335
315 315 315 315 315 315 314 314 315 316 317 319 324 312 298 313 322 325 319 314 315 306 305 306 309 307 308 313 309 302 300 294 317 326 329 327 317 328 336 336 332 332 332 332 333
315 315 315 315 315 314 312 313 317 319 319 323 313 305 305 324 314 319 319 315 309 304 306 313 307 303 305 302 298 299 295 294 313 327 327 326 319 329 334 334 333 331 331 332 333
315 315 315 315 315 312 311 313 322 321 321 322 319 302 305 304 306 311 320 317 312 307 306 304 302 299 300 298 294 295 294 294 297 318 323 322 318 327 332 332 332 332 331 332 332
315 315 315 314 313 312 307 303 297 296 310 301 306 304 307 311 305 304 310 311 310 306 297 300 297 295 300 302 301 299 297 295 299 314 319 319 317 322 328 330 329 330 331 331 332
315 315 314 314 313 311 304 300 300 300 294 303 309 310 312 307 300 302 309 306 305 298 301 299 295 303 306 305 302 299 297 296 299 304 303 302 310 321 325 328 329 329 329 331 332
315 314 313 312 311 305 300 301 305 300 291 297 300 301 299 305 299 300 304 304 304 300 300 298 303 308 306 302 301 296 295 295 297 301 317 314 309 315 323 327 330 331 332 331 331
314 313 311 310 303 301 303 306 305 299 288 293 294 300 299 299 298 307 307 305 303 301 302 301 305 306 301 301 302 293 302 301 299 293 289 304 289 306 317 320 324 329 328 330 331
313 312 310 309 300 301 305 304 302 299 281 297 295 300 295 294 299 299 304 302 298 302 301 299 300 300 299 300 303 300 302 300 298 292 289 293 289 293 314 315 320 324 329 329 332
313 311 310 304 299 303 305 301 299 287 283 293 296 292 293 293 296 300 299 300 300 296 296 296 299 299 299 302 304 303 297 294 290 288 285 288 288 289 307 310 318 323 327 330 331
311 309 307 307 300 303 301 298 288 283 295 293 292 294 290 290 294 295 294 292 289 286 285 292 293 295 297 293 296 296 290 284 284 284 284 286 288 296 306 312 314 315 321 329 333
309 306 306 307 303 303 299 293 284 291 290 295 295 293 291 292 292 292 291 289 293 289 285 284 285 292 297 292 289 291 290 286 281 281 285 288 286 298 313 316 320 323 322 323 330
307 303 302 305 308 301 296 285 284 288 294 294 293 290 290 293 292 291 288 288 291 290 285 284 286 295 296 296 293 290 286 288 285 283 286 287 295 302 314 314 316 317 320 322 325
303 302 301 304 304 298 292 288 288 294 295 294 290 292 287 289 289 288 288 291 292 293 289 287 283 289 294 296 295 291 291 287 286 282 281 286 293 298 307 310 314 314 317 321 324
302 297 302 301 301 296 287 287 292 296 296 292 290 289 288 289 288 286 287 291 295 294 291 286 285 287 290 288 286 288 286 286 286 285 283 283 292 307 309 312 312 314 317 321 325
299 293 304 301 293 287 287 290 296 294 295 293 292 291 289 289 287 286 287 290 295 292 287 288 283 281 283 290 292 290 286 284 285 283 283 287 291 310 312 314 314 313 316 320 323
297 295 302 300 288 286 290 292 294 293 292 292 291 291 289 286 286 289 291 296 297 292 285 287 280 277 281 285 288 287 289 284 283 282 281 287 291 310 311 312 315 314 314 316 321
295 291 295 294 289 289 287 288 290 296 293 293 292 291 288 286 287 285 288 294 295 298 303 292 280 278 278 280 284 285 288 288 284 282 282 285 293 302 304 307 309 314 316 315 316
294 291 291 288 290 289 289 290 291 290 293 292 291 291 287 283 285 285 288 289 293 296 291 287 281 281 282 286 287 287 287 287 285 285 284 287 298 299 305 303 305 308 314 313 314
297 294 291 288 289 288 289 286 290 290 290 288 289 291 289 285 285 284 286 285 285 289 286 286 284 282 281 287 286 287 291 291 293 294 292 295 293 305 305 304 302 303 306 310 312
300 298 294 291 288 286 286 288 291 291 293 293 291 288 288 289 291 290 289 287 287 286 283 283 282 279 276 284 283 280 286 293 293 294 294 291 295 301 302 300 300 301 302 304 307

GFSSW_sfc_thetae_093.txt.gz
Theta_e
319 319 318 318 319 319 320 320 320 320 320 320 319 317 317 317 318 316 307 313 315 333 343 341 330 333 332 337 334 335 324 317 319 321 324 331 329 335 339 333 337 337 333 336 341
318 318 318 317 318 318 319 319 319 319 319 319 319 318 317 317 313 309 317 323 328 342 331 325 319 322 318 326 333 329 323 320 327 328 326 329 329 332 332 331 331 333 338 340 341
317 316 316 317 317 318 318 318 318 318 318 319 319 320 317 318 309 314 329 329 333 341 331 324 321 317 313 321 325 328 322 325 329 331 331 328 329 333 331 328 331 330 333 337 337
317 317 316 317 317 317 318 318 318 317 318 318 318 320 319 316 304 320 334 336 346 328 324 318 316 313 313 316 324 318 322 328 330 333 330 326 332 329 331 333 337 337 336 336 336
316 316 316 317 317 317 317 317 317 317 317 318 318 320 317 305 305 335 336 340 330 319 316 314 312 314 311 316 320 319 320 322 331 333 331 332 329 328 331 337 338 337 336 335 336
316 315 316 316 316 317 316 316 316 316 316 317 318 320 309 299 319 332 330 330 322 315 312 314 313 315 313 315 317 320 321 321 331 332 331 329 329 331 334 339 336 335 334 336 339
315 315 315 316 316 316 315 314 314 315 316 317 319 318 308 303 327 330 329 323 318 314 311 311 316 313 316 315 320 318 314 319 322 329 329 332 323 325 336 338 334 336 336 338 339
315 315 315 315 315 314 313 313 313 316 316 317 322 318 303 316 332 327 323 319 316 314 313 313 314 316 315 318 313 310 309 307 324 327 329 330 318 329 337 337 333 335 336 337 339
315 316 315 315 314 313 312 313 320 320 319 322 318 315 310 325 319 323 322 316 315 313 314 314 312 312 312 311 308 308 307 303 318 328 328 328 321 332 338 336 333 333 335 337 338
316 316 315 314 313 312 312 313 321 324 323 323 321 309 312 310 314 323 323 318 312 311 310 307 308 308 310 310 305 305 303 304 309 324 327 324 322 330 335 335 333 334 335 336 336
316 315 314 313 312 311 311 313 305 305 317 307 309 308 309 314 313 316 321 318 313 311 303 306 304 303 309 311 309 307 306 304 306 321 324 320 321 326 333 334 334 333 334 335 336
315 314 313 312 311 311 309 308 307 307 301 306 309 311 313 314 304 309 320 312 312 304 307 303 302 309 312 310 308 307 306 304 306 312 319 309 311 324 330 333 335 334 334 336 337
314 314 313 311 311 309 307 309 311 308 300 301 305 305 306 311 304 305 314 313 311 305 304 301 306 311 309 309 307 307 306 304 303 305 319 319 315 322 327 333 336 337 338 338 337
314 314 312 310 307 308 309 311 310 307 297 298 301 304 305 306 303 309 312 314 309 305 307 306 311 309 308 307 309 306 308 306 305 303 300 315 300 316 323 325 331 334 336 336 338
314 313 311 309 308 309 311 310 307 306 286 300 301 307 303 303 306 304 309 309 307 307 308 305 307 308 307 308 310 306 309 307 305 304 301 307 302 306 323 319 320 330 335 337 337
312 311 310 307 307 310 310 308 307 295 286 297 301 299 300 301 302 304 305 307 306 305 305 301 304 305 307 307 309 309 304 302 302 302 297 299 300 305 310 314 319 324 328 336 338
311 309 308 309 309 310 309 308 296 290 299 296 297 299 298 297 299 300 299 298 298 299 300 298 298 301 302 302 305 306 303 296 295 294 295 298 303 308 316 319 320 322 326 330 334
308 307 309 311 313 311 308 303 291 294 295 299 299 299 295 298 297 298 297 296 299 297 295 295 292 298 301 299 300 303 303 297 291 292 295 298 300 307 317 321 323 325 326 329 331
307 311 311 311 312 310 306 293 291 294 297 296 298 295 295 297 297 297 295 295 297 297 295 294 293 299 300 301 300 299 299 300 297 295 296 298 304 312 317 318 320 320 322 323 332
313 310 309 309 310 307 301 292 295 298 298 298 293 295 293 294 295 295 294 296 296 298 298 296 292 296 298 300 301 300 299 297 299 292 292 298 301 303 310 313 316 316 319 323 327
309 307 310 307 309 304 295 295 297 300 299 297 294 293 293 293 294 293 292 295 297 298 299 297 296 294 298 294 293 298 298 297 299 296 294 293 300 311 311 313 312 313 316 321 325
307 302 310 309 301 297 296 296 296 297 299 298 298 295 293 293 292 292 292 295 300 297 294 296 295 291 292 296 297 297 294 294 297 295 296 301 299 314 313 313 316 313 314 317 322
306 304 310 309 296 296 297 297 298 297 296 296 295 296 295 293 291 293 295 298 301 299 294 295 291 289 290 294 296 294 294 295 294 296 296 296 298 311 311 310 311 313 315 316 318
305 300 304 302 298 297 296 295 295 298 296 298 296 296 295 293 295 293 294 297 299 301 302 298 291 289 290 291 293 291 291 293 294 295 294 297 301 305 305 305 307 311 315 316 318
303 298 298 296 297 297 297 296 294 294 297 298 296 295 294 292 293 292 294 296 298 299 297 297 290 291 291 292 292 290 290 291 293 294 294 300 300 302 303 304 305 307 311 313 316
306 303 299 297 296 297 295 295 294 294 295 294 294 295 296 293 294 292 294 295 294 297 295 295 291 292 289 291 292 291 294 294 295 297 300 303 300 304 306 306 307 308 309 308 310
307 305 304 295 295 295 296 295 295 296 297 297 297 296 295 296 298 297 297 297 297 296 293 294 292 290 286 289 290 287 293 296 297 299 301 300 300 304 302 302 304 305 306 307 308

GFSSW_sfc_thetae_096.txt.gz
Theta_e
318 318 318 319 318 319 319 320 320 319 320 320 320 318 317 317 317 319 310 316 318 335 346 339 335 339 343 339 341 340 327 321 322 323 326 334 331 337 342 336 337 338 336 337 340
318 317 317 318 318 318 319 319 319 319 319 319 319 319 318 317 317 311 326 323 327 341 337 326 324 332 330 333 337 334 327 323 329 331 329 333 333 335 335 334 334 336 338 339 340
318 318 317 317 318 318 318 319 318 318 318 318 318 320 319 320 313 315 334 329 335 343 335 326 324 322 316 325 332 332 328 329 332 334 334 330 330 334 333 330 333 335 335 337 338
317 317 317 318 318 318 318 318 318 317 318 318 317 320 319 320 306 326 333 333 338 335 329 324 320 315 313 314 330 326 329 330 333 334 331 328 331 329 333 334 339 341 338 337 336
317 316 316 316 317 318 317 317 317 316 317 317 318 320 320 311 310 335 337 344 333 329 323 319 316 314 312 318 328 325 325 326 331 335 333 333 330 329 333 339 341 340 337 336 336
316 316 316 316 316 317 316 316 315 315 316 317 318 321 315 304 325 330 333 329 325 323 319 319 315 317 314 319 326 329 326 324 329 331 334 329 328 332 337 338 338 336 335 335 336
316 316 315 316 316 316 315 315 314 315 315 317 319 321 312 308 330 327 332 326 324 322 317 319 318 316 317 318 326 325 319 320 324 329 329 333 326 326 340 339 336 334 334 335 338
316 315 316 315 315 315 314 314 315 316 316 318 322 320 307 324 333 325 326 323 322 321 320 320 320 319 318 324 322 320 318 315 323 327 331 331 319 329 336 336 335 333 333 335 340
315 316 316 315 314 314 313 314 321 321 319 321 323 321 310 325 322 323 323 317 317 318 318 318 318 317 319 316 317 318 313 312 318 327 329 329 321 330 340 337 337 335 334 336 339
316 316 315 314 313 313 312 314 323 324 324 326 323 315 317 314 322 322 325 321 317 314 313 312 313 312 315 314 308 313 313 311 315 324 329 325 323 331 336 337 336 338 337 338 338
316 316 315 314 312 311 315 320 314 317 319 311 312 311 314 317 323 321 322 320 316 312 307 309 307 305 310 315 317 317 314 311 316 327 326 323 323 330 336 336 335 336 338 337 339
316 315 314 313 311 312 317 313 312 313 306 311 311 312 315 316 310 318 322 314 309 304 309 305 304 310 315 316 315 315 311 311 312 322 323 312 314 321 333 333 337 337 335 336 338
316 314 313 312 312 314 316 313 317 315 306 306 310 310 311 314 310 313 318 316 309 306 306 304 307 313 315 314 312 315 312 310 310 312 316 316 318 324 328 333 335 337 338 339 338
315 314 313 311 310 319 315 317 318 316 301 301 305 308 311 312 306 316 319 317 312 306 307 306 312 312 314 312 313 309 315 311 309 308 308 319 304 318 326 329 332 336 336 339 339
315 313 311 308 317 316 316 318 317 312 290 303 305 313 310 307 308 309 318 314 310 307 308 306 310 311 310 313 315 311 315 313 310 308 308 310 308 316 325 322 325 334 337 340 343
313 312 310 313 318 317 318 318 313 300 289 300 303 303 304 308 307 309 310 314 315 311 310 310 315 315 314 315 315 314 312 311 310 309 301 310 308 311 317 319 324 329 333 338 339
311 309 311 316 315 320 320 314 300 295 302 298 299 303 304 304 305 306 305 306 305 303 303 306 308 307 309 310 314 311 308 300 300 299 299 308 306 313 319 322 324 327 330 333 338
308 308 313 318 319 320 317 307 294 297 299 303 301 301 300 303 303 303 303 303 304 305 305 299 297 305 305 307 308 308 308 301 295 297 300 306 304 309 321 325 327 325 327 332 336
307 321 321 318 321 318 311 301 298 299 301 300 301 298 299 301 301 302 302 301 302 304 301 301 297 303 304 306 306 308 304 309 303 306 301 304 312 318 320 322 324 321 323 326 335
322 319 316 317 319 315 308 296 300 302 302 302 297 300 297 299 299 300 300 301 301 303 306 303 297 301 302 305 306 307 310 302 303 297 296 301 306 308 313 315 319 318 318 323 328
318 312 316 318 317 313 303 300 301 304 303 301 299 298 299 298 300 298 296 300 302 302 305 305 303 299 303 301 302 304 304 306 306 304 299 298 303 313 313 315 315 315 317 320 324
315 308 317 318 309 310 303 301 298 302 305 303 303 301 299 298 298 298 297 299 303 302 300 303 303 299 299 301 302 303 303 305 301 301 304 304 304 315 314 316 316 315 316 317 321
313 311 318 316 303 301 303 301 302 300 301 301 300 302 302 299 296 298 299 301 303 302 301 302 301 295 296 300 301 300 302 304 305 306 303 300 304 313 313 314 316 315 317 317 318
312 305 309 310 310 303 301 299 298 302 301 302 301 302 301 299 302 299 298 299 303 302 302 302 301 297 295 297 301 298 297 300 303 301 303 303 304 305 309 310 313 316 317 318 319
312 304 306 303 303 304 303 301 298 297 301 302 300 300 300 298 299 298 299 300 301 301 302 303 297 299 297 297 297 296 296 296 299 302 301 307 305 306 308 310 313 316 318 317 317
310 308 309 305 303 303 299 299 297 298 299 298 299 299 301 299 300 298 300 301 300 301 302 302 297 298 294 295 295 295 297 298 298 301 305 307 301 309 311 311 311 312 314 316 316
318 314 310 298 301 301 300 299 299 300 300 302 301 301 299 300 303 304 304 303 303 302 298 298 298 296 293 294 294 291 297 298 300 303 307 304 307 309 309 310 311 312 312 312 313

GFSSW_sfc_thetae_099.txt.gz
Theta_e
319 319 319 319 319 319 319 320 320 320 320 320 320 320 319 318 318 318 312 321 323 340 346 338 339 335 340 338 339 344 327 320 322 323 329 334 332 339 344 336 337 340 337 338 342
319 318 319 319 319 319 319 319 319 320 320 320 320 320 321 319 317 314 329 333 332 347 340 332 328 332 332 334 335 334 323 325 331 331 331 335 335 337 335 335 336 337 338 339 341
318 318 318 318 319 319 319 319 319 319 319 319 319 319 322 320 316 317 339 337 336 343 337 331 328 330 325 330 332 333 323 332 333 333 334 333 334 334 335 331 335 332 334 338 340
318 318 318 318 318 318 319 319 318 318 318 319 319 320 322 323 309 331 335 337 338 337 334 325 322 321 317 318 331 326 331 331 334 334 334 332 334 330 335 335 340 337 338 338 338
318 317 317 317 317 317 318 317 317 316 317 318 319 320 321 314 315 335 335 334 326 333 329 322 319 318 314 317 326 328 328 330 336 335 334 333 328 330 333 339 343 343 338 336 337
317 317 316 317 317 317 317 317 316 316 316 318 320 320 318 309 327 330 327 322 324 330 325 323 320 320 317 318 324 330 328 328 332 334 334 330 329 332 336 341 341 340 335 336 336
317 316 316 317 317 317 316 316 315 315 316 317 320 321 317 313 329 331 328 322 327 327 321 323 321 318 319 318 329 330 325 325 329 332 330 334 327 327 337 339 337 336 335 336 337
316 316 317 317 316 316 315 315 316 317 316 318 321 321 312 323 330 328 328 323 326 327 323 323 321 319 318 323 326 325 324 317 325 327 331 331 320 333 338 337 334 334 334 335 336
317 316 316 316 316 315 314 315 321 322 320 320 322 322 313 330 322 326 325 320 321 322 322 321 319 316 318 316 316 322 315 315 319 329 329 326 322 331 335 337 333 333 333 334 337
317 317 316 316 314 314 313 314 321 322 322 326 327 318 321 315 321 323 325 321 317 317 316 314 314 312 314 315 308 314 315 317 318 324 328 324 322 330 333 335 332 333 333 335 337
317 317 315 315 313 312 315 323 319 319 320 317 312 315 314 321 324 320 324 321 317 314 309 311 308 306 311 313 316 318 316 315 320 326 325 321 322 328 335 335 335 333 332 333 335
317 316 315 315 313 312 316 317 315 316 309 316 315 316 318 321 314 317 322 316 313 306 311 308 304 311 314 315 315 318 315 315 322 327 323 319 319 326 331 332 335 337 335 335 337
316 315 314 313 313 314 320 316 321 319 309 309 313 314 314 316 312 314 318 316 310 307 308 306 308 313 313 313 314 317 314 314 314 323 319 315 316 321 328 332 336 338 338 339 337
316 315 313 312 307 321 317 320 321 319 304 304 307 311 314 315 311 320 320 317 311 306 309 309 312 311 312 313 315 311 317 316 315 314 310 318 305 318 325 330 334 337 338 337 337
315 314 312 308 320 317 319 322 321 317 293 305 308 316 314 310 311 313 320 318 312 308 310 307 308 309 311 313 315 312 318 315 314 312 315 312 311 312 323 323 329 335 338 338 338
314 313 312 316 321 320 321 321 317 301 293 301 307 305 306 308 309 314 314 317 318 312 311 310 314 315 315 317 317 318 315 316 314 311 305 314 311 310 317 321 328 334 337 339 339
312 310 312 322 318 322 323 317 301 296 305 301 301 305 304 305 306 308 307 307 308 304 304 309 310 316 315 314 316 315 312 303 302 302 302 314 311 314 322 325 326 328 331 337 341
309 309 316 321 324 323 320 310 297 301 301 305 304 304 302 306 306 307 307 305 310 310 306 303 302 309 315 314 311 312 311 304 297 299 302 311 309 314 325 325 326 326 329 334 338
308 322 323 325 324 322 314 301 300 302 304 302 303 300 301 303 304 305 305 305 307 309 304 303 302 310 310 314 311 311 307 312 306 308 303 308 315 320 324 325 324 322 324 327 336
321 321 322 323 323 319 309 298 303 306 305 305 299 301 298 301 301 302 302 306 305 308 311 307 301 307 308 311 312 310 314 305 306 300 298 306 310 311 316 318 320 318 319 324 332
320 314 320 325 321 313 303 304 304 307 307 304 302 300 300 301 302 301 301 304 306 307 310 308 306 303 306 306 306 308 307 309 309 307 301 301 308 320 318 316 318 317 318 321 325
316 309 321 321 309 310 306 306 299 305 308 306 306 303 301 301 301 301 300 303 305 307 305 308 306 301 302 307 308 309 308 309 303 303 306 305 303 318 320 320 319 317 317 319 322
314 313 319 317 305 304 306 304 305 304 304 305 304 305 306 302 299 302 302 304 305 305 305 307 303 299 299 303 306 305 308 309 309 309 305 302 304 319 318 319 319 317 317 318 319
314 308 311 314 312 306 303 302 301 304 303 305 305 307 305 303 306 301 301 303 305 304 305 308 303 302 296 300 304 302 303 306 307 303 305 306 306 312 315 316 316 317 319 320 320
315 307 311 306 306 306 306 303 300 300 303 305 303 304 304 302 302 302 303 303 304 303 306 306 300 302 302 301 302 302 302 301 303 305 303 310 308 313 317 317 318 319 319 320 320
313 310 309 308 306 306 300 302 300 300 302 300 301 302 303 303 304 302 304 304 304 305 306 306 301 302 300 300 300 299 301 301 302 304 305 312 307 316 318 321 320 319 318 319 319
319 315 313 301 304 303 304 302 301 302 303 304 303 303 302 303 307 308 309 308 307 305 303 304 302 300 296 301 299 296 300 302 303 304 306 307 312 315 314 316 317 318 318 317 318

GFSSW_sfc_thetae_102.txt.gz
Theta_e
320 319 319 319 320 320 320 320 321 321 321 321 321 321 321 322 321 316 308 320 324 344 344 327 327 330 335 334 340 341 323 320 322 325 329 336 332 339 343 335 337 338 334 337 341
319 319 319 319 319 319 320 320 320 320 320 320 320 321 321 323 316 312 328 341 342 345 330 327 328 332 327 331 334 332 321 322 331 332 331 333 332 335 335 334 335 331 336 338 339
319 319 318 318 319 318 319 319 319 319 320 319 320 321 321 322 314 313 342 341 341 339 332 333 332 328 325 329 330 331 323 331 333 335 334 334 335 338 334 331 333 329 332 336 337
318 319 318 318 318 318 318 319 319 318 319 319 320 321 321 320 312 326 343 342 340 320 332 330 325 321 324 322 328 324 331 333 335 335 333 333 336 334 335 335 335 335 336 336 335
318 317 318 317 317 318 318 318 318 318 318 318 319 321 320 314 313 333 337 336 318 318 329 326 319 320 318 319 321 327 329 334 334 335 334 334 331 333 334 339 339 336 336 335 334
317 317 317 317 317 318 317 317 317 316 317 318 319 320 315 310 327 330 324 318 315 322 329 325 320 321 318 317 317 327 329 330 333 333 332 328 329 330 335 340 339 335 334 335 334
317 316 317 317 317 317 317 316 316 316 317 318 319 320 316 314 328 329 324 317 319 326 326 325 324 319 317 315 322 328 324 326 331 330 330 332 325 326 338 339 338 334 334 333 334
317 316 317 317 317 316 316 315 316 319 319 318 320 320 314 323 328 327 325 319 323 329 327 325 324 318 317 320 322 321 324 316 329 331 332 329 319 328 337 336 334 333 332 333 334
316 317 317 317 316 315 315 315 319 323 322 319 318 318 315 329 322 326 324 318 321 325 324 323 319 314 315 312 313 320 313 315 319 330 329 327 321 328 335 336 331 331 331 331 333
318 318 317 316 315 314 314 314 322 320 321 321 325 316 320 315 321 324 325 322 319 319 317 315 313 309 310 311 305 311 314 317 317 325 328 324 322 328 331 333 331 331 331 331 333
318 317 317 316 316 314 314 322 318 319 320 316 315 317 319 320 323 320 322 318 317 315 309 312 306 303 308 312 315 316 316 315 319 329 326 323 323 324 329 334 330 329 330 331 333
317 316 316 315 314 313 314 318 315 317 309 317 316 316 318 321 314 317 323 313 310 306 311 308 303 309 311 313 312 312 313 315 321 327 324 322 319 325 329 330 333 330 331 332 333
316 316 315 314 313 312 317 318 320 319 308 311 314 314 315 319 314 314 318 316 311 306 307 306 307 311 310 310 310 311 313 312 318 322 320 319 315 316 324 326 331 335 334 335 336
316 315 314 312 308 319 317 320 320 319 304 305 307 312 314 315 310 319 318 315 311 307 307 308 312 309 309 308 312 309 319 316 320 315 310 322 307 317 323 325 329 333 337 335 336
316 315 313 311 317 317 320 321 320 316 293 306 308 317 314 310 312 314 319 315 310 307 308 305 308 307 307 310 314 312 318 316 315 314 314 314 311 315 322 319 326 331 336 338 337
315 314 313 314 317 320 321 321 316 300 293 302 307 306 307 309 310 314 313 317 317 312 309 309 313 312 311 315 316 317 315 316 314 311 306 313 312 313 315 320 328 334 336 338 339
313 311 312 321 317 323 322 316 300 295 306 301 303 305 305 304 306 309 308 308 306 304 304 307 308 312 314 311 316 313 311 303 302 301 300 315 312 316 321 323 325 330 332 336 340
310 308 315 321 325 324 320 309 295 301 302 307 305 304 301 304 306 306 306 304 309 310 305 301 301 309 315 313 311 311 311 304 297 298 301 314 309 315 325 326 327 329 331 335 339
309 320 320 325 326 323 313 299 297 301 306 302 304 300 300 304 306 304 304 305 307 311 303 302 303 313 314 316 314 310 307 313 306 307 302 310 315 320 323 323 324 324 327 330 335
318 318 321 323 322 319 309 296 306 307 306 305 299 302 299 302 303 303 303 308 306 310 311 307 302 310 310 313 313 311 314 304 306 298 298 307 310 311 316 318 319 319 321 325 331
317 313 321 323 320 311 303 302 305 308 307 304 303 301 301 300 302 301 301 306 308 308 310 308 306 304 309 305 305 307 306 308 308 306 300 302 307 320 319 319 317 318 319 321 326
316 308 322 321 308 310 305 306 301 306 308 306 306 304 303 303 301 300 300 304 307 307 304 309 305 301 303 309 310 309 308 309 303 303 306 305 305 320 321 321 320 318 317 320 324
314 314 318 316 304 305 307 304 306 305 305 305 304 305 305 303 299 302 303 306 306 306 304 307 303 298 300 304 307 305 308 309 309 308 304 301 306 320 320 319 319 319 319 318 323
314 307 311 311 311 307 303 303 302 305 305 306 306 307 304 303 304 301 302 304 306 306 311 310 302 301 295 300 304 302 305 307 306 302 304 307 307 311 314 315 317 320 321 320 320
315 308 311 305 306 306 306 304 300 300 303 305 304 304 304 300 301 302 304 304 305 303 307 305 299 302 303 304 303 304 303 305 303 305 303 308 309 311 314 316 318 320 320 319 320
311 310 309 307 306 306 300 303 300 300 303 301 301 303 305 303 303 301 304 304 303 306 305 306 299 302 300 303 302 300 303 303 303 303 311 312 310 318 319 319 318 318 318 318 319
317 314 312 302 305 304 305 304 302 303 304 305 304 303 302 305 308 309 310 309 308 306 304 304 302 299 295 301 300 296 301 302 303 305 307 308 313 318 315 316 317 318 318 318 318

GFSSW_sfc_thetae_105.txt.gz
Theta_e
319 319 319 319 319 320 320 320 321 321 321 321 321 321 322 322 322 316 305 314 318 334 343 322 318 317 321 328 335 339 322 317 321 323 327 336 333 340 341 332 333 334 332 334 340
319 319 319 318 319 319 319 320 320 320 320 320 320 321 322 322 316 308 321 336 344 342 316 318 315 319 317 322 326 328 319 319 329 331 330 334 334 336 334 332 333 330 335 336 340
318 318 318 318 319 318 318 319 319 320 319 319 320 320 322 320 311 309 339 336 343 340 316 325 323 323 320 321 323 326 320 323 325 333 334 331 334 338 334 326 327 327 331 333 337
318 318 317 318 318 317 318 318 318 319 319 319 319 320 322 316 308 321 349 341 345 321 314 319 324 319 315 316 325 327 330 330 334 335 333 333 335 333 333 333 333 332 333 333 334
317 317 317 317 317 317 318 318 317 317 318 318 319 320 317 310 308 328 344 342 320 312 311 321 321 316 313 318 320 325 328 331 335 334 334 336 332 332 332 339 335 334 334 331 331
317 317 316 317 317 318 317 317 316 316 317 318 319 320 313 303 328 330 323 320 313 308 314 323 322 318 314 315 310 325 331 331 333 332 332 331 332 331 335 341 333 332 331 330 330
316 316 316 316 317 317 317 316 316 316 317 318 319 318 310 308 325 324 319 311 310 310 319 327 327 314 314 309 314 326 322 327 329 328 328 331 323 326 338 339 335 331 331 331 330
316 317 317 316 317 316 315 316 316 317 318 319 319 315 306 321 318 324 319 313 312 315 322 326 322 315 308 312 312 310 320 315 325 328 329 328 316 328 337 336 335 333 331 330 331
316 316 316 317 317 316 315 315 317 323 324 320 313 311 309 325 316 321 320 313 312 316 321 327 316 307 309 304 301 307 306 314 321 329 326 325 318 328 334 334 333 331 329 328 330
317 317 316 317 316 315 315 315 318 319 319 318 316 309 313 314 316 320 321 317 314 316 316 311 306 301 301 298 294 301 305 316 318 325 326 323 322 326 331 332 331 329 327 327 329
316 316 316 316 315 314 313 315 311 312 316 309 310 314 315 318 319 318 320 316 313 310 303 305 298 295 299 303 306 307 310 313 320 327 322 320 320 321 329 331 331 328 324 326 328
315 315 315 315 314 314 310 310 315 309 304 314 314 316 318 315 311 315 317 309 307 302 306 301 297 303 306 307 306 306 307 316 323 327 322 321 319 324 328 330 331 331 325 327 327
316 315 314 314 313 308 311 314 320 312 300 306 312 311 310 314 310 310 313 310 304 301 303 299 303 308 305 304 303 304 301 314 317 319 323 318 314 317 325 328 329 330 333 330 329
316 316 315 313 310 314 312 318 319 313 295 303 305 308 312 312 308 317 316 311 307 301 302 301 307 306 303 302 304 297 313 319 315 312 307 317 301 313 319 321 324 327 332 330 330
316 315 314 312 308 310 316 314 312 309 288 304 304 314 311 305 306 310 316 311 305 304 303 300 303 303 302 304 307 303 321 318 315 310 312 311 305 311 318 317 321 326 326 330 332
315 314 312 311 311 312 316 318 310 294 291 300 306 304 303 305 306 312 311 311 311 307 306 303 308 306 305 308 308 313 310 314 313 310 303 310 307 308 314 318 320 324 325 332 333
313 312 309 316 311 318 318 311 294 289 306 300 299 302 301 300 303 308 306 301 299 295 297 302 303 307 309 303 308 309 301 295 296 299 299 310 306 309 319 318 320 320 325 336 337
310 309 311 315 317 320 315 306 294 301 301 307 304 302 298 301 301 304 302 299 305 303 299 295 293 303 309 304 302 303 300 296 295 293 294 306 303 311 321 326 328 329 332 334 337
309 316 315 318 318 317 309 297 297 301 305 303 302 298 296 303 303 303 299 299 302 303 296 298 297 308 310 311 309 304 299 305 298 298 294 305 313 320 322 322 324 325 328 329 331
310 312 313 320 323 316 305 299 302 308 307 303 297 300 297 299 300 299 300 304 305 306 306 303 294 305 309 310 309 303 304 296 296 290 289 302 308 308 313 316 318 319 322 326 330
313 306 317 322 315 307 300 301 306 309 305 303 301 300 300 298 300 299 300 304 307 304 304 300 297 301 305 300 300 301 298 299 298 296 291 297 301 318 315 315 315 317 320 324 327
312 303 318 319 302 306 301 305 304 304 307 305 305 304 301 301 299 297 300 301 305 303 299 301 299 297 298 305 305 302 299 299 294 293 300 303 302 320 318 316 316 315 319 323 328
307 311 317 310 297 302 305 303 304 303 303 304 303 304 303 300 298 301 302 306 305 304 298 300 295 291 294 297 300 297 301 298 298 298 296 296 303 319 318 317 317 315 318 321 324
309 306 308 307 307 303 300 301 300 304 303 304 304 304 302 299 301 299 301 304 304 302 315 308 297 295 289 293 299 296 300 301 297 293 302 305 306 310 313 313 316 316 317 319 321
313 306 309 302 302 302 303 302 301 299 303 304 304 303 300 297 299 300 303 300 303 307 304 299 294 297 297 301 301 299 299 301 296 299 301 305 306 310 313 314 316 318 317 316 319
311 305 307 303 305 302 300 299 300 300 302 300 299 302 301 300 300 299 302 298 297 301 298 301 294 297 294 300 300 297 299 301 300 309 309 309 306 314 315 317 317 316 316 315 314
317 316 311 303 301 300 301 301 301 302 303 304 302 302 300 300 303 302 303 304 303 299 299 298 297 294 290 298 297 292 296 298 298 300 311 305 309 314 313 314 315 316 316 315 314

GFSSW_sfc_thetae_108.txt.gz
Theta_e
318 318 319 318 318 318 318 318 319 320 320 321 321 320 321 322 322 317 303 308 314 338 344 323 327 316 314 318 334 339 321 314 317 321 325 335 329 336 341 330 331 333 331 335 342
318 318 318 318 318 318 318 318 318 320 319 319 320 320 321 322 316 309 318 328 336 341 319 312 313 312 309 314 317 327 316 319 326 328 328 333 332 332 330 327 329 330 337 340 341
318 318 318 317 318 318 318 318 318 318 319 318 319 319 320 321 309 308 337 337 339 344 314 312 318 315 310 316 320 324 317 325 324 327 328 333 332 337 328 327 327 327 333 337 338
317 317 317 317 317 317 317 318 318 317 317 317 319 319 320 313 306 320 346 338 346 325 312 310 313 313 314 314 321 320 329 330 333 335 331 331 335 331 332 331 332 332 335 337 337
317 317 317 317 317 317 317 317 317 317 316 317 319 319 315 307 305 323 350 341 332 314 308 309 316 316 312 314 317 325 329 331 334 335 335 336 332 330 330 334 335 334 337 336 334
317 317 317 316 317 317 317 316 316 316 316 316 319 319 309 297 321 331 327 319 311 306 306 312 320 321 314 312 311 316 331 332 333 332 334 331 330 331 331 335 334 331 330 334 334
316 316 317 316 317 317 316 315 315 315 316 316 318 317 310 304 323 325 318 311 308 305 312 312 318 319 312 307 312 332 324 325 330 330 330 331 323 325 337 339 330 329 330 330 335
317 317 316 316 316 316 316 316 316 317 319 317 319 312 300 318 315 320 316 310 309 305 308 318 322 318 308 308 309 318 321 317 327 326 330 325 315 328 336 335 329 329 329 329 336
316 316 316 316 317 317 316 316 317 320 324 320 308 305 301 323 312 313 316 311 308 305 309 318 318 309 306 301 297 299 306 313 317 327 325 323 316 327 335 335 332 331 328 328 333
316 315 315 316 316 315 315 315 316 319 319 317 315 305 311 311 311 317 317 313 307 308 310 311 304 299 298 296 291 295 304 312 317 324 324 320 318 327 333 333 330 330 332 329 331
316 315 314 313 315 313 309 310 308 307 311 303 306 311 314 314 316 315 318 310 308 307 301 303 297 294 298 299 300 300 306 316 321 325 323 318 318 324 329 330 326 330 331 327 331
316 315 314 313 314 312 307 304 311 307 299 313 312 314 316 313 308 313 316 307 305 300 302 299 295 301 303 303 301 300 301 311 320 323 321 319 317 323 327 328 329 329 329 325 331
316 315 314 314 313 305 306 308 314 310 296 303 311 309 309 311 308 309 310 306 303 299 300 296 301 306 304 301 299 298 297 312 316 321 322 318 315 317 325 328 330 332 332 333 329
316 315 314 312 308 308 307 312 312 309 290 298 300 308 309 310 306 314 312 308 303 299 300 298 306 304 301 300 299 293 303 317 315 312 304 317 302 311 319 323 327 330 330 332 328
316 315 313 310 303 303 310 308 312 303 285 303 303 311 307 304 304 308 314 308 303 302 299 297 300 300 300 301 302 299 320 317 314 311 309 310 305 304 318 318 322 327 329 331 332
315 314 312 308 305 307 309 310 304 291 286 299 304 302 300 302 303 308 309 307 308 303 301 301 307 302 301 305 304 319 316 313 312 307 299 308 305 307 311 316 322 327 329 332 331
312 311 309 312 304 310 310 304 292 286 303 299 297 299 299 297 300 305 302 299 296 294 293 301 303 303 304 299 303 307 304 293 295 296 295 306 307 307 316 320 323 325 328 330 331
310 308 307 311 310 310 308 300 290 299 298 303 301 299 295 297 295 302 300 296 299 298 293 292 293 299 304 301 299 300 300 294 290 291 296 306 303 313 318 322 323 326 330 332 335
308 304 307 310 312 310 303 292 292 297 302 301 299 295 291 300 300 300 297 295 298 298 293 292 295 305 307 306 304 299 300 302 297 298 297 306 312 318 321 320 325 325 329 329 332
304 304 304 312 315 308 298 294 297 305 305 302 294 298 293 296 296 297 297 301 301 302 298 297 292 298 306 306 306 304 305 297 296 289 290 300 306 307 314 318 321 321 323 327 332
306 298 308 311 312 301 292 295 303 308 307 299 298 296 296 295 296 295 298 302 301 300 301 298 293 296 301 297 298 299 297 298 296 293 289 294 302 317 316 317 316 318 323 325 329
305 298 310 310 299 295 293 300 303 300 303 302 302 299 297 298 296 295 297 301 307 301 296 297 293 290 295 303 302 300 297 296 292 292 296 298 304 317 317 317 317 319 321 326 328
301 302 313 306 292 292 299 300 300 299 298 299 300 301 302 297 293 298 301 308 308 300 293 297 290 288 292 295 301 295 298 295 293 293 296 295 303 317 315 314 317 318 322 324 325
302 300 301 299 297 296 294 295 295 301 300 300 300 299 300 296 297 297 300 304 304 301 315 304 290 291 287 291 296 295 296 297 293 293 299 301 307 311 312 311 314 317 321 323 324
306 302 299 295 296 294 296 296 296 294 299 298 297 298 296 291 295 296 300 300 301 307 301 297 292 293 297 298 298 298 296 297 297 298 294 304 306 310 312 312 314 317 319 320 322
303 301 303 297 295 296 295 292 296 296 297 294 296 298 299 294 295 294 296 294 294 298 296 295 293 296 295 299 298 295 297 299 308 308 307 307 306 314 316 316 315 315 317 317 319
311 308 305 300 299 294 293 295 298 298 299 300 301 297 296 297 300 300 302 299 297 296 295 294 293 292 290 296 294 289 294 294 299 309 309 303 307 314 313 314 314 314 314 314 317

GFSSW_sfc_thetae_111.txt.gz
Theta_e
318 318 318 318 318 318 318 318 318 318 319 319 319 319 320 321 321 317 303 306 311 337 347 334 327 318 312 315 330 339 319 314 317 321 323 331 327 336 336 328 331 332 331 333 343
318 318 317 317 317 318 317 317 317 318 318 318 318 319 320 321 313 309 316 324 331 346 318 314 314 313 306 311 319 327 314 318 326 329 326 330 331 331 327 326 327 328 334 340 342
317 317 317 317 317 317 317 317 317 317 317 317 317 319 319 319 304 305 330 331 339 337 313 311 315 312 306 312 314 325 316 325 326 331 332 329 330 333 326 323 326 326 332 338 338
317 317 317 317 317 317 317 317 317 317 316 316 317 319 320 310 295 317 343 338 340 331 313 308 308 308 309 312 319 318 325 327 331 330 327 329 332 328 328 329 333 335 337 337 335
317 317 317 317 317 317 317 317 316 316 316 316 316 318 313 303 301 312 349 338 334 315 307 307 310 313 310 313 320 320 326 331 334 332 332 334 331 330 329 333 336 337 337 335 335
318 317 317 317 316 317 317 316 315 315 315 316 316 318 306 290 309 328 328 328 320 307 305 310 316 318 315 312 311 316 328 332 333 333 333 328 328 328 330 336 334 334 334 335 335
317 317 316 317 316 317 316 315 315 315 316 315 317 316 308 299 322 323 320 313 308 304 303 308 316 317 315 310 311 329 322 328 330 331 329 331 324 322 331 331 331 333 333 334 334
317 316 316 316 316 316 316 316 316 316 317 316 318 310 299 311 313 318 313 309 307 302 305 311 316 317 314 312 317 320 319 315 327 327 329 325 314 326 336 333 329 331 333 332 333
317 316 315 315 315 316 316 315 317 318 321 319 306 303 299 318 311 311 315 309 305 302 303 313 315 310 305 299 296 299 303 311 316 328 327 322 315 325 334 330 328 327 329 332 332
316 315 315 314 313 314 314 315 317 319 318 317 314 303 308 309 309 312 315 310 304 305 307 307 304 298 296 295 290 294 302 310 313 321 324 319 317 326 331 328 326 330 327 330 333
316 315 315 314 312 313 308 310 307 305 308 300 302 309 312 313 314 313 315 307 307 306 300 302 296 293 297 298 299 298 297 307 320 324 322 319 317 323 328 329 328 329 330 330 332
317 315 314 313 313 312 305 301 306 305 300 310 309 311 314 311 307 309 313 304 303 299 301 298 293 300 302 301 300 298 297 310 319 322 321 319 318 322 326 326 328 327 329 328 332
316 315 314 314 312 304 303 306 310 308 296 301 309 308 307 309 306 306 310 305 301 298 298 296 299 304 302 299 299 295 297 302 314 320 322 319 315 319 324 327 328 329 332 332 329
316 315 314 312 304 306 304 307 309 307 290 296 299 306 307 308 304 313 311 306 301 299 299 298 303 303 299 299 299 290 300 304 316 311 305 317 302 314 318 321 324 326 328 329 329
316 315 313 310 302 302 305 307 306 301 284 301 300 309 305 305 305 306 311 307 301 299 297 296 297 298 298 299 301 297 307 303 314 307 306 308 304 303 317 317 321 323 326 331 329
314 314 312 306 303 307 310 306 301 290 287 299 302 298 302 300 301 307 307 307 307 302 300 300 304 302 300 302 302 318 314 311 308 305 297 305 306 304 312 316 320 325 328 332 331
312 311 309 311 304 307 307 304 292 286 300 298 297 297 297 297 298 303 301 298 295 291 290 298 300 302 303 296 302 313 301 294 295 294 294 302 306 307 315 321 324 325 328 332 332
310 308 307 310 308 309 306 299 288 297 296 302 300 297 294 295 295 299 297 295 297 295 291 290 291 298 302 299 296 306 300 294 289 291 294 304 300 308 319 322 324 329 330 332 332
308 303 305 308 311 308 302 291 291 296 300 300 296 294 293 299 298 299 295 295 297 296 291 290 293 303 303 303 302 298 297 300 295 293 296 302 311 317 320 320 323 325 328 329 333
303 302 302 312 313 307 298 293 296 303 303 300 292 295 291 295 296 295 295 300 298 299 297 295 291 297 303 304 303 300 302 294 292 288 289 298 302 307 312 316 320 320 323 326 330
303 298 304 312 310 302 294 294 300 305 306 297 295 294 293 294 294 293 295 300 300 299 300 295 292 295 299 296 295 298 295 294 294 291 290 292 299 315 315 316 317 321 324 326 329
299 295 307 308 300 293 292 298 302 297 302 300 300 297 295 296 294 293 294 299 305 300 294 295 291 290 294 300 300 297 295 294 291 290 297 296 302 317 319 318 318 319 324 327 329
298 297 308 305 294 292 294 298 297 297 297 298 298 299 297 293 291 296 298 304 304 299 293 294 289 288 292 296 297 294 295 292 291 295 295 295 302 316 317 317 319 318 324 325 326
299 296 299 299 295 293 294 294 293 299 297 298 298 298 295 294 295 293 298 302 302 298 314 302 289 290 287 289 292 292 296 294 291 294 297 301 307 311 312 312 316 320 322 323 322
303 299 297 294 294 292 293 294 294 293 296 297 297 298 294 291 293 295 298 298 299 306 299 295 289 290 296 296 295 295 295 296 292 295 295 304 306 310 312 313 317 320 321 321 320
300 299 300 296 294 293 292 290 295 294 294 294 294 296 296 293 294 293 296 294 295 297 295 293 289 292 292 300 296 293 295 297 306 308 306 308 306 314 315 315 317 319 320 320 320
307 305 302 299 296 292 291 293 297 296 298 299 298 295 294 294 296 298 298 297 295 293 294 293 290 289 286 297 295 290 293 294 305 308 308 303 309 314 312 313 314 316 318 318 317

GFSSW_sfc_thetae_114.txt.gz
Theta_e
318 318 318 318 318 318 318 318 317 317 317 318 317 317 319 319 320 314 301 306 310 331 340 331 322 316 316 319 333 335 318 315 318 319 321 330 326 333 333 327 330 331 330 334 342
317 317 317 317 317 317 317 317 317 317 317 317 317 317 318 320 310 307 316 323 329 347 328 318 314 311 304 309 319 326 314 318 326 327 323 331 329 328 327 325 326 328 335 341 343
318 317 317 317 317 317 317 317 317 317 317 316 316 316 318 318 302 299 327 329 335 338 317 315 314 309 306 310 313 325 316 326 327 330 329 330 329 330 326 323 324 326 333 338 339
318 318 317 317 317 317 317 317 316 316 316 316 316 316 319 310 290 315 333 335 339 325 309 309 309 307 308 308 315 319 324 327 328 333 329 328 330 326 328 330 330 333 337 338 336
317 317 317 316 317 317 317 316 316 315 315 316 316 317 310 300 298 311 345 335 331 317 307 305 310 311 308 312 318 318 321 329 333 332 330 332 329 328 326 332 334 337 337 336 336
316 316 316 316 316 316 316 316 315 314 315 315 315 318 304 289 305 328 329 327 320 307 305 309 312 316 313 312 312 317 326 331 332 329 332 328 328 327 329 333 333 334 333 334 335
316 316 316 315 316 316 316 315 315 315 315 315 316 316 306 295 314 324 323 317 311 304 302 306 318 317 315 310 315 327 322 329 330 330 327 329 324 322 332 332 332 332 333 334 335
317 316 315 315 315 314 315 315 315 315 315 315 318 309 294 308 312 317 309 307 306 301 305 307 318 315 313 311 316 320 317 313 326 327 329 325 315 326 332 332 330 332 332 333 334
316 316 315 314 313 313 314 315 316 317 317 318 305 301 296 317 311 311 311 307 304 300 301 314 314 308 304 298 297 303 304 310 318 327 325 322 314 325 333 330 329 331 332 332 331
316 315 315 314 313 312 313 314 320 318 317 317 314 301 306 307 310 309 313 306 302 302 303 303 301 297 295 295 290 296 301 305 310 321 324 320 317 324 329 329 329 330 332 330 330
316 315 314 313 312 311 307 308 304 301 306 298 298 305 309 312 312 311 314 308 304 301 299 301 296 294 296 298 298 297 295 298 319 323 321 318 318 322 326 327 327 329 328 329 330
317 315 314 313 312 312 305 299 303 306 298 308 308 308 311 310 305 308 310 302 301 298 301 296 293 298 301 300 298 297 295 308 319 323 320 319 318 322 326 326 327 329 330 328 330
316 316 315 313 311 304 301 304 308 306 296 300 307 306 306 308 305 305 309 304 300 297 298 295 298 302 301 298 297 293 292 307 312 320 322 319 315 319 325 327 328 330 331 332 331
316 315 314 311 302 304 303 308 307 305 289 295 298 306 306 307 303 311 310 305 299 297 298 297 302 301 298 298 298 289 299 304 315 308 302 314 301 314 320 322 325 326 328 331 332
315 315 312 309 300 302 304 304 303 299 283 300 299 307 303 304 305 304 309 306 298 298 297 296 296 297 296 298 300 296 307 304 315 305 303 305 300 305 318 317 320 325 327 331 330
315 314 311 306 304 307 310 305 300 290 286 298 300 298 300 300 300 306 305 306 305 300 298 298 302 300 299 301 301 317 311 308 306 303 295 301 300 302 312 316 321 325 327 329 332
312 311 309 310 301 307 307 304 291 286 298 297 295 296 297 296 298 302 300 296 295 291 291 296 298 301 302 296 302 308 302 294 292 294 294 298 303 303 314 320 323 324 326 329 334
310 308 307 309 308 308 306 300 287 296 295 301 297 294 294 296 296 298 296 294 296 294 290 290 290 298 300 299 296 303 300 294 288 290 293 304 299 305 319 321 324 326 325 329 332
308 301 302 306 310 307 302 290 290 295 300 299 295 293 293 298 297 297 294 293 295 295 290 289 291 301 302 300 303 302 299 300 294 291 295 299 308 316 319 321 323 324 326 327 331
301 301 301 309 310 305 298 292 295 301 302 298 292 294 289 294 295 294 294 298 296 298 295 293 289 295 301 302 301 300 302 294 291 287 286 298 301 302 314 317 322 324 325 328 331
300 298 302 309 305 302 293 292 299 303 305 297 294 292 291 292 293 292 294 299 300 299 296 294 292 294 297 295 294 296 294 293 293 291 289 291 297 315 314 318 318 321 323 325 330
296 296 305 306 298 291 291 296 300 297 303 299 299 296 293 295 292 292 294 297 303 299 292 293 291 289 293 298 298 295 294 292 291 289 294 294 296 316 319 320 320 321 325 326 328
297 296 306 304 294 291 292 297 295 296 295 297 297 297 296 292 289 294 297 302 303 297 292 293 288 287 291 294 295 292 294 290 290 295 294 292 295 317 319 317 321 322 324 326 326
299 294 297 296 293 292 293 292 292 299 297 296 297 297 294 293 293 292 295 300 300 298 311 300 289 290 287 288 291 291 294 293 291 291 294 295 304 311 313 313 317 322 324 325 325
300 296 296 293 294 291 292 292 293 292 296 297 295 296 293 290 292 292 296 295 297 304 296 293 289 291 294 295 295 294 293 294 291 292 294 299 303 310 312 312 319 322 322 321 321
299 298 298 295 295 290 290 289 293 292 294 293 293 295 294 292 293 291 293 292 292 296 293 291 289 290 292 298 297 293 294 297 305 305 304 305 302 312 313 316 318 320 320 319 319
304 303 300 296 290 291 289 291 294 295 297 298 296 293 292 292 294 294 296 294 292 293 293 292 292 289 286 293 296 292 292 294 299 308 307 301 305 312 311 315 318 320 320 320 318

GFSSW_sfc_thetae_117.txt.gz
Theta_e
317 317 317 317 317 317 317 317 317 317 318 317 317 316 317 318 319 317 304 312 314 334 341 331 324 322 331 331 339 335 322 316 318 321 322 330 326 331 335 329 331 334 332 337 343
318 318 318 317 317 317 317 317 317 317 317 317 317 316 317 318 313 308 317 322 327 340 326 319 313 316 315 318 328 330 319 320 327 328 325 329 329 329 327 328 329 332 338 341 343
318 318 318 317 317 317 317 317 317 317 316 316 316 316 318 318 306 303 325 327 333 342 326 320 318 314 313 318 322 329 319 327 328 331 330 328 328 329 327 324 329 329 334 339 339
317 317 317 317 317 317 317 317 317 316 315 315 315 315 318 315 296 323 332 334 342 321 320 318 314 313 314 317 321 322 326 328 330 332 330 328 328 326 329 330 332 335 337 337 335
317 317 316 316 316 316 316 316 316 315 315 315 316 316 316 304 301 311 333 336 336 317 315 314 311 315 316 317 319 319 322 328 332 333 331 332 327 326 326 332 336 337 337 336 337
317 317 316 316 316 316 316 315 315 314 315 315 315 317 311 296 311 331 331 331 326 314 311 316 314 321 319 318 320 322 328 332 332 332 332 327 326 328 329 334 335 336 336 338 339
316 317 316 315 315 315 315 314 314 315 315 315 315 317 308 301 316 331 325 321 320 313 309 314 320 321 321 314 325 330 327 330 330 331 329 328 322 323 331 335 334 335 337 338 340
316 316 315 314 313 313 313 314 314 315 314 315 317 315 301 308 318 322 317 314 311 311 312 312 321 322 320 318 323 325 326 320 328 330 330 328 314 324 332 331 330 334 336 337 340
315 316 315 314 313 312 312 313 314 316 316 318 314 310 300 320 313 318 316 311 313 310 310 312 316 316 312 310 316 316 315 317 323 330 327 325 321 328 332 331 330 331 334 336 339
315 316 315 314 313 311 312 315 321 320 318 318 315 307 311 309 314 315 316 312 308 308 307 310 312 312 308 306 305 312 309 314 316 325 326 322 322 328 332 330 330 331 333 336 337
317 316 314 314 313 312 311 316 310 309 311 305 304 307 311 316 315 312 313 310 308 306 304 309 309 308 309 307 306 307 304 308 321 327 325 322 322 326 331 329 329 330 330 335 336
316 316 314 314 313 311 308 307 310 311 305 310 310 309 311 314 309 311 315 306 303 300 306 307 307 309 307 306 305 304 303 316 322 326 324 322 321 326 330 329 330 329 329 332 335
316 316 314 312 311 308 307 308 313 313 305 305 310 310 310 313 309 309 313 308 303 305 306 307 308 306 305 304 304 303 303 315 316 323 324 322 319 322 328 329 330 330 331 332 334
316 315 313 311 306 310 308 312 312 312 299 300 304 310 311 312 308 315 315 311 306 305 306 309 306 304 304 303 304 302 305 312 319 316 309 320 307 317 322 325 327 328 330 330 335
315 314 312 310 308 307 309 312 310 306 289 304 305 314 311 309 310 310 316 311 306 305 306 303 303 304 303 304 306 304 307 309 314 315 312 314 310 313 321 321 324 328 330 332 333
314 312 311 309 308 312 314 310 306 297 289 301 304 305 306 307 307 310 311 312 309 306 306 305 307 306 306 306 307 318 312 315 316 313 302 309 309 310 316 322 326 329 331 333 333
312 310 309 312 308 312 312 308 298 293 302 300 301 303 304 302 304 307 306 304 302 299 300 304 304 307 307 304 309 317 311 303 302 302 301 310 309 312 320 324 329 329 330 333 333
309 308 310 312 314 312 312 307 293 299 299 305 301 302 300 302 301 303 303 301 303 302 300 297 294 304 307 306 303 310 308 301 295 298 301 311 306 313 322 326 329 333 333 332 334
308 309 310 311 313 312 310 298 297 300 303 302 301 299 299 302 302 302 301 302 304 305 300 298 298 306 307 306 309 307 304 309 304 305 304 309 312 320 322 324 327 330 331 330 335
309 309 308 313 314 312 306 296 301 303 306 303 297 299 297 299 300 301 300 303 301 303 304 303 298 304 307 308 307 310 311 301 304 298 296 304 308 311 316 321 326 327 329 331 334
308 307 310 315 312 311 301 299 302 305 307 302 299 299 299 299 300 300 300 303 304 303 305 304 302 302 305 304 303 305 305 304 306 303 299 299 306 320 320 322 324 327 329 331 333
306 304 311 312 306 301 301 300 299 302 305 304 304 302 300 300 300 300 300 302 307 305 301 303 304 301 301 305 304 304 303 305 301 300 305 305 305 320 323 324 326 326 330 333 334
307 307 313 311 302 303 301 301 300 300 299 302 302 303 303 300 299 301 302 306 307 303 301 303 300 296 299 302 303 301 302 302 303 309 305 300 304 320 324 323 323 324 328 332 334
308 303 306 305 301 301 301 298 298 301 301 302 302 303 302 301 303 300 301 304 304 307 309 309 300 300 294 299 301 298 300 301 302 302 304 305 309 315 318 321 321 324 327 327 330
308 304 303 301 302 300 300 298 298 297 302 303 301 300 301 299 300 300 302 302 303 305 303 304 300 300 300 300 300 299 299 306 301 302 304 308 310 316 319 320 321 325 326 325 325
308 307 306 304 302 299 297 299 298 298 301 300 299 299 302 299 300 299 301 302 301 304 303 302 299 301 299 301 301 298 300 304 307 307 308 309 311 319 324 324 322 322 322 324 324
313 311 308 298 299 300 299 299 300 302 302 303 301 301 300 299 301 302 305 303 301 302 302 302 301 299 295 299 300 296 300 302 308 312 312 308 313 320 320 319 320 321 323 323 323